[[{"header":{"parameterUnit":"m.s-1","parameterCategory":1,"la1":30.6,"la2":29.2853,"lo1":-89.7004,"lo2":-87.6739,"dy":0.0162,"dx":0.0183,"nx":112,"ny":82,"refTime":"2023-09-06T06:00:00:Z","depth":0,"parameterNumber":2,"parameterNumberName":"U-component_of_WINDS"},"data":[0.0,0.0,0.0,0.0,0.0,0.0,0.0,0.0,0.0,0.0,0.0,0.0,0.0,0.0,0.0,0.0,0.0,0.0,0.0,0.0,0.0,0.0,0.0,0.0,0.0,0.0,0.0,0.0,0.0,0.0,0.0,0.0,0.0,0.0,0.0,0.0,0.0,0.0,0.0,0.0,0.0,0.0,0.0,0.0,0.0,0.0,0.0,0.0,0.0,0.0,0.0,0.0,0.0,0.0,0.0,0.0,0.0,0.0,0.0,0.0,0.0,0.0,0.0,0.0,0.0,0.0,0.0,0.0,0.0,0.0,0.0,0.0,0.0,0.0,0.0,0.0,0.0,0.0,0.0,0.0,0.0,0.0,0.0,0.0,0.0,0.0,0.0,0.0,0.0,0.0,0.0,-3.3587,-3.3091,-3.1995,-3.0503,-3.0265,-2.9849,-2.906,0.0,0.0,0.0,0.0,0.0,0.0,0.0,0.0,0.0,0.0,0.0,0.0,0.0,0.0,0.0,0.0,0.0,0.0,0.0,0.0,0.0,0.0,0.0,0.0,0.0,0.0,0.0,0.0,0.0,0.0,0.0,0.0,0.0,0.0,0.0,0.0,0.0,0.0,0.0,0.0,0.0,0.0,0.0,0.0,0.0,0.0,0.0,0.0,0.0,0.0,0.0,0.0,0.0,0.0,0.0,0.0,0.0,0.0,0.0,0.0,0.0,0.0,0.0,0.0,0.0,0.0,0.0,0.0,0.0,0.0,0.0,0.0,0.0,0.0,0.0,0.0,0.0,0.0,0.0,0.0,0.0,0.0,0.0,0.0,0.0,0.0,0.0,0.0,0.0,0.0,0.0,0.0,0.0,0.0,0.0,0.0,0.0,0.0,0.0,0.0,0.0,0.0,0.0,0.0,-3.3385,-3.3752,-3.3091,-3.2216,-3.1305,-3.0595,-2.9849,-2.906,0.0,0.0,0.0,0.0,0.0,0.0,0.0,0.0,0.0,0.0,0.0,0.0,0.0,0.0,0.0,0.0,0.0,0.0,0.0,0.0,0.0,0.0,0.0,0.0,0.0,0.0,0.0,0.0,0.0,0.0,0.0,0.0,0.0,0.0,0.0,0.0,0.0,0.0,0.0,0.0,0.0,0.0,0.0,0.0,0.0,0.0,0.0,0.0,0.0,0.0,0.0,0.0,0.0,0.0,0.0,0.0,0.0,0.0,0.0,0.0,0.0,0.0,0.0,0.0,0.0,0.0,0.0,0.0,0.0,0.0,0.0,0.0,0.0,0.0,0.0,0.0,0.0,0.0,0.0,0.0,0.0,0.0,0.0,0.0,0.0,0.0,0.0,0.0,0.0,0.0,0.0,0.0,0.0,0.0,0.0,0.0,0.0,0.0,0.0,0.0,0.0,0.0,0.0,-3.3073,-3.3807,-3.3807,-3.3476,-3.2742,-3.1507,-3.1054,-3.032,-2.9078,-2.9112,0.0,0.0,0.0,0.0,0.0,0.0,0.0,0.0,0.0,0.0,0.0,0.0,0.0,0.0,0.0,0.0,0.0,0.0,0.0,0.0,0.0,0.0,0.0,0.0,0.0,0.0,0.0,0.0,0.0,0.0,0.0,0.0,0.0,0.0,0.0,0.0,0.0,0.0,0.0,0.0,0.0,0.0,0.0,0.0,0.0,0.0,0.0,0.0,0.0,0.0,0.0,0.0,0.0,0.0,0.0,0.0,0.0,0.0,0.0,0.0,0.0,0.0,0.0,0.0,0.0,0.0,0.0,0.0,0.0,0.0,0.0,0.0,0.0,0.0,0.0,0.0,0.0,0.0,0.0,0.0,0.0,0.0,0.0,0.0,0.0,0.0,0.0,0.0,0.0,0.0,0.0,0.0,0.0,0.0,0.0,0.0,0.0,0.0,0.0,0.0,0.0,0.0,-3.3421,-3.3807,-3.3807,-3.3807,-3.322,-3.1788,-3.1513,-3.0797,-2.9372,-2.9097,0.0,0.0,0.0,0.0,0.0,0.0,0.0,0.0,0.0,0.0,0.0,0.0,0.0,0.0,0.0,0.0,0.0,0.0,0.0,0.0,0.0,0.0,0.0,0.0,0.0,0.0,0.0,0.0,0.0,0.0,0.0,0.0,0.0,0.0,0.0,0.0,0.0,0.0,0.0,0.0,0.0,0.0,0.0,0.0,0.0,0.0,0.0,0.0,0.0,0.0,0.0,0.0,0.0,0.0,0.0,0.0,0.0,0.0,0.0,0.0,0.0,0.0,0.0,0.0,0.0,0.0,0.0,0.0,0.0,0.0,0.0,0.0,0.0,0.0,0.0,0.0,0.0,0.0,0.0,0.0,0.0,0.0,0.0,0.0,0.0,0.0,0.0,0.0,0.0,0.0,0.0,0.0,0.0,0.0,0.0,0.0,0.0,0.0,0.0,0.0,0.0,0.0,-3.377,-3.3807,-3.3807,-3.3807,-3.3458,-3.2583,-3.1825,-3.1017,-3.0173,-2.9409,0.0,0.0,0.0,0.0,0.0,0.0,0.0,0.0,0.0,0.0,0.0,0.0,0.0,0.0,0.0,0.0,0.0,0.0,0.0,0.0,0.0,0.0,0.0,0.0,0.0,0.0,0.0,0.0,0.0,0.0,0.0,0.0,0.0,0.0,0.0,0.0,0.0,0.0,0.0,0.0,0.0,0.0,0.0,0.0,0.0,0.0,0.0,0.0,0.0,0.0,0.0,0.0,0.0,0.0,0.0,0.0,0.0,0.0,0.0,0.0,0.0,0.0,0.0,0.0,0.0,0.0,0.0,0.0,0.0,0.0,0.0,0.0,0.0,0.0,0.0,0.0,0.0,0.0,0.0,0.0,0.0,0.0,0.0,0.0,0.0,0.0,0.0,0.0,0.0,0.0,0.0,0.0,0.0,0.0,0.0,0.0,0.0,0.0,0.0,0.0,0.0,0.0,-3.3807,-3.3807,0.0,-3.3807,-3.3476,-3.2674,-3.1861,-3.1054,-3.0246,0.0,0.0,0.0,0.0,0.0,0.0,0.0,0.0,0.0,0.0,0.0,0.0,0.0,0.0,0.0,0.0,0.0,0.0,0.0,0.0,0.0,0.0,0.0,0.0,0.0,0.0,0.0,0.0,0.0,0.0,0.0,0.0,0.0,0.0,0.0,0.0,0.0,0.0,0.0,0.0,0.0,0.0,0.0,0.0,0.0,0.0,0.0,0.0,0.0,0.0,0.0,0.0,0.0,0.0,0.0,0.0,0.0,0.0,0.0,0.0,0.0,0.0,0.0,0.0,0.0,0.0,0.0,0.0,0.0,0.0,0.0,0.0,0.0,0.0,0.0,0.0,0.0,0.0,0.0,0.0,0.0,0.0,0.0,0.0,0.0,0.0,0.0,0.0,0.0,0.0,0.0,0.0,0.0,0.0,0.0,0.0,0.0,0.0,0.0,0.0,0.0,0.0,-3.3733,-3.3807,-3.3807,0.0,-3.3807,-3.3587,-3.3036,-3.2247,-3.1439,-3.0632,0.0,0.0,0.0,0.0,0.0,0.0,0.0,0.0,0.0,0.0,0.0,0.0,0.0,0.0,0.0,0.0,0.0,0.0,0.0,0.0,0.0,0.0,0.0,0.0,0.0,0.0,0.0,0.0,0.0,0.0,0.0,0.0,0.0,0.0,0.0,0.0,0.0,0.0,0.0,0.0,0.0,0.0,0.0,0.0,0.0,0.0,0.0,0.0,0.0,0.0,0.0,0.0,0.0,0.0,0.0,0.0,0.0,0.0,0.0,0.0,0.0,0.0,0.0,0.0,0.0,0.0,0.0,0.0,0.0,0.0,0.0,0.0,0.0,0.0,0.0,0.0,0.0,0.0,0.0,0.0,0.0,0.0,0.0,0.0,0.0,0.0,0.0,0.0,0.0,0.0,0.0,0.0,0.0,0.0,0.0,0.0,0.0,0.0,0.0,0.0,0.0,0.0,-3.3807,-3.3807,-3.3807,-3.3807,-3.3807,-3.3807,-3.3807,-3.3073,-3.2265,0.0,0.0,0.0,0.0,0.0,0.0,0.0,0.0,0.0,0.0,0.0,0.0,0.0,0.0,0.0,0.0,0.0,0.0,0.0,0.0,0.0,0.0,0.0,0.0,0.0,0.0,0.0,0.0,0.0,0.0,0.0,0.0,0.0,0.0,0.0,0.0,0.0,0.0,0.0,0.0,0.0,0.0,0.0,0.0,0.0,0.0,0.0,0.0,0.0,0.0,0.0,0.0,0.0,0.0,0.0,0.0,0.0,0.0,0.0,0.0,0.0,0.0,0.0,0.0,0.0,0.0,0.0,0.0,0.0,0.0,0.0,0.0,0.0,0.0,0.0,0.0,0.0,0.0,0.0,0.0,0.0,0.0,0.0,0.0,0.0,0.0,0.0,0.0,0.0,0.0,0.0,0.0,0.0,0.0,0.0,0.0,0.0,0.0,0.0,0.0,0.0,0.0,0.0,-3.3807,-3.3807,-3.3807,-3.3807,-3.3807,-3.3807,-3.3807,-3.3073,-3.2491,-3.2265,0.0,0.0,0.0,0.0,0.0,0.0,0.0,0.0,0.0,0.0,0.0,0.0,0.0,0.0,0.0,0.0,0.0,0.0,0.0,0.0,0.0,0.0,0.0,0.0,0.0,0.0,0.0,0.0,0.0,0.0,0.0,0.0,0.0,0.0,0.0,0.0,0.0,0.0,0.0,0.0,0.0,0.0,0.0,0.0,0.0,0.0,0.0,0.0,0.0,0.0,0.0,0.0,0.0,0.0,0.0,0.0,0.0,0.0,0.0,0.0,0.0,0.0,0.0,0.0,0.0,0.0,0.0,0.0,0.0,0.0,0.0,0.0,0.0,0.0,0.0,0.0,0.0,0.0,0.0,0.0,0.0,0.0,0.0,0.0,0.0,0.0,0.0,0.0,0.0,0.0,0.0,0.0,0.0,0.0,0.0,0.0,0.0,0.0,0.0,0.0,0.0,0.0,-3.3807,-3.3807,-3.3807,-3.3807,-3.3807,-3.3807,-3.3807,-3.3366,-3.2803,-3.2173,0.0,0.0,0.0,0.0,0.0,0.0,0.0,0.0,0.0,0.0,0.0,0.0,0.0,0.0,0.0,0.0,0.0,0.0,0.0,0.0,0.0,0.0,0.0,0.0,0.0,0.0,0.0,0.0,0.0,0.0,0.0,0.0,0.0,0.0,0.0,0.0,0.0,0.0,0.0,0.0,0.0,0.0,0.0,0.0,0.0,0.0,0.0,0.0,0.0,0.0,0.0,0.0,0.0,0.0,0.0,0.0,0.0,0.0,0.0,0.0,0.0,0.0,0.0,0.0,0.0,0.0,0.0,0.0,0.0,0.0,0.0,0.0,0.0,0.0,0.0,0.0,0.0,0.0,0.0,0.0,0.0,0.0,0.0,0.0,0.0,0.0,0.0,0.0,0.0,0.0,0.0,0.0,0.0,0.0,0.0,0.0,0.0,0.0,0.0,0.0,0.0,0.0,-3.3807,-3.3807,-3.3807,-3.3807,-3.3807,-3.3807,-3.3807,-3.3807,-3.3183,-3.1709,0.0,0.0,0.0,0.0,0.0,0.0,0.0,0.0,0.0,0.0,0.0,0.0,0.0,0.0,0.0,0.0,0.0,0.0,0.0,0.0,0.0,0.0,0.0,0.0,0.0,0.0,0.0,0.0,0.0,0.0,0.0,0.0,0.0,0.0,0.0,0.0,0.0,0.0,0.0,0.0,0.0,0.0,0.0,0.0,0.0,0.0,0.0,0.0,0.0,0.0,0.0,0.0,0.0,0.0,0.0,0.0,0.0,0.0,0.0,0.0,-3.552,0.0,0.0,0.0,0.0,0.0,0.0,0.0,0.0,0.0,0.0,0.0,0.0,0.0,0.0,0.0,0.0,0.0,0.0,0.0,0.0,0.0,0.0,0.0,0.0,0.0,0.0,0.0,0.0,0.0,0.0,0.0,0.0,0.0,0.0,0.0,0.0,0.0,0.0,0.0,0.0,0.0,-3.3807,-3.3807,-3.3807,-3.3807,-3.3807,-3.3807,-3.3807,-3.3807,-3.3642,-3.3311,-3.2113,0.0,0.0,0.0,0.0,0.0,0.0,0.0,0.0,0.0,0.0,0.0,0.0,0.0,0.0,0.0,0.0,0.0,0.0,0.0,0.0,0.0,0.0,0.0,0.0,0.0,0.0,0.0,0.0,0.0,0.0,0.0,0.0,0.0,0.0,0.0,0.0,0.0,0.0,0.0,0.0,0.0,0.0,0.0,0.0,0.0,0.0,0.0,0.0,0.0,0.0,0.0,0.0,0.0,0.0,0.0,0.0,0.0,0.0,0.0,0.0,-3.55,0.0,0.0,0.0,0.0,0.0,0.0,0.0,0.0,0.0,0.0,0.0,0.0,0.0,0.0,0.0,0.0,0.0,0.0,0.0,0.0,0.0,0.0,0.0,0.0,0.0,0.0,0.0,0.0,0.0,0.0,0.0,0.0,0.0,0.0,0.0,0.0,0.0,0.0,0.0,0.0,-3.3807,-3.3807,-3.3807,-3.3807,-3.3807,-3.3807,-3.3807,-3.3807,-3.3642,-3.3256,-3.2082,0.0,0.0,0.0,0.0,0.0,0.0,0.0,0.0,0.0,0.0,0.0,0.0,0.0,0.0,0.0,0.0,0.0,0.0,0.0,0.0,0.0,0.0,0.0,0.0,0.0,0.0,0.0,0.0,0.0,0.0,0.0,0.0,0.0,0.0,0.0,0.0,0.0,0.0,0.0,0.0,0.0,0.0,0.0,0.0,0.0,0.0,0.0,0.0,0.0,0.0,0.0,0.0,0.0,-3.5942,-3.5942,-3.5942,-3.5942,-3.5942,-3.5942,-3.5942,-3.5769,-3.55,-3.55,0.0,0.0,0.0,0.0,0.0,0.0,0.0,0.0,0.0,0.0,0.0,0.0,0.0,0.0,0.0,0.0,0.0,0.0,0.0,0.0,0.0,0.0,0.0,0.0,-3.4323,-3.371,0.0,0.0,0.0,0.0,0.0,0.0,0.0,0.0,0.0,0.0,0.0,0.0,-3.3807,-3.3807,-3.3807,-3.3807,-3.3807,-3.3807,-3.3807,-3.3807,-3.3532,-3.2839,-3.2045,-3.1237,0.0,0.0,0.0,0.0,0.0,0.0,0.0,0.0,0.0,0.0,0.0,0.0,0.0,0.0,0.0,0.0,0.0,0.0,0.0,0.0,0.0,0.0,0.0,0.0,0.0,0.0,0.0,0.0,0.0,0.0,0.0,0.0,-3.5675,-3.5534,0.0,0.0,0.0,0.0,0.0,0.0,0.0,0.0,0.0,0.0,0.0,0.0,0.0,-3.7661,-3.7661,-3.7661,-3.7661,-3.7661,-3.7661,-3.7661,-3.7661,-3.7661,-3.7661,-3.7661,-3.7661,0.0,-3.55,-3.55,0.0,0.0,0.0,0.0,0.0,0.0,0.0,0.0,0.0,0.0,0.0,0.0,0.0,0.0,0.0,0.0,0.0,0.0,0.0,0.0,0.0,0.0,-3.3815,-3.3908,-3.3876,-3.3768,0.0,-3.3978,-3.4347,-3.4057,-3.4073,0.0,0.0,0.0,0.0,0.0,0.0,0.0,-3.3807,-3.3807,-3.3807,-3.3807,-3.3807,-3.3807,-3.3807,-3.3807,-3.3752,-3.3642,-3.2889,-3.2082,-3.1286,-3.0467,0.0,0.0,0.0,0.0,0.0,0.0,0.0,0.0,0.0,0.0,0.0,0.0,0.0,0.0,0.0,0.0,0.0,0.0,0.0,0.0,0.0,0.0,0.0,0.0,0.0,0.0,0.0,0.0,0.0,-3.6365,-3.6418,-3.6848,-3.6941,-3.6935,0.0,0.0,0.0,0.0,0.0,0.0,0.0,0.0,0.0,-3.8007,-3.8007,-3.8007,-3.8007,-3.8007,-3.8007,-3.8007,-3.8007,-3.8007,-3.8007,-3.8007,-3.8007,-3.8007,-3.8007,-3.7584,-3.6873,-3.6385,-3.5904,-3.55,0.0,0.0,0.0,0.0,-3.55,-3.55,-3.55,-3.5391,0.0,-3.5446,0.0,0.0,0.0,0.0,0.0,0.0,0.0,0.0,0.0,0.0,-3.3807,-3.3807,-3.3807,-3.3807,-3.3807,-3.4005,-3.4148,0.0,-3.3974,-3.3935,-3.3815,0.0,0.0,0.0,0.0,-3.3807,-3.3807,-3.3807,-3.3807,-3.3807,-3.3807,-3.3807,-3.3807,-3.3807,-3.3807,-3.3807,-3.3041,-3.2436,-3.21,-3.087,-3.0026,0.0,0.0,0.0,0.0,0.0,0.0,0.0,0.0,0.0,0.0,0.0,0.0,0.0,0.0,0.0,0.0,0.0,0.0,0.0,0.0,0.0,0.0,0.0,0.0,0.0,0.0,0.0,0.0,-3.7156,-3.7276,-3.7911,-3.8007,-3.8007,0.0,0.0,0.0,0.0,0.0,0.0,-3.8623,-3.8642,-3.8642,-3.8642,-3.8642,-3.8642,-3.8642,-3.8642,-3.8642,-3.8642,-3.8642,-3.8642,-3.8642,-3.8642,-3.8642,-3.8642,-3.8642,-3.8527,-3.8277,-3.7392,-3.6673,-3.6115,-3.5885,-3.5808,-3.5788,-3.5577,-3.55,-3.55,-3.55,-3.5369,-3.5223,-3.5361,-3.5088,-3.4714,-3.4841,0.0,0.0,0.0,0.0,-3.4099,-3.4099,-3.3948,-3.3807,-3.3807,-3.3807,-3.3807,-3.3807,-3.3807,-3.3807,0.0,-3.3807,-3.3807,-3.3807,0.0,0.0,0.0,0.0,-3.3807,-3.3807,-3.3807,-3.3807,-3.3807,-3.3807,-3.3807,-3.3807,-3.3807,-3.3807,-3.3807,-3.3238,-3.2803,-3.2601,-3.1256,-3.0411,-3.021,0.0,0.0,0.0,0.0,0.0,0.0,0.0,0.0,0.0,0.0,0.0,0.0,0.0,0.0,0.0,0.0,0.0,0.0,0.0,0.0,0.0,0.0,0.0,0.0,0.0,0.0,0.0,0.0,0.0,-3.7988,-3.8007,0.0,0.0,0.0,0.0,-3.9169,-3.9227,-3.9573,-4.0323,-4.0362,-4.0362,-4.0362,-4.0362,-4.0362,-4.0362,-4.0362,-4.0362,-4.0362,-4.0362,-4.0362,-4.0362,-4.0362,-4.0362,-4.0362,-4.0362,-3.9938,-3.9169,-3.8296,-3.7911,-3.7796,-3.6962,-3.6635,-3.6538,-3.5788,-3.55,-3.55,-3.55,-3.5493,-3.5439,-3.5198,-3.4935,-3.4643,-3.4345,-3.4235,0.0,0.0,-3.3829,-3.3815,-3.3815,-3.3802,-3.3807,-3.3807,-3.3807,-3.3807,-3.3807,-3.3807,-3.3807,0.0,-3.3807,-3.3807,-3.3807,0.0,-3.3807,-3.3807,-3.3807,-3.3807,-3.3807,-3.3807,-3.3807,-3.3807,-3.3807,-3.3807,-3.3807,-3.3807,-3.3807,-3.3807,-3.3752,-3.3403,-3.2619,-3.1788,-3.098,-3.021,-2.9409,0.0,0.0,0.0,0.0,0.0,0.0,0.0,0.0,0.0,0.0,0.0,0.0,0.0,0.0,0.0,0.0,0.0,0.0,0.0,0.0,0.0,0.0,0.0,0.0,0.0,0.0,0.0,0.0,-3.9554,-3.9611,0.0,-3.9611,-3.9611,-3.9746,-4.0054,-4.0073,-4.0208,-4.0477,-4.0496,-4.0496,-4.0496,-4.0496,-4.0496,-4.0496,-4.0496,-4.0496,-4.0496,-4.0496,-4.0496,-4.0496,-4.0496,-4.0496,-4.0496,-4.0496,-4.0342,-4.0054,-3.9746,-3.8969,-3.7969,-3.7661,-3.7546,-3.743,-3.6577,-3.6269,-3.6192,-3.5673,-3.55,-3.5453,-3.519,-3.5044,-3.486,-3.4349,-3.42,-3.4147,-3.3881,-3.3807,-3.3807,-3.3807,-3.3807,-3.3807,-3.3807,-3.3807,-3.3807,-3.3807,-3.3807,-3.3807,-3.3807,-3.3807,-3.3807,-3.3807,-3.3807,-3.3807,-3.3807,-3.3807,-3.3807,-3.3807,-3.3807,-3.3807,-3.3807,-3.3807,-3.3807,-3.3807,-3.3807,-3.3807,-3.3807,-3.3807,-3.3678,-3.3385,-3.2596,-3.1788,-3.0993,-3.0173,-2.9519,0.0,0.0,0.0,0.0,0.0,0.0,0.0,0.0,0.0,0.0,0.0,0.0,0.0,0.0,0.0,0.0,0.0,0.0,0.0,0.0,0.0,0.0,0.0,0.0,0.0,0.0,-3.99,-4.0439,-4.0496,-4.0496,-4.0496,-4.0496,-4.0496,-4.0496,-4.0496,-4.0496,-4.0496,-4.0496,-4.0496,-4.0496,-4.0496,-4.065,-4.0931,-4.0931,-4.1085,-4.1381,-4.1381,-4.1381,-4.1381,-4.1066,-4.0931,-4.0912,-4.0631,-4.0496,-4.0496,-4.0496,-3.9861,-3.8815,-3.8546,-3.843,-3.8334,-3.7469,-3.7142,-3.7026,-3.6192,-3.5669,-3.5346,-3.5166,-3.5044,-3.487,-3.4349,-3.42,-3.4147,-3.3881,-3.3807,-3.3807,-3.3807,-3.3807,-3.3807,-3.3807,-3.3807,-3.3807,-3.3807,-3.3807,-3.3807,-3.3807,-3.3807,-3.3807,-3.3807,-3.3807,-3.3807,-3.3807,-3.3807,-3.3807,-3.3807,-3.3807,-3.3807,-3.3807,-3.3807,-3.3807,-3.3807,-3.3807,-3.3807,-3.3807,-3.3807,-3.3807,-3.3807,-3.3036,-3.2344,-3.1825,-3.0742,-2.9794,-2.9005,0.0,0.0,0.0,0.0,0.0,0.0,0.0,0.0,0.0,0.0,0.0,0.0,0.0,0.0,0.0,0.0,0.0,0.0,0.0,0.0,0.0,0.0,0.0,-4.0692,-4.0575,-4.0496,-4.0496,-4.0496,-4.0496,-4.0496,-4.0496,-4.0496,-4.0496,-4.0496,-4.0516,-4.0535,-4.0535,-4.0554,-4.0573,-4.0573,-4.0989,-4.1827,-4.1846,-4.2258,-4.3104,-4.3104,-4.3104,-4.3066,-4.2239,-4.1846,-4.1788,-4.095,-4.0573,-4.0535,-4.0535,-4.0516,-4.0419,-3.965,-3.9342,-3.9227,-3.8354,-3.8027,-3.7873,-3.7,-3.6017,-3.5151,-3.5113,-3.4935,-3.4653,-3.4323,-3.42,-3.4147,-3.3881,-3.3807,-3.3807,-3.3807,-3.3807,-3.3807,-3.3807,-3.3807,-3.3807,-3.3807,-3.3807,-3.3807,-3.3807,-3.3807,-3.3807,-3.3807,-3.3807,-3.3807,-3.3807,-3.3807,0.0,-3.3807,-3.3807,-3.3807,-3.3807,-3.3807,-3.3807,-3.3807,-3.3807,-3.3807,-3.3807,-3.3807,-3.3807,-3.3807,-3.3041,-3.2619,-3.2601,-3.1005,-2.9824,-2.9042,0.0,0.0,0.0,0.0,0.0,0.0,0.0,0.0,0.0,0.0,0.0,0.0,0.0,0.0,0.0,0.0,0.0,0.0,0.0,0.0,0.0,0.0,-4.0552,-4.0552,-4.0527,-4.0496,-4.0496,-4.0496,-4.0496,-4.0496,-4.0496,-4.0496,-4.0496,-4.0496,-4.0785,-4.1412,-4.145,-4.1739,-4.2374,-4.2393,-4.2508,-4.2739,-4.2739,-4.2854,-4.3104,-4.3104,-4.3104,-4.3085,-4.2854,-4.2739,-4.2739,-4.2489,-4.2027,-4.145,-4.145,-4.1066,-4.0477,-4.0265,-4.0169,-4.0073,-3.9246,-3.8546,-3.7873,-3.7,-3.651,-3.6158,-3.5575,-3.5207,-3.4944,-3.4645,-3.439,-3.4147,-3.3881,-3.3807,-3.3807,-3.3807,-3.3807,-3.3807,-3.3807,-3.3807,-3.3807,-3.3807,-3.3807,-3.3807,-3.3807,-3.3807,-3.3807,-3.3807,-3.3807,-3.3807,-3.3807,-3.3807,0.0,-3.3807,-3.3807,-3.3807,-3.3807,-3.3807,-3.3807,-3.3807,-3.3807,-3.3807,-3.3807,-3.3807,-3.3807,-3.3807,-3.3587,-3.3201,-3.2601,-3.1005,-3.0099,0.0,0.0,0.0,0.0,0.0,0.0,0.0,0.0,0.0,0.0,0.0,0.0,0.0,0.0,0.0,0.0,0.0,0.0,0.0,0.0,0.0,0.0,-4.061,-4.0496,-4.0496,-4.0496,-4.0496,-4.0496,-4.0496,-4.0496,-4.0496,-4.0843,-4.1046,-4.1046,-4.1373,-4.1816,-4.2316,-4.2335,-4.2585,-4.3085,-4.3104,-4.3258,-4.3605,-4.3605,-4.3797,-4.4143,-4.4143,-4.4143,-4.4124,-4.3778,-4.3605,-4.3585,-4.3258,-4.2816,-4.2335,-4.2335,-4.1835,0.0,0.0,0.0,0.0,0.0,-3.9265,-3.8469,-3.7969,-3.7244,-3.6458,-3.5998,-3.5433,-3.4889,-3.4582,-3.4357,-3.4147,-3.3881,-3.3807,-3.3807,-3.3807,-3.3807,-3.3807,-3.3807,-3.3807,-3.3807,-3.3807,-3.3807,-3.3807,-3.3807,-3.3807,0.0,-3.3807,-3.3807,-3.3807,-3.3807,-3.3807,-3.3807,-3.3807,-3.3807,-3.3807,-3.3807,-3.3807,-3.3807,-3.3807,-3.3807,0.0,0.0,0.0,-3.3807,-3.3807,-3.3807,0.0,0.0,0.0,-3.087,-3.021,0.0,0.0,0.0,-2.9005,-2.9005,0.0,0.0,0.0,0.0,0.0,0.0,0.0,0.0,0.0,0.0,0.0,0.0,0.0,0.0,0.0,0.0,-4.0602,-4.0496,-4.0496,-4.0573,-4.0612,-4.0516,-4.0593,-4.065,-4.065,-4.1431,-4.1942,-4.1942,-4.2662,-4.3143,-4.3239,0.0,0.0,0.0,0.0,-4.372,-4.4432,-4.4451,-4.4836,-4.5594,-4.5594,-4.5594,-4.5575,-4.4797,-4.4451,-4.4412,-4.3682,-4.3335,-4.3239,-4.3239,-4.2681,-4.1712,-4.0835,-4.0496,-4.0496,-4.0496,-4.0054,-3.9419,-3.9323,0.0,0.0,-3.6362,-3.5638,-3.4756,-3.433,-3.4183,-3.4117,-3.3881,-3.3807,-3.3807,-3.3807,-3.3807,-3.3807,-3.3807,-3.3807,-3.3807,-3.3807,-3.3807,-3.3807,-3.3807,-3.3807,-3.3807,-3.3807,-3.3807,-3.3807,-3.3807,-3.3807,-3.3807,-3.3807,-3.3807,-3.3807,-3.3807,0.0,0.0,-3.3807,-3.3807,-3.3807,-3.3807,-3.3807,-3.3807,-3.3807,-3.3807,-3.3458,-3.2748,-3.2656,-3.1904,-3.0467,-3.0375,-2.9922,-2.9133,-2.9042,-2.9005,0.0,0.0,0.0,0.0,0.0,0.0,0.0,0.0,0.0,0.0,0.0,0.0,0.0,0.0,0.0,-4.0703,-4.0602,-4.0496,-4.0496,-4.1104,-4.1296,-4.0573,-4.1123,-4.1546,-4.1546,-4.2335,-4.2854,-4.2854,-4.3008,-4.3374,-4.4028,-4.4066,-4.4393,-4.5094,-4.5114,-4.519,-4.5344,-4.5344,-4.5441,-4.5594,0.0,0.0,-4.5594,-4.5441,-4.5344,-4.5344,-4.519,-4.472,-4.4066,-4.4066,-4.3162,-4.1712,-4.0835,-4.0496,-4.0496,-4.0496,-4.04,-4.0189,-3.9534,-3.905,-3.845,-3.6842,-3.6008,-3.5474,-3.4498,-3.4056,0.0,-3.3802,-3.3807,-3.3807,-3.3807,-3.3807,-3.3807,-3.3807,-3.3807,-3.3807,-3.3807,-3.3807,-3.3807,-3.3807,-3.3807,-3.3807,-3.3807,-3.3807,-3.3807,-3.3807,-3.3807,-3.3807,-3.3807,-3.3807,-3.3807,-3.3807,-3.3807,-3.3807,-3.3807,-3.3807,-3.3807,-3.3807,-3.3807,-3.3807,-3.3807,-3.3807,-3.3733,-3.3568,-3.2931,-3.2454,-3.2124,-3.1476,-3.0742,-2.9941,-2.9299,-2.9005,0.0,0.0,0.0,0.0,0.0,0.0,0.0,0.0,0.0,0.0,0.0,-4.086,0.0,0.0,-4.0674,-4.061,-4.0537,-4.065,-4.1085,-4.1527,-4.1643,-4.12,-4.1912,-4.245,-4.245,-4.3201,-4.3701,-4.3701,-4.4105,-4.4528,-4.494,-4.496,-4.5152,-4.5594,-4.5594,-4.5594,-4.5594,-4.5594,-4.5594,-4.5594,-4.5594,-4.5594,-4.5594,-4.5594,-4.5594,-4.5594,-4.5594,-4.5344,-4.4921,-4.447,-4.3816,-4.2912,-4.1643,-4.0873,-4.0496,-4.0496,-4.0496,-4.0439,-4.0035,-3.9549,-3.8908,-3.7719,-3.6604,-3.5567,-3.4816,-3.4234,-3.3807,-3.3807,-3.3807,-3.3807,-3.3807,-3.3807,-3.3807,-3.3807,-3.3807,-3.3807,-3.3807,-3.3807,-3.3807,-3.3807,-3.3807,-3.3807,-3.3807,-3.3807,-3.3807,-3.3807,-3.3807,-3.3807,-3.3807,-3.3807,-3.3807,-3.3807,-3.3807,-3.3807,-3.3807,-3.3807,-3.3807,-3.3807,-3.3807,-3.3807,-3.3807,-3.3807,-3.3807,-3.3807,-3.3421,-3.2999,-3.2601,-3.221,-3.1586,-3.0779,-2.9989,-2.9372,0.0,0.0,0.0,0.0,0.0,0.0,0.0,0.0,-4.1247,-4.1407,-4.1349,-4.1252,-4.1183,-4.1171,-4.1125,-4.102,-4.1016,-4.1239,-4.195,-4.22,-4.2297,-4.2297,-4.2912,-4.3335,-4.3335,-4.4066,-4.4547,-4.4547,-4.521,-4.5594,-4.5594,-4.5594,-4.5594,-4.5594,-4.5594,-4.5594,-4.5594,-4.5594,-4.5594,-4.5594,-4.5594,-4.5594,-4.5594,-4.5594,-4.5594,-4.5594,-4.5594,-4.5594,-4.5556,-4.4836,-4.4451,-4.4162,-4.2816,-4.1662,-4.0727,-4.0554,-4.0496,-4.0496,-4.0496,-3.9931,-3.9126,-3.8664,-3.7445,-3.6026,-3.5312,-3.4631,-3.4079,-3.387,-3.3807,-3.3807,-3.3807,-3.3807,-3.3807,-3.3807,-3.3807,-3.3807,-3.3807,-3.3807,-3.3807,-3.3807,-3.3807,-3.3807,-3.3807,-3.3807,-3.3807,-3.3807,-3.3807,-3.3807,-3.3807,-3.3807,-3.3807,-3.3807,-3.3807,-3.3807,-3.3807,-3.3807,-3.3807,-3.3807,-3.3807,-3.3807,-3.3807,-3.3807,-3.3807,-3.3807,-3.3807,-3.3476,-3.2821,-3.2821,-3.243,-3.1623,-3.098,-3.0143,-4.1191,-4.1191,-4.1191,-4.1191,-4.1105,-4.1238,0.0,0.0,-4.2162,-4.282,-4.2935,-4.2912,-4.2849,-4.2829,-4.2821,-4.2805,-4.2816,-4.2835,-4.2931,-4.3566,-4.4028,-4.4028,-4.4105,-4.4162,-4.4162,-4.496,-4.546,-4.546,-4.5537,-4.5594,-4.5594,-4.5594,-4.5594,-4.5594,-4.5594,-4.5594,-4.5594,-4.5594,-4.5594,-4.5594,-4.5594,-4.5594,-4.5594,-4.5594,-4.5594,-4.5594,-4.5594,-4.5594,-4.5594,-4.5498,-4.4998,-4.4278,-4.4085,-4.3047,-4.1566,-4.0785,-4.0496,-4.0496,-4.0496,-4.0423,-4.0164,-3.9164,-3.8699,-3.8127,-3.6068,-3.538,-3.5095,-3.4079,-3.3807,-3.3807,-3.3807,-3.3807,-3.3807,-3.3807,-3.3807,-3.3807,-3.3807,-3.3807,-3.3807,-3.3807,-3.3807,-3.3807,-3.3807,-3.3807,-3.3807,-3.3807,-3.3807,-3.3807,-3.3807,-3.3807,-3.3807,-3.3807,-3.3807,-3.3807,-3.3807,-3.3807,-3.3807,-3.3807,-3.3807,-3.3807,-3.3807,-3.3807,-3.3807,-3.3807,-3.3807,-3.3752,-3.3678,-3.3678,-3.3256,-3.2454,-3.2362,-3.1518,-4.1191,0.0,0.0,0.0,-4.2215,-4.2611,-4.2963,-4.2883,-4.284,-4.3143,-4.3167,-4.3123,-4.3102,-4.3104,-4.3104,0.0,-4.3104,-4.3258,-4.372,-4.4085,-4.4489,-4.4998,-4.5056,-4.5056,-4.5056,-4.5383,-4.5594,-4.5594,-4.5594,-4.5594,-4.5594,-4.5594,-4.5594,-4.5594,-4.6086,-4.6355,-4.6355,-4.6817,-4.6817,-4.6355,-4.6355,-4.6086,-4.5594,-4.5594,-4.5594,-4.5594,-4.5594,-4.5594,-4.5594,-4.5594,-4.5383,-4.5017,-4.4489,-4.3874,-4.3085,-4.1758,-4.0931,-4.0496,-4.0496,-4.0496,-4.0407,-3.9803,-3.9271,-3.869,-3.7532,-3.6398,-3.5397,-3.4915,-3.4323,-3.3807,-3.3807,-3.3807,-3.3807,-3.3807,-3.3807,-3.3807,-3.3807,-3.3807,-3.3807,-3.3807,-3.3807,-3.3807,-3.3807,-3.3807,-3.3807,-3.3807,-3.3807,-3.3807,-3.3807,-3.3807,-3.3807,-3.3807,-3.3807,-3.3807,-3.3807,-3.3807,-3.3807,-3.3807,-3.3807,-3.3807,-3.3807,-3.3807,-3.3807,-3.3807,-3.3807,-3.3807,-3.3807,-3.3807,-3.3623,-3.3293,-3.2821,-3.2234,-4.1894,0.0,0.0,-4.2887,-4.3107,-4.3546,-4.3796,-4.3665,-4.3561,-4.3812,-4.3825,-4.3797,-4.3797,-4.3797,-4.3797,-4.3797,-4.3797,-4.3989,-4.4586,-4.4662,-4.4893,-4.5518,-4.5594,-4.5594,-4.5594,-4.5594,-4.5594,-4.5594,-4.5594,-4.571,-4.5951,-4.5951,-4.6047,-4.6278,-4.6894,-4.7231,-4.7231,-4.7817,-4.7817,-4.7231,-4.7,-4.6567,-4.5951,-4.571,-4.5594,-4.5594,-4.5594,-4.5594,-4.5594,-4.5594,-4.5594,-4.5537,-4.4921,-4.4509,-4.4124,-4.2701,-4.1604,-4.0816,-4.0573,-4.0496,-4.0473,-4.0267,-3.9821,-3.923,-3.8591,-3.7412,-3.6171,-3.5529,-3.4768,-3.4082,-3.3862,-3.3807,-3.3807,-3.3807,-3.3807,-3.3807,-3.3807,-3.3807,-3.3807,-3.3807,-3.3807,-3.3807,-3.3807,-3.3807,-3.3807,-3.3807,-3.3807,-3.3807,-3.3807,-3.3807,-3.3807,-3.3807,-3.3807,-3.3807,-3.3807,-3.3807,-3.3807,-3.3807,-3.3807,-3.3807,-3.3807,-3.3807,-3.3807,-3.3807,-3.3807,-3.3807,-3.3807,-3.3807,-3.3807,-3.3788,-3.3201,-3.2803,-4.3613,0.0,-4.3609,-4.357,-4.3385,-4.3434,-4.4286,-4.438,-4.4498,-4.5353,-4.5537,-4.5518,-4.5518,-4.5518,-4.5518,-4.5518,-4.5518,-4.5537,-4.5556,-4.5556,-4.5575,-4.5594,-4.5594,-4.5594,0.0,-4.5594,-4.5594,-4.5594,-4.5594,-4.597,-4.6817,-4.6846,-4.7221,-4.8009,-4.8048,-4.8067,-4.8067,-4.8086,-4.8086,-4.8048,-4.7269,-4.6885,-4.6827,-4.599,-4.5594,-4.5594,-4.5594,-4.5594,-4.5594,-4.5594,-4.5594,-4.5594,-4.5575,-4.5037,-4.4201,-4.3374,-4.2508,-4.1643,-4.0785,-4.0496,-4.0496,-4.0489,-4.0469,-4.0178,-3.8814,-3.8357,-3.7845,-3.5642,-3.4986,-3.4784,-3.4009,-3.3807,-3.3807,-3.3807,-3.3807,-3.3807,-3.3807,-3.3807,-3.3807,-3.3807,-3.3807,-3.3807,-3.3807,-3.3807,-3.3807,-3.3807,-3.3807,-3.3807,-3.3807,-3.3807,-3.3807,-3.3807,-3.3807,-3.3807,-3.3807,-3.3807,-3.3807,-3.3807,-3.3807,-3.3807,-3.3807,-3.3807,-3.3807,-3.3807,-3.3807,-3.3807,-3.3807,-3.3807,-3.3807,-3.3807,-3.377,-3.3348,-4.3867,0.0,-4.5226,-4.4553,-4.4701,-4.5054,-4.5318,-4.526,-4.5248,-4.5537,-4.5673,-4.5708,-4.562,-4.5673,-4.57,-4.562,-4.5594,-4.5594,-4.5594,-4.5594,-4.5594,-4.5594,-4.5594,0.0,0.0,0.0,0.0,-4.5594,-4.6144,-4.6586,-4.6885,-4.7413,-4.7817,-4.8086,-4.8663,-4.8952,-4.8952,-4.9529,-4.9529,-4.8952,-4.7567,-4.6904,-4.6865,-4.599,-4.5594,-4.5594,-4.5594,-4.5594,-4.5594,-4.5594,-4.5594,-4.5594,-4.5594,-4.5421,-4.5056,-4.4201,-4.3374,-4.247,-4.0997,-4.0496,-4.0496,-4.0496,-4.0381,-4.0138,-3.967,-3.8841,-3.7804,-3.6495,-3.5578,-3.4821,-3.4009,-3.3807,-3.3807,-3.3807,-3.3807,-3.3807,-3.3807,-3.3807,-3.3807,-3.3807,-3.3807,-3.3807,-3.3807,-3.3807,-3.3807,-3.3807,-3.3807,-3.3807,-3.3807,-3.3807,-3.3807,-3.3807,-3.3807,-3.3807,-3.3807,-3.3807,-3.3807,-3.3807,-3.3807,-3.3807,-3.3807,-3.3807,-3.3807,-3.3807,-3.3807,-3.3807,-3.3807,-3.3807,-3.3807,-3.3807,-3.3807,-3.3642,-4.4785,-4.5409,-4.6062,-4.5367,-4.5531,-4.5834,-4.5742,-4.5657,-4.5594,-4.5594,-4.5708,-4.5763,-4.5696,-4.574,-4.5763,-4.5696,-4.5627,-4.5594,-4.5594,-4.5594,-4.5594,-4.5594,-4.5594,-4.5594,0.0,0.0,0.0,-4.6028,-4.6586,-4.7163,-4.7759,-4.8279,-4.8702,-4.9029,-4.9567,-4.9856,-4.9856,-5.0423,-5.0269,-4.9375,-4.799,-4.7173,-4.6865,-4.599,-4.5594,-4.5594,-4.5594,-4.5594,-4.5594,-4.5594,-4.5594,-4.5594,-4.5594,-4.5594,-4.5498,-4.4624,-4.3797,-4.2893,-4.145,-4.0766,-4.0496,-4.0496,-4.0381,-4.0204,-4.0002,-3.9342,-3.845,-3.7301,-3.6318,-3.5385,-3.4458,-3.4027,-3.3807,-3.3807,-3.3807,-3.3807,-3.3807,-3.3807,-3.3807,-3.3807,-3.3807,-3.3807,-3.3807,-3.3807,-3.3807,-3.3807,-3.3807,-3.3807,-3.3807,-3.3807,-3.3807,-3.3807,-3.3807,-3.3807,-3.3807,-3.3807,-3.3807,-3.3807,-3.3807,-3.3807,-3.3807,-3.3807,-3.3807,-3.3807,-3.3807,-3.3807,-3.3807,-3.3807,-3.3807,-3.3807,-3.3807,-3.3807,-4.6308,-4.6202,-4.608,-4.5948,-4.5845,-4.5763,-4.5627,-4.5594,-4.5594,-4.5612,-4.5703,-4.579,0.0,0.0,-4.5809,-4.579,-4.5669,-4.5594,-4.5594,-4.5594,-4.5594,0.0,0.0,0.0,0.0,0.0,0.0,-4.6885,0.0,-4.7682,-4.9317,-4.9433,-4.9856,-5.0673,-5.0712,-5.0712,-5.0712,-5.0712,-5.0269,-4.9394,-4.8529,-4.7682,-4.6865,-4.599,-4.5594,-4.5594,-4.5594,-4.5594,-4.5594,-4.5594,-4.5594,-4.5594,-4.5594,-4.5594,-4.5498,-4.4662,-4.3835,-4.2989,-4.2162,-4.1277,-4.0496,-4.0496,-4.0489,-4.0362,-3.98,-3.9848,-3.9709,-3.8002,-3.7114,-3.6446,-3.5303,-3.4399,-3.3807,-3.3807,-3.3807,-3.3807,-3.3807,-3.3807,-3.3807,-3.3807,-3.3807,-3.3807,-3.3807,-3.3807,-3.3807,-3.3807,-3.3807,-3.3807,-3.3807,-3.3807,-3.3807,-3.3807,-3.3807,-3.3807,-3.3807,-3.3807,-3.3807,-3.3807,-3.3807,-3.3807,-3.3807,-3.3807,-3.3807,-3.3807,-3.3807,-3.3807,-3.3807,-3.3807,-3.3807,-3.3807,-3.3807,-3.3807,-4.6308,-4.6288,-4.6199,-4.5967,-4.5896,-4.5828,-4.564,-4.5594,-4.5618,-4.5718,-4.5813,-4.5861,0.0,0.0,0.0,-4.5669,-4.561,0.0,-4.5594,-4.5594,0.0,-4.5594,0.0,-4.5594,-4.5594,-4.5594,0.0,0.0,-4.7798,-4.8259,-4.9336,-5.001,-5.0481,-5.0693,-5.0712,-5.0712,-5.0712,-5.0712,-5.0269,-4.9394,-4.8529,-4.7682,-4.6865,-4.599,-4.5594,-4.5594,-4.5594,-4.5594,-4.5594,-4.5594,-4.5594,-4.5594,-4.5594,-4.5594,-4.5575,-4.5344,-4.4355,-4.3066,-4.2854,-4.1758,-4.0496,-4.0496,-4.0364,-4.0177,-4.0022,-3.987,-3.9452,-3.8156,-3.7277,-3.6446,-3.5303,-3.4399,-3.3807,-3.3807,-3.3807,-3.3807,-3.3807,-3.3807,-3.3807,-3.3807,-3.3807,-3.3807,-3.3807,-3.3807,-3.3807,-3.3807,-3.3807,-3.3807,-3.3807,-3.3807,-3.3807,-3.3807,-3.3807,-3.3807,-3.3807,-3.3807,-3.3807,-3.3807,-3.3807,-3.3807,-3.3807,-3.3807,-3.3807,-3.3807,-3.3807,-3.3807,-3.3807,-3.3807,-3.3807,-3.3807,-3.3807,-3.3807,-4.6308,-4.6308,-4.6245,-4.5974,-4.5899,-4.5867,-4.5713,-4.5696,-4.5718,-4.5813,-4.5914,0.0,0.0,0.0,0.0,0.0,0.0,0.0,-4.5594,-4.5594,-4.5594,0.0,-4.5594,0.0,-4.5594,-4.5594,-4.6144,0.0,-4.7894,-4.8644,-4.9894,-5.0442,-5.0712,-5.0712,-5.0712,-5.0712,-5.0712,-5.0327,-4.9875,-4.9394,-4.8163,-4.7336,-4.6865,-4.599,-4.5594,-4.5594,0.0,-4.5594,-4.5594,-4.5594,-4.5594,-4.5594,-4.5594,-4.5594,-4.5594,-4.5594,-4.4528,-4.3104,-4.3104,-4.195,-4.0496,-4.0496,-4.0389,-4.025,-4.0129,-3.9972,-3.9618,-3.8696,-3.7584,-3.652,-3.5777,-3.4688,-3.3807,-3.3807,-3.3807,-3.3807,-3.3807,-3.3807,-3.3807,-3.3807,-3.3807,-3.3807,-3.3807,-3.3807,-3.3807,-3.3807,-3.3807,-3.3807,-3.3807,-3.3807,-3.3807,-3.3807,-3.3807,-3.3807,-3.3807,-3.3807,-3.3807,-3.3807,-3.3807,-3.3807,-3.3807,-3.3807,-3.3807,-3.3807,-3.3807,-3.3807,-3.3807,-3.3807,-3.3807,-3.3807,-3.3807,-3.3807,-4.6308,-4.6308,-4.6246,-4.5988,-4.5924,-4.5914,-4.5832,-4.5815,-4.5819,-4.5918,0.0,-4.6108,-4.6108,-4.5988,-4.5894,-4.59,0.0,-4.5594,-4.5594,-4.5594,-4.5594,-4.5594,-4.5594,-4.5594,-4.5594,-4.5594,-4.5951,-4.6827,-4.7548,-4.8702,-5.0442,-5.0635,-5.0712,-5.0712,-5.0596,-5.0539,-5.0539,-4.9663,-4.9163,-4.9048,-4.7586,-4.6827,-4.6701,-4.5932,-4.5594,-4.5594,-4.5594,0.0,-4.5594,-4.5594,-4.5594,-4.5594,-4.5594,-4.5594,-4.5594,-4.5594,-4.4528,-4.3104,-4.3104,-4.195,-4.0496,-4.0496,-4.0496,-4.0457,-4.0213,-4.0129,-3.9972,-3.9339,-3.8051,-3.6762,-3.6398,-3.5147,-3.3935,-3.3825,-3.3807,-3.3807,-3.3807,-3.3807,-3.3807,-3.3807,-3.3807,-3.3807,-3.3807,-3.3807,-3.3807,-3.3807,-3.3807,-3.3807,-3.3807,-3.3807,-3.3807,-3.3807,-3.3807,-3.3807,-3.3807,-3.3807,-3.3807,-3.3807,-3.3807,-3.3807,-3.3807,-3.3807,-3.3807,-3.3807,-3.3807,-3.3807,-3.3807,-3.3807,-3.3807,-3.3807,-3.3807,-3.3807,-4.6308,-4.6308,-4.6268,-4.6091,-4.6072,-4.6033,-4.5918,-4.5886,0.0,0.0,-4.6082,-4.6108,-4.6108,-4.5988,0.0,-4.5826,0.0,0.0,0.0,0.0,-4.5594,0.0,0.0,0.0,0.0,0.0,0.0,0.0,0.0,-4.7836,-4.9529,-5.0308,-5.0712,-5.0712,-4.999,-4.9625,-4.9625,-4.8759,-4.799,-4.7336,-4.7038,-4.6528,-4.5825,-4.5671,-4.5594,-4.5594,-4.5594,0.0,-4.5594,-4.5594,-4.5594,-4.5594,-4.5594,-4.5594,-4.5594,-4.5594,-4.4528,-4.3104,-4.3104,-4.195,-4.0496,-4.0496,-4.0496,-4.0489,-4.043,-4.0286,-4.0012,-3.9622,-3.8621,-3.7487,-3.6546,-3.555,-3.4619,-3.3972,-3.3807,-3.3807,-3.3807,-3.3807,-3.3807,-3.3807,-3.3807,-3.3807,-3.3807,-3.3807,-3.3807,-3.3807,-3.3807,-3.3807,-3.3807,-3.3807,-3.3807,-3.3807,-3.3807,-3.3807,-3.3807,-3.3807,-3.3807,-3.3807,-3.3807,-3.3807,-3.3807,-3.3807,-3.3807,-3.3807,-3.3807,-3.3807,-3.3807,-3.3807,-3.3807,-3.3807,-3.3807,-3.3807,-4.6308,-4.6308,-4.6268,-4.6122,-4.6108,-4.6082,-4.6027,0.0,0.0,0.0,-4.6201,-4.6201,-4.6201,0.0,0.0,0.0,0.0,0.0,0.0,0.0,0.0,0.0,0.0,0.0,0.0,0.0,0.0,0.0,0.0,-4.7625,-4.9317,-4.9798,-4.9817,-4.9356,-4.8933,-4.8721,-4.8721,-4.7894,-4.7269,-4.6885,-4.6432,-4.599,-4.5594,-4.5594,-4.5594,-4.5594,-4.5594,0.0,-4.5594,-4.5594,-4.5594,-4.5594,-4.5594,-4.5594,-4.5594,-4.5594,-4.4528,-4.3104,-4.3104,-4.195,-4.0496,-4.0496,-4.0496,-4.0496,-4.0496,-4.0321,-4.0022,-3.969,-3.8783,-3.7655,-3.6583,-3.5646,-3.4802,-3.399,-3.3807,-3.3807,-3.3807,-3.3807,-3.3807,-3.3807,-3.3807,-3.3807,-3.3807,-3.3807,-3.3807,-3.3807,-3.3807,-3.3807,-3.3807,-3.3807,-3.3807,-3.3807,-3.3807,-3.3807,-3.3807,-3.3807,-3.3807,-3.3807,-3.3807,-3.3807,-3.3807,-3.3807,-3.3807,-3.3807,-3.3807,-3.3807,-3.3807,-3.3807,-3.3807,-3.3807,-3.3807,-3.3807,-4.6308,-4.6308,-4.6269,-4.6173,-4.6145,-4.6145,-4.6145,-4.6145,0.0,0.0,-4.6308,-4.6308,-4.6308,0.0,-4.6108,0.0,0.0,0.0,0.0,0.0,0.0,0.0,0.0,0.0,0.0,0.0,0.0,0.0,0.0,0.0,-4.9048,-4.9125,-4.8817,-4.8125,-4.7932,-4.7836,-4.7836,-4.7028,-4.6624,-4.6605,-4.5932,-4.5594,-4.5594,-4.5594,-4.5594,-4.5594,-4.5594,0.0,0.0,-4.5594,-4.5594,-4.5594,-4.5594,-4.5594,-4.5575,-4.5402,-4.4374,-4.3066,-4.2893,-4.1797,-4.0496,-4.0496,-4.0496,-4.0496,-4.0496,-4.0321,-4.0022,-3.969,-3.8902,-3.7878,-3.6619,-3.5789,-3.5023,-3.4045,-3.3807,-3.3807,-3.3807,-3.3807,-3.3807,-3.3807,-3.3807,-3.3807,-3.3807,-3.3807,-3.3807,-3.3807,-3.3807,-3.3807,-3.3807,-3.3807,-3.3807,-3.3807,-3.3807,-3.3807,-3.3807,-3.3807,-3.3807,-3.3807,-3.3807,-3.3807,-3.3807,-3.3807,-3.3807,-3.3807,-3.3807,-3.3807,-3.3807,-3.3807,-3.3807,-3.3807,-3.3807,-3.3807,-4.6308,-4.6308,-4.6308,-4.6289,-4.6289,-4.6289,-4.6289,0.0,0.0,-4.6308,-4.6308,-4.6308,-4.6308,-4.6198,-4.6108,0.0,0.0,-4.5862,0.0,0.0,0.0,0.0,0.0,0.0,0.0,0.0,0.0,0.0,0.0,0.0,-4.8182,-4.8221,-4.8182,-4.8105,-4.7394,-4.7,-4.7,-4.6144,-4.5729,-4.5729,-4.5633,-4.5594,-4.5594,-4.5594,-4.5594,-4.5594,-4.5594,0.0,0.0,-4.5594,-4.5594,-4.5594,-4.5594,-4.5594,-4.5498,-4.4701,-4.3855,-4.2989,-4.22,-4.1296,-4.0496,-4.0496,-4.0496,-4.0496,-4.0496,-4.0321,-4.0022,-3.969,-3.9314,-3.8566,-3.6785,-3.6229,-3.5771,-3.4174,-3.3807,-3.3807,-3.3807,-3.3807,-3.3807,-3.3807,-3.3807,-3.3807,-3.3807,-3.3807,-3.3807,-3.3807,-3.3807,-3.3807,-3.3807,-3.3807,-3.3807,-3.3807,-3.3807,-3.3807,-3.3807,-3.3807,-3.3807,-3.3807,-3.3807,-3.3807,-3.3807,-3.3807,-3.3807,-3.3807,-3.3807,-3.3807,-3.3807,-3.3807,-3.3807,-3.3807,-3.3807,-3.3807,-4.6308,-4.6308,-4.6308,-4.6308,-4.6308,-4.6308,-4.6308,0.0,-4.6308,-4.6308,-4.6308,-4.6308,-4.6308,-4.6267,-4.6223,-4.6223,-4.6113,0.0,0.0,0.0,0.0,0.0,0.0,0.0,0.0,0.0,0.0,0.0,0.0,0.0,-4.6586,-4.7086,-4.7144,-4.6605,-4.6278,-4.6124,-4.6124,-4.5768,-4.5594,-4.5594,-4.5594,-4.5594,-4.5594,-4.5594,-4.5594,-4.5594,-4.5594,0.0,0.0,-4.5594,-4.5594,-4.5594,-4.5594,-4.5287,-4.4778,-4.4432,-4.3451,-4.2277,-4.1923,-4.1239,-4.0496,-4.0496,-4.0496,-4.0496,-4.0496,-4.0433,-4.025,-3.9735,-3.9498,-3.8921,-3.6842,-3.555,-3.4633,-3.3954,-3.3807,-3.3807,-3.3807,-3.3807,-3.3807,-3.3807,-3.3807,-3.3807,-3.3807,-3.3807,-3.3807,-3.3807,-3.3807,-3.3807,-3.3807,-3.3807,-3.3807,-3.3807,-3.3807,-3.3807,-3.3807,-3.3807,-3.3807,-3.3807,-3.3807,-3.3807,-3.3807,-3.3807,-3.3807,-3.3807,-3.3807,-3.3807,-3.3807,-3.3807,-3.3807,-3.3807,-3.3807,-3.3807,-4.6308,-4.6308,-4.6308,-4.6308,-4.6308,-4.6308,0.0,0.0,-4.6308,-4.6308,-4.6308,-4.6308,-4.6308,-4.6308,-4.6308,-4.6308,-4.6223,-4.6145,0.0,0.0,0.0,0.0,0.0,0.0,0.0,0.0,0.0,0.0,0.0,0.0,0.0,-4.6182,-4.622,-4.5614,-4.5594,-4.5594,-4.5594,-4.5594,-4.5594,-4.5594,-4.5594,-4.5594,-4.5594,-4.5594,-4.5594,-4.5594,-4.5594,0.0,0.0,-4.5594,-4.5594,-4.5575,-4.5325,-4.4836,-4.4239,-4.3739,-4.2816,-4.175,-4.1508,-4.1008,-4.0496,-4.0496,-4.0496,-4.0496,-4.0496,-4.0496,-4.0378,-3.9893,-3.9252,-3.8371,-3.6726,-3.5055,-3.3807,-3.3807,-3.3807,-3.3807,-3.3807,-3.3807,-3.3807,-3.3807,-3.3807,-3.3807,-3.3807,-3.3807,-3.3807,-3.3807,-3.3807,-3.3807,-3.3807,-3.3807,-3.3807,-3.3807,-3.3807,-3.3807,-3.3807,-3.3807,-3.3807,-3.3807,-3.3807,-3.3807,-3.3807,-3.3807,-3.3807,-3.3807,-3.3807,-3.3807,-3.3807,-3.3807,-3.3807,-3.3807,-3.3807,-3.3807,-4.6308,-4.6308,-4.6308,-4.6308,-4.6308,-4.6308,0.0,0.0,-4.6308,-4.6308,-4.6308,-4.6308,-4.6308,-4.6308,-4.6308,-4.6308,-4.6308,0.0,0.0,0.0,0.0,0.0,0.0,0.0,0.0,0.0,0.0,0.0,0.0,0.0,0.0,-4.5614,-4.5614,-4.5594,-4.5594,-4.5594,-4.5594,-4.5594,-4.5594,-4.5594,-4.5594,-4.5594,-4.5594,-4.5594,-4.5594,0.0,0.0,0.0,0.0,-4.5594,-4.5594,-4.5518,-4.4643,-4.4316,-4.4105,-4.245,-4.1808,-4.1681,-4.0804,-4.0516,-4.0496,-4.0496,-4.0496,-4.0496,-4.0496,-4.0496,-4.043,-4.0167,-3.8463,-3.6663,-3.638,-3.5055,-3.3807,-3.3807,-3.3807,-3.3807,-3.3807,-3.3807,-3.3807,-3.3807,-3.3807,-3.3807,-3.3807,-3.3807,-3.3807,-3.3807,-3.3807,-3.3807,-3.3807,-3.3807,-3.3807,-3.3807,-3.3807,-3.3807,-3.3807,-3.3807,-3.3807,-3.3807,-3.3807,-3.3807,-3.3807,-3.3807,-3.3807,-3.3807,-3.3807,-3.3807,-3.3807,-3.3807,-3.3807,-3.3807,-3.3807,-3.3807,-4.6308,-4.6308,-4.6308,-4.6308,-4.6308,-4.6308,-4.6308,0.0,-4.6308,-4.6308,-4.6308,-4.6308,-4.6308,-4.6308,-4.6308,-4.6308,-4.6308,0.0,0.0,0.0,0.0,0.0,0.0,0.0,0.0,0.0,0.0,0.0,0.0,0.0,0.0,-4.5594,-4.5594,-4.5594,-4.5594,-4.5594,-4.5594,-4.5594,-4.5594,-4.5594,-4.5594,-4.5594,-4.5594,-4.5594,-4.5594,0.0,0.0,0.0,0.0,-4.496,-4.4701,-4.4624,-4.3797,-4.3124,-4.2527,-4.2,-4.1431,-4.0873,-4.0593,-4.0496,-4.0496,-4.0496,-4.0496,-4.0465,-4.0276,-4.0223,-4.011,-3.9557,-3.7975,-3.6404,-3.6313,-3.5055,-3.3807,-3.3807,-3.3807,-3.3807,-3.3807,-3.3807,-3.3807,-3.3807,-3.3807,-3.3807,-3.3807,-3.3807,-3.3807,-3.3807,-3.3807,-3.3807,-3.3807,-3.3807,-3.3807,-3.3807,-3.3807,-3.3807,-3.3807,-3.3807,-3.3807,-3.3807,-3.3807,-3.3807,-3.3807,-3.3807,-3.3807,-3.3807,-3.3807,-3.3807,-3.3807,-3.3807,-3.3807,-3.3807,-3.3807,-3.3807,0.0,-4.6308,-4.6308,-4.6308,-4.6308,0.0,0.0,0.0,-4.6308,-4.6308,-4.6308,-4.6308,-4.6308,-4.6308,-4.6308,-4.6308,-4.6308,0.0,0.0,0.0,0.0,0.0,0.0,0.0,0.0,0.0,0.0,0.0,0.0,0.0,0.0,-4.5594,-4.5594,-4.5594,-4.5594,-4.5594,-4.5594,-4.5594,-4.5594,-4.5594,-4.5594,-4.5594,-4.5594,-4.5594,-4.5421,0.0,0.0,0.0,0.0,-4.4066,-4.3855,-4.3758,-4.2931,-4.2277,-4.175,-4.1431,-4.0969,-4.0496,-4.0496,-4.0496,-4.0496,-4.0496,-4.0496,-4.0422,-4.0023,-3.9912,-3.9721,-3.8895,-3.7593,-3.6339,-3.5923,-3.4816,-3.3807,-3.3807,-3.3807,-3.3807,-3.3807,-3.3807,-3.3807,-3.3807,-3.3807,-3.3807,-3.3807,-3.3807,-3.3807,-3.3807,-3.3807,-3.3807,-3.3807,-3.3807,-3.3807,-3.3807,-3.3807,-3.3807,-3.3807,-3.3807,-3.3807,-3.3807,-3.3807,-3.3807,-3.3807,-3.3807,-3.3807,-3.3807,-3.3807,-3.3807,-3.3807,-3.3807,-3.3807,-3.3807,-3.3807,-3.3642,0.0,-4.625,0.0,0.0,0.0,0.0,0.0,0.0,0.0,-4.6308,-4.6308,-4.6308,-4.6308,-4.6308,-4.6308,-4.6308,0.0,0.0,0.0,0.0,0.0,0.0,0.0,0.0,0.0,0.0,0.0,0.0,0.0,0.0,0.0,-4.5594,-4.5594,-4.5594,-4.5594,-4.5594,-4.5594,-4.5594,-4.5594,-4.5594,-4.5537,-4.5518,-4.5518,-4.546,-4.4979,0.0,0.0,0.0,0.0,-4.3028,-4.3008,-4.2912,-4.2047,-4.1712,-4.1604,-4.0804,-4.0496,-4.0496,-4.0496,-4.0496,-4.0496,-4.0496,-4.0489,-4.0381,-3.98,-3.9622,-3.9359,-3.8189,-3.7285,-3.642,-3.5285,-3.4399,-3.3807,-3.3807,-3.3807,-3.3807,-3.3807,-3.3807,-3.3807,-3.3807,-3.3807,-3.3807,-3.3807,-3.3807,-3.3807,-3.3807,-3.3807,-3.3807,-3.3807,-3.3752,-3.3715,-3.3715,-3.366,-3.3642,-3.3715,-3.377,-3.3807,-3.3807,-3.3807,-3.3807,-3.3807,-3.3807,-3.3807,-3.3807,-3.3807,-3.3807,-3.3807,-3.3807,-3.3807,-3.3807,-3.3807,-3.3366,-4.5078,0.0,-4.6308,-4.6308,-4.6308,-4.6308,0.0,0.0,0.0,0.0,0.0,0.0,0.0,0.0,0.0,0.0,0.0,0.0,0.0,0.0,0.0,0.0,0.0,0.0,0.0,0.0,0.0,0.0,0.0,0.0,0.0,-4.5594,-4.5594,-4.5594,-4.5594,-4.5594,-4.5594,-4.5594,-4.5594,-4.5594,-4.4913,-4.4605,-4.4586,-4.397,-4.3585,0.0,0.0,0.0,-4.3047,-4.2374,-4.2104,-4.2027,-4.1143,-4.0804,-4.0785,-4.0573,-4.0496,-4.0496,-4.0496,-4.0496,-4.0496,-4.0496,-4.0364,-4.0167,-4.0022,-3.9797,-3.9324,-3.797,-3.7016,-3.6177,-3.5252,-3.4399,-3.3807,-3.3807,-3.3807,-3.3807,-3.3807,-3.3807,-3.3807,-3.3807,-3.3807,-3.3807,-3.3807,-3.3807,-3.3807,-3.3807,-3.3807,-3.3807,-3.3807,-3.3256,-3.2876,-3.2876,-3.232,-3.221,-3.2821,-3.3458,-3.3807,-3.3807,-3.3807,-3.3807,-3.3807,-3.3807,-3.3807,-3.3807,-3.3807,-3.3807,-3.3807,-3.3807,-3.3807,-3.3807,-3.3807,-3.3366,-4.4648,-4.5644,-4.6308,-4.6308,-4.6308,-4.6308,-4.6308,0.0,0.0,0.0,0.0,0.0,0.0,0.0,0.0,0.0,0.0,0.0,0.0,0.0,0.0,0.0,0.0,0.0,0.0,0.0,0.0,0.0,0.0,0.0,0.0,-4.4998,-4.4816,-4.4451,-4.4451,-4.4624,-4.4998,-4.4998,-4.4825,-4.4451,-4.397,-4.3739,-4.372,-4.3297,-4.2874,0.0,0.0,0.0,-4.1873,-4.1393,-4.12,-4.1162,-4.0689,-4.0496,-4.0496,-4.0496,-4.0496,-4.0496,-4.0496,-4.0496,-4.0496,-4.0496,-4.0397,-4.025,-4.0139,-3.9687,-3.8942,-3.753,-3.655,-3.5702,-3.4711,-3.4137,-3.3807,-3.3807,-3.3889,-3.3948,-3.3829,-3.3902,-3.3948,-3.3815,-3.3807,-3.3807,-3.3807,-3.3807,-3.3807,-3.3807,-3.3495,-3.3256,-3.3256,-3.2559,-3.2045,-3.2045,-3.1777,-3.1757,-3.22,-3.2727,-3.3235,-3.3765,-3.3807,-3.3807,-3.3807,-3.3807,-3.3868,-3.3986,-3.385,-3.385,-3.3986,-3.385,-3.3807,-3.3788,-3.3421,-3.2816,-4.4199,-4.5234,-4.5976,-4.623,-4.6308,-4.6308,-4.6308,0.0,0.0,0.0,0.0,0.0,0.0,0.0,0.0,0.0,0.0,0.0,0.0,0.0,0.0,0.0,0.0,0.0,0.0,0.0,0.0,0.0,0.0,0.0,0.0,-4.4124,-4.3797,-4.3124,-4.3104,-4.3355,-4.3912,-4.4047,-4.3778,-4.3104,-4.297,-4.2893,-4.2893,-4.2758,-4.2297,-4.1604,0.0,0.0,-4.0496,-4.0496,-4.0496,-4.0496,-4.0496,-4.0496,-4.0496,-4.0496,-4.0496,-4.0496,-4.0496,-4.0496,-4.0496,-4.0496,-4.0496,-4.0427,-4.0089,-3.9366,-3.8385,-3.702,-3.6128,-3.5311,-3.4208,-3.3928,-3.3928,-3.3928,-3.4068,-3.4147,-3.3915,-3.4006,-3.408,-3.3842,-3.3807,-3.3807,-3.3807,-3.3807,-3.3752,-3.3642,-3.3075,-3.2623,-3.2494,-3.1808,-3.1328,-3.1328,-3.1418,-3.1523,-3.1654,-3.1813,-3.2379,-3.3461,-3.3676,-3.3799,-3.3928,-3.3895,-3.3999,-3.4258,-3.4012,-3.3999,-3.4288,-3.4049,-3.3847,-3.3666,-3.2985,-3.2151,-4.2734,-4.3437,-4.4453,-4.5937,-4.6308,-4.6308,-4.6308,-4.6308,0.0,0.0,0.0,0.0,0.0,0.0,0.0,0.0,0.0,0.0,0.0,0.0,0.0,0.0,0.0,0.0,0.0,0.0,0.0,0.0,0.0,0.0,0.0,-4.3278,-4.3239,-4.3104,-4.3104,-4.2816,-4.22,-4.2912,-4.322,-4.3085,-4.2354,-4.2,-4.1962,-4.1239,-4.0823,-4.0708,0.0,-4.0631,-4.0496,-4.0496,-4.0496,-4.0496,-4.0496,-4.0496,-4.0496,-4.0496,-4.0496,-4.0496,-4.0496,-4.0496,-4.0496,-4.0496,-4.0496,-4.0373,-3.965,-3.8808,-3.787,-3.668,-3.6109,-3.5647,-3.4776,-3.4569,-3.4569,-3.4569,-3.4368,-3.4188,-3.4147,-3.3999,-3.3855,-3.382,-3.3807,-3.3807,-3.3807,-3.3807,-3.3568,-3.2894,-3.2871,-3.2688,-3.2005,-3.1373,-3.0988,-3.0988,-3.0406,-3.0302,-3.0989,-3.1073,-3.145,-3.2301,-3.3052,-3.3786,-3.4532,-3.4288,-3.4288,-3.4622,-3.43,-3.43,-3.4614,-3.4591,-3.4064,-3.3125,-3.2994,-3.2019,-4.2285,-4.2695,-4.3301,-4.457,-4.4902,-4.5019,-4.5488,-4.5605,0.0,0.0,0.0,0.0,0.0,0.0,0.0,0.0,0.0,0.0,0.0,0.0,0.0,0.0,0.0,0.0,0.0,0.0,0.0,0.0,0.0,0.0,0.0,0.0,-4.2181,-4.17,-4.17,-4.1489,-4.1104,-4.1489,-4.17,-4.1681,-4.1296,-4.1104,-4.1085,-4.0689,-4.0496,-4.0496,0.0,-4.0496,-4.0496,-4.0496,-4.0496,-4.0496,-4.0496,-4.0496,-4.0496,-4.0496,-4.0496,-4.0496,-4.0496,-4.0496,-4.0439,-3.9996,-3.9842,-3.9688,-3.8854,-3.7988,-3.7197,-3.6665,-3.6018,-3.5353,-3.4819,-3.4694,-3.4653,-3.4467,-3.4445,-3.4368,-3.4043,-3.4012,-3.3974,-3.3829,-3.3807,-3.3807,-3.3807,-3.344,-3.3088,-3.2847,-3.2175,-3.1613,-3.1359,-3.0697,-3.0243,-3.0243,-3.0015,-3.0013,-3.0384,-3.0544,-3.1056,-3.2043,-3.292,-3.3589,-3.3976,-3.4296,-3.454,-3.4694,-3.4551,-3.4464,-3.4423,-3.4003,-3.3437,-3.2767,-3.1892,-3.1015,-4.1953,-4.2129,-4.2285,-4.2949,-4.3418,-4.3867,-4.4531,-4.4707,-4.4883,0.0,0.0,0.0,0.0,0.0,0.0,0.0,0.0,0.0,0.0,0.0,0.0,0.0,0.0,0.0,0.0,0.0,0.0,0.0,0.0,0.0,0.0,0.0,-4.1181,-4.0516,-4.0496,-4.0496,-4.0496,-4.0496,-4.0496,-4.0496,-4.0496,-4.0496,-4.0496,-4.0496,-4.0496,-4.0496,-4.0496,-4.0496,-4.0496,-4.0496,-4.0496,-4.0496,-4.0496,-4.0496,-4.0496,-4.0496,-4.0496,-4.0496,-4.0496,-4.0381,-4.0112,-3.9496,-3.9169,-3.8834,-3.7969,-3.7238,-3.6654,-3.6462,-3.5841,-3.5157,-3.4944,-3.4832,-3.4734,-3.4459,-3.45,-3.4453,-3.3986,-3.4012,-3.4068,-3.391,-3.3889,-3.3841,-3.3721,-3.3198,-3.2716,-3.2545,-3.1503,-3.0753,-3.0711,-3.0202,-2.9864,-2.9864,-3.0003,-3.0089,-3.0089,-3.0273,-3.0777,-3.1648,-3.2701,-3.3364,-3.3581,-3.4102,-3.4525,-3.4784,-3.4645,-3.4395,-3.4016,-3.3399,-3.2757,-3.2103,-3.0862,-3.0152,-4.1269,-4.1289,-4.1308,-4.1367,-4.2558,-4.3711,-4.3789,-4.3789,0.0,-4.3867,0.0,0.0,0.0,0.0,0.0,0.0,0.0,0.0,0.0,0.0,0.0,0.0,0.0,0.0,0.0,0.0,0.0,0.0,0.0,0.0,0.0,0.0,0.0,-4.0496,-4.0496,-4.0496,-4.0496,-4.0496,-4.0496,-4.0496,-4.0496,-4.0496,-4.0496,-4.0496,-4.0496,-4.0496,-4.0496,-4.0496,-4.0496,-4.0496,-4.0496,-4.0496,-4.0496,-4.0496,-4.0496,-4.0496,-4.0496,-4.0496,-4.0496,-4.0015,-3.9381,-3.9323,-3.8738,-3.793,-3.7065,-3.675,-3.6538,-3.5808,-3.5532,-3.5479,-3.5446,-3.5266,-3.507,-3.5034,-3.4626,-3.4211,-3.4183,-3.3999,-3.3902,-3.4123,-3.4183,-3.4004,-3.3515,-3.3378,-3.2814,-3.1271,-3.1157,-3.0955,-3.0167,-3.0227,-3.0349,-3.0349,-3.0361,-3.0367,-3.0367,-3.0398,-3.043,-3.0522,-3.2039,-3.3294,-3.4108,-3.371,-3.3989,-3.5051,-3.4513,-3.3978,-3.3459,-3.3402,-3.2483,-3.0745,-3.0634,-3.0046,-4.1191,-4.1191,-4.1191,-4.1191,-4.168,0.0,0.0,-4.2891,-4.3047,-4.3594,-4.3691,0.0,0.0,0.0,0.0,0.0,0.0,0.0,0.0,0.0,0.0,0.0,0.0,0.0,0.0,0.0,0.0,0.0,0.0,0.0,0.0,0.0,0.0,-4.0496,-4.0496,-4.0496,-4.0496,-4.0496,-4.0496,-4.0496,-4.0496,-4.0496,-4.0496,-4.0496,-4.0496,-4.0496,-4.0496,-4.0496,-4.0496,-4.0496,-4.0496,-4.0496,-4.0496,-4.0496,-4.0496,-4.0496,-4.0189,-3.9746,-3.9746,-3.9207,-3.8392,-3.7853,-3.7469,-3.7046,-3.6212,-3.5942,-3.5885,-3.5596,-3.55,-3.5453,-3.5297,-3.5297,-3.5254,-3.4935,-3.4684,-3.4445,-3.4253,-3.4123,-3.4093,-3.4176,-3.3926,-3.3636,-3.3427,-3.2543,-3.1694,-3.121,-3.0776,-3.0424,-3.0273,-3.0349,-3.0404,-3.0404,-3.0404,-3.0404,-3.0404,-3.0404,-3.0404,-3.0404,-3.15,-3.2231,-3.2391,-3.2844,-3.3163,-3.3278,-3.3356,-3.3133,-3.2581,-3.2263,-3.158,-3.0596,-3.0226,-2.9675,-4.1191,-4.1191,-4.1191,-4.1191,0.0,0.0,-4.1894,-4.2012,-4.2187,-4.2793,-4.291,0.0,0.0,0.0,0.0,0.0,0.0,0.0,0.0,0.0,0.0,0.0,0.0,0.0,0.0,0.0,0.0,0.0,0.0,0.0,0.0,0.0,0.0,0.0,-4.0496,-4.0496,-4.0496,-4.0496,-4.0496,-4.0496,-4.0496,-4.0496,-4.0496,-4.0496,-4.0496,-4.0496,-4.0496,-4.0496,-4.0496,-4.0496,-4.0342,-4.0131,-4.0131,-3.9958,-3.9708,-3.9708,-3.9361,-3.8892,-3.8892,-3.8315,-3.7488,-3.6885,-3.6519,-3.6212,-3.5673,-3.55,-3.55,-3.55,-3.55,-3.5439,-3.5174,-3.5231,-3.5281,-3.4917,-3.4754,-3.4643,-3.4401,-3.4357,-3.439,-3.4459,-3.3976,-3.3469,-3.3266,-3.2087,-3.1129,-3.103,-3.0505,-3.0196,-3.0386,-3.0404,-3.0404,-3.0404,-3.0404,-3.0404,-3.0404,-3.0404,-3.0404,-3.0404,-3.0962,-3.1341,-3.1412,-3.2043,-3.2351,-3.2304,-3.2523,-3.233,-3.1723,-3.1345,-3.0879,-3.0307,-2.9888,-2.9523,-4.1191,-4.1191,-4.1191,0.0,0.0,0.0,-4.1191,-4.1191,-4.1191,-4.1191,0.0,-4.1191,-4.1191,0.0,0.0,0.0,0.0,0.0,0.0,0.0,0.0,0.0,0.0,0.0,0.0,0.0,0.0,0.0,0.0,0.0,0.0,0.0,0.0,0.0,-4.0496,-4.0496,-4.0496,-4.0496,-4.0496,-4.0496,-4.0496,-4.0496,-4.0496,-4.0496,-4.0477,-4.0477,-4.0477,-4.0477,-4.0477,-4.0477,-4.0015,-3.9284,-3.9284,-3.8757,-3.8007,-3.8007,-3.7988,-3.7988,-3.7988,-3.743,-3.6692,-3.6692,-3.6154,-3.55,-3.55,-3.55,-3.55,-3.55,-3.55,-3.5439,-3.5163,-3.5105,-3.5105,-3.5105,-3.4898,-3.4694,-3.4694,-3.4694,-3.4774,-3.5034,-3.4399,-3.3605,-3.2993,-3.2218,-3.1385,-3.0538,-3.0404,-3.0404,-3.0404,-3.0404,-3.0404,-3.0404,-3.0404,-3.0404,-3.0404,-3.0404,-3.0404,-3.0404,-3.0404,-3.0788,-3.1654,-3.1429,-3.166,-3.2449,-3.222,-3.1695,-3.0894,-3.0894,-3.0488,-2.9705,-2.9705,-2.9705,-4.1191,-4.1191,0.0,-4.1191,0.0,0.0,0.0,-4.1191,0.0,0.0,0.0,0.0,0.0,0.0,0.0,0.0,0.0,0.0,0.0,0.0,0.0,0.0,0.0,0.0,0.0,0.0,0.0,0.0,0.0,0.0,0.0,0.0,0.0,0.0,-4.0496,-4.0496,-4.0496,-4.0496,-4.0496,-4.0496,-4.0496,-4.0208,-3.9669,-3.9669,-3.9323,-3.8738,-3.8738,-3.8738,-3.8738,-3.8738,-3.8604,-3.8392,-3.8392,-3.8238,-3.8007,-3.8007,-3.7603,-3.7084,-3.7084,-3.6538,-3.5865,-3.5865,-3.5692,-3.55,-3.55,-3.55,-3.55,-3.55,-3.55,-3.5486,-3.5391,-3.5376,-3.5327,-3.5138,-3.5053,-3.4981,-3.4981,-3.4981,-3.4827,-3.4287,-3.3639,-3.2922,-3.2186,-3.1346,-3.0692,-3.0442,-3.0404,-3.0404,-3.0404,-3.0404,-3.0404,-3.0404,-3.0404,-3.0404,-3.0404,-3.0404,-3.0404,-3.0404,-3.0404,-3.0426,-3.0499,-3.0618,-3.0687,-3.075,-3.0854,-3.0793,-3.0552,-3.0552,-3.0336,-2.9916,-3.0095,-3.0015,-4.1191,0.0,0.0,-4.1191,-4.1191,-4.1191,-4.1191,0.0,0.0,0.0,0.0,0.0,0.0,0.0,0.0,0.0,0.0,0.0,0.0,0.0,0.0,0.0,0.0,0.0,0.0,0.0,0.0,0.0,0.0,0.0,0.0,0.0,0.0,0.0,-4.0496,-4.0496,-4.0496,-4.0496,-4.0496,-4.0496,-4.0189,-3.9592,-3.8796,-3.915,-3.8815,-3.8007,-3.8007,-3.8007,-3.8007,-3.8007,-3.7796,-3.7488,-3.7488,-3.7296,-3.7007,-3.7007,-3.6673,-3.6212,-3.6212,-3.5904,-3.55,-3.55,-3.55,-3.55,-3.55,-3.55,-3.55,-3.55,-3.55,-3.55,-3.55,-3.55,-3.5453,-3.5297,-3.5266,-3.5266,-3.5266,-3.5266,-3.4998,-3.4125,-3.3395,-3.2641,-3.1833,-3.0981,-3.0404,-3.0404,-3.0404,-3.0404,-3.0404,-3.0404,-3.0404,-3.0404,-3.0404,-3.0404,-3.0404,-3.0404,-3.0404,-3.0404,-3.0404,-3.0323,-3.0176,-3.0311,-3.0317,-3.0157,-3.0317,-3.0404,-3.0404,-3.0404,-3.0317,-3.0157,-3.0317,-3.026,-4.1191,0.0,0.0,0.0,0.0,0.0,0.0,0.0,0.0,0.0,0.0,0.0,0.0,0.0,0.0,0.0,0.0,0.0,0.0,0.0,0.0,0.0,0.0,0.0,0.0,0.0,0.0,0.0,0.0,0.0,0.0,0.0,0.0,-4.0496,-4.0496,-4.0496,-4.0496,-4.0496,-4.0458,-4.0381,-3.965,-3.8796,-3.7911,-3.87,-3.8584,-3.7777,-3.7777,-3.7777,-3.7777,-3.7777,-3.7315,-3.6596,-3.6596,-3.6135,-3.55,-3.55,-3.55,-3.55,-3.55,-3.55,-3.55,-3.55,-3.55,-3.55,-3.55,-3.55,-3.55,-3.55,-3.55,-3.55,-3.55,-3.55,-3.55,-3.55,-3.55,-3.55,-3.55,-3.55,-3.5212,-3.4282,-3.343,-3.2622,-3.1737,-3.0923,-3.0404,-3.0404,-3.0404,-3.0404,-3.0404,-3.0404,-3.0404,-3.0404,-3.0404,-3.0404,-3.0404,-3.0404,-3.0404,-3.0404,-3.0404,-3.0404,-3.0404,-3.0404,-3.0404,-3.0404,-3.0404,-3.0404,-3.0404,-3.0404,-3.0404,-3.0404,-3.0404,-3.0404,0.0,-4.1191,0.0,0.0,0.0,0.0,0.0,0.0,0.0,0.0,0.0,0.0,0.0,0.0,0.0,0.0,0.0,0.0,0.0,0.0,0.0,0.0,0.0,0.0,0.0,0.0,0.0,0.0,0.0,0.0,0.0,0.0,0.0,-4.0504,-4.0496,-4.0496,-4.0496,-4.0496,-4.0189,0.0,-3.9381,-3.8488,-3.6981,-3.718,-3.6808,-3.6038,-3.6038,-3.6038,-3.6038,-3.6038,-3.5923,-3.575,-3.575,-3.5654,-3.55,-3.55,-3.55,-3.55,-3.55,-3.55,-3.55,-3.55,-3.55,-3.55,-3.55,-3.55,-3.55,-3.55,-3.55,-3.55,-3.55,-3.55,-3.55,-3.55,-3.55,-3.55,-3.55,-3.55,-3.5038,-3.3487,-3.3026,-3.2429,-3.0942,-3.0519,-3.0404,-3.0404,-3.0404,-3.0404,-3.0404,-3.0404,-3.0404,-3.0404,-3.0404,-3.0404,-3.0404,-3.0404,-3.0404,-3.0404,-3.0404,-3.0404,-3.0404,-3.0404,-3.0404,-3.0404,-3.0404,-3.0404,-3.0404,-3.0404,-3.0404,-3.0404,-3.0404,-3.0404,0.0,0.0,0.0,0.0,0.0,0.0,0.0,0.0,0.0,0.0,0.0,0.0,0.0,0.0,0.0,0.0,0.0,0.0,0.0,0.0,0.0,0.0,0.0,0.0,0.0,0.0,0.0,0.0,0.0,0.0,0.0,-4.0742,-4.0699,-4.0596,-4.0589,-4.0566,-4.0496,-4.0112,-3.9708,-3.9284,-3.845,-3.7373,-3.6135,-3.6135,-3.5904,-3.55,-3.55,-3.55,-3.55,-3.55,-3.55,-3.55,-3.55,-3.55,-3.55,-3.55,-3.55,-3.55,-3.55,-3.55,-3.55,-3.55,-3.55,-3.55,-3.55,-3.55,-3.55,-3.55,-3.55,-3.55,-3.55,-3.55,-3.55,-3.55,-3.55,-3.55,-3.55,-3.55,-3.4981,-3.3237,-3.2891,-3.2372,-3.0692,-3.0404,-3.0404,-3.0404,-3.0404,-3.0404,-3.0404,-3.0404,-3.0404,-3.0404,-3.0404,-3.0404,-3.0404,-3.0404,-3.0404,-3.0404,-3.0404,-3.0404,-3.0404,-3.0404,-3.0404,-3.0404,-3.0404,-3.0404,-3.0404,-3.0404,-3.0404,-3.0404,-3.0404,-3.0404,0.0,0.0,0.0,0.0,0.0,0.0,0.0,0.0,0.0,0.0,0.0,0.0,0.0,0.0,0.0,0.0,0.0,0.0,0.0,0.0,0.0,0.0,0.0,0.0,0.0,0.0,0.0,0.0,0.0,0.0,-4.0847,-4.0824,-4.0796,-4.0724,-4.0718,-4.0602,-4.0342,-3.9687,-3.9204,-3.887,-3.7289,-3.619,-3.5534,-3.5522,-3.5508,-3.55,-3.55,-3.55,-3.55,-3.55,-3.55,-3.55,-3.55,-3.55,-3.55,-3.55,-3.55,-3.55,-3.55,-3.55,-3.55,-3.55,-3.55,-3.55,-3.55,-3.55,-3.55,-3.55,-3.55,-3.55,-3.55,-3.55,-3.55,-3.55,-3.55,-3.55,-3.55,-3.55,-3.4981,-3.3237,-3.2679,-3.2025,-3.0635,-3.0404,-3.0404,-3.0404,-3.0404,-3.0404,-3.0404,-3.0404,-3.0404,-3.0404,-3.0404,-3.0404,-3.0404,-3.0404,-3.0404,-3.0404,-3.0404,-3.0404,-3.0404,-3.0404,-3.0404,-3.0404,-3.0404,-3.0404,-3.0404,-3.0404,-3.0404,-3.0404,-3.0404,-3.0404,0.0,0.0,0.0,0.0,0.0,0.0,0.0,0.0,0.0,0.0,0.0,0.0,0.0,0.0,0.0,0.0,0.0,0.0,0.0,0.0,0.0,0.0,0.0,0.0,0.0,0.0,0.0,0.0,0.0,0.0,-4.0988,-4.0964,-4.0914,-4.08,-4.0796,-4.0438,-3.9736,-3.9619,-3.8803,-3.7307,-3.6305,-3.578,-3.5663,-3.5616,-3.5544,-3.55,-3.55,-3.55,-3.55,-3.55,-3.55,-3.55,-3.55,-3.55,-3.55,-3.55,-3.55,-3.55,-3.55,-3.55,-3.55,-3.55,-3.55,-3.55,-3.55,-3.55,-3.55,-3.55,-3.55,-3.55,-3.55,-3.55,-3.55,-3.55,-3.55,-3.55,-3.55,-3.55,-3.4981,-3.3237,-3.1737,-3.0654,-3.0442,-3.0404,-3.0404,-3.0404,-3.0404,-3.0404,-3.0404,-3.0404,-3.0404,-3.0404,-3.0404,-3.0404,-3.0404,-3.0404,-3.0404,-3.0404,-3.0404,-3.0404,-3.0404,-3.0404,-3.0404,-3.0404,-3.0404,-3.0404,-3.0404,-3.0404,-3.0404,-3.0404,-3.0404,-3.0404,-4.1171,0.0,0.0,0.0,0.0,0.0,0.0,0.0,0.0,0.0,0.0,0.0,0.0,0.0,0.0,0.0,0.0,0.0,0.0,0.0,0.0,0.0,0.0,0.0,0.0,0.0,0.0,0.0,0.0,-4.1171,-4.1126,-4.1105,-4.1052,-4.0917,-4.0443,-3.9991,-3.9603,-3.863,-3.7502,-3.6268,-3.5878,-3.5707,-3.5703,-3.5679,-3.5648,-3.5606,-3.5528,-3.5522,-3.5544,-3.5521,-3.55,-3.55,-3.55,-3.55,-3.55,-3.55,-3.55,-3.55,-3.55,-3.55,-3.55,-3.55,-3.55,-3.55,-3.55,-3.55,-3.55,-3.55,-3.55,-3.55,-3.55,-3.55,-3.55,-3.55,-3.55,-3.55,-3.55,-3.55,-3.4981,-3.3237,-3.1948,-3.0962,-3.0481,-3.0404,-3.0404,-3.0404,-3.0404,-3.0404,-3.0404,-3.0404,-3.0404,-3.0404,-3.0404,-3.0404,-3.0404,-3.0404,-3.0404,-3.0404,-3.0404,-3.0404,-3.0404,-3.0404,-3.0404,-3.0404,-3.0404,-3.0404,-3.0404,-3.0404,-3.0404,-3.0404,-3.0404,-3.0404,0.0,0.0,0.0,0.0,0.0,0.0,0.0,0.0,0.0,0.0,0.0,0.0,0.0,0.0,0.0,0.0,0.0,0.0,0.0,0.0,0.0,0.0,0.0,0.0,0.0,0.0,0.0,0.0,0.0,-4.1191,-4.1191,-4.1191,-4.1053,-4.072,-4.0094,-3.9511,-3.9029,-3.7509,-3.642,-3.5785,-3.5785,-3.5785,-3.5785,-3.5766,-3.5766,-3.5777,-3.5626,-3.5582,-3.5611,-3.5566,-3.5558,-3.5558,-3.5558,-3.5558,-3.5558,-3.5558,-3.5558,-3.5558,-3.5558,-3.5558,-3.5546,-3.5528,-3.5528,-3.5522,-3.5514,-3.55,-3.55,-3.55,-3.55,-3.55,-3.55,-3.55,-3.55,-3.55,-3.55,-3.55,-3.55,-3.5327,-3.4718,-3.3199,-3.2256,-3.1429,-3.0558,-3.0404,-3.0404,-3.0404,-3.0404,-3.0404,-3.0404,-3.0404,-3.0404,-3.0404,-3.0404,-3.0404,-3.0404,-3.0404,-3.0404,-3.0404,-3.0404,-3.0404,-3.0404,-3.0404,-3.0404,-3.0404,-3.0404,-3.0404,-3.0404,-3.0404,-3.0404,-3.0404,-3.0404,-3.0404,0.0,0.0,0.0,0.0,0.0,0.0,0.0,0.0,0.0,0.0,0.0,0.0,0.0,0.0,0.0,0.0,0.0,0.0,0.0,0.0,0.0,0.0,0.0,0.0,0.0,0.0,0.0,0.0,0.0,-4.1191,-4.1191,-4.1191,-4.082,-3.998,-3.9902,-3.9082,-3.7441,-3.6503,-3.6035,-3.5976,-3.5976,-3.5976,-3.5976,-3.5917,-3.5919,-3.5975,-3.5783,-3.5693,-3.5696,-3.5693,-3.5689,-3.5689,-3.5689,-3.5689,-3.5689,-3.5689,-3.5689,-3.5689,-3.5689,-3.5689,-3.5675,-3.5621,-3.56,-3.5574,-3.5515,-3.55,-3.55,-3.55,-3.55,-3.55,-3.55,-3.55,-3.55,-3.55,-3.55,-3.55,-3.55,-3.4853,-3.3994,-3.3083,-3.2256,-3.1429,-3.0558,-3.0404,-3.0404,-3.0404,-3.0404,-3.0404,-3.0404,-3.0404,-3.0404,-3.0404,-3.0404,-3.0404,-3.0404,-3.0404,-3.0404,-3.0404,-3.0404,-3.0404,-3.0404,-3.0404,-3.0404,-3.0404,-3.0404,-3.0404,-3.0404,-3.0404,-3.0404,-3.0404,-3.0404,-3.0404,0.0,0.0,0.0,0.0,0.0,0.0,0.0,0.0,0.0,0.0,0.0,0.0,0.0,0.0,0.0,0.0,0.0,0.0,0.0,0.0,0.0,0.0,0.0,0.0,0.0,0.0,0.0,0.0,0.0,0.0,-4.1191,-4.0664,-4.0215,-3.9902,-3.8809,-3.7656,-3.6484,-3.6152,-3.5996,-3.5996,-3.5996,-3.5996,-3.5996,-3.5974,-3.5975,-3.5996,-3.5929,-3.5868,-3.5812,-3.5746,-3.5707,-3.5707,-3.5707,-3.5707,-3.5707,-3.5707,-3.5707,-3.5707,-3.5707,-3.5707,-3.57,-3.5663,-3.5652,-3.5663,-3.5639,-3.5626,-3.5626,-3.5626,-3.5605,-3.5568,-3.5568,-3.5528,-3.55,-3.55,-3.55,-3.55,-3.55,-3.525,-3.4603,-3.3179,-3.2679,-3.2025,-3.0635,-3.0404,-3.0404,-3.0404,-3.0404,-3.0404,-3.0404,-3.0404,-3.0404,-3.0404,-3.0404,-3.0404,-3.0404,-3.0404,-3.0404,-3.0404,-3.0404,-3.0404,-3.0404,-3.0404,-3.0404,-3.0404,-3.0404,-3.0404,-3.0404,-3.0404,-3.0404,-3.0404,-3.0404,-3.0404,-4.0747,0.0,0.0,0.0,0.0,0.0,0.0,0.0,0.0,0.0,0.0,0.0,0.0,0.0,0.0,0.0,0.0,0.0,0.0,0.0,0.0,0.0,0.0,0.0,0.0,0.0,0.0,0.0,0.0,0.0,-4.0781,-4.0215,-3.9629,-3.9043,-3.7617,-3.6582,-3.6016,-3.5996,-3.5996,-3.5996,-3.5996,-3.5996,-3.5996,-3.5996,-3.5996,-3.5996,-3.5996,-3.5974,-3.594,-3.5834,-3.5799,-3.5799,-3.5799,-3.5799,-3.5799,-3.5799,-3.5799,-3.5799,-3.5799,-3.5799,-3.5797,-3.5775,-3.5766,-3.5761,-3.5713,-3.5707,-3.5707,-3.5707,-3.5675,-3.5635,-3.5635,-3.5591,-3.5574,-3.5574,-3.5552,-3.5534,-3.5534,-3.5297,-3.4635,-3.3203,-3.2691,-3.2063,-3.0665,-3.0419,-3.0404,-3.0404,-3.0404,-3.0404,-3.0404,-3.0404,-3.0404,-3.0404,-3.0404,-3.0404,-3.0404,-3.0404,-3.0404,-3.0404,-3.0404,-3.0404,-3.0404,-3.0404,-3.0404,-3.0404,-3.0404,-3.0404,-3.0404,-3.0404,-3.0404,-3.0404,-3.0404,-3.0404,0.0,0.0,0.0,0.0,0.0,0.0,0.0,0.0,0.0,0.0,0.0,0.0,0.0,0.0,0.0,0.0,0.0,0.0,0.0,0.0,0.0,0.0,0.0,0.0,0.0,0.0,0.0,0.0,0.0,-4.0781,-3.9941,-3.9844,-3.9043,-3.7324,-3.6445,-3.5996,-3.5996,-3.5996,-3.5996,-3.5996,-3.5996,-3.5996,-3.5996,-3.5996,-3.5996,-3.5996,-3.5996,-3.5996,-3.5996,-3.5996,-3.5996,-3.5996,-3.5996,-3.5996,-3.5996,-3.5996,-3.5996,-3.5996,-3.5996,-3.5996,-3.5996,-3.5917,-3.5903,-3.5877,-3.5758,-3.5713,-3.5713,-3.5713,-3.571,-3.571,-3.5707,-3.5703,-3.57,-3.57,-3.5618,-3.5567,-3.5567,-3.4799,-3.3897,-3.314,-3.2293,-3.1438,-3.0646,-3.0446,-3.0404,-3.0404,-3.0404,-3.0404,-3.0404,-3.0404,-3.0404,-3.0404,-3.0404,-3.0404,-3.0404,-3.0404,-3.0404,-3.039,-3.039,-3.039,-3.0416,-3.0416,-3.0416,-3.0416,-3.0416,-3.0416,-3.0416,-3.041,-3.0404,-3.0404,-3.041,-3.039,-4.0545,0.0,0.0,0.0,0.0,0.0,0.0,0.0,0.0,0.0,0.0,0.0,0.0,0.0,0.0,0.0,0.0,0.0,0.0,0.0,0.0,0.0,0.0,0.0,0.0,0.0,0.0,0.0,-4.0625,-4.0156,-3.9902,-3.8691,-3.7519,-3.6387,-3.6133,-3.5996,-3.5996,-3.5996,-3.5996,-3.5996,-3.5996,-3.5996,-3.5996,-3.5996,-3.5996,-3.5996,-3.5996,-3.5996,-3.5996,-3.5996,-3.5996,-3.5996,-3.5996,-3.5996,-3.5996,-3.5996,-3.5996,-3.5996,-3.5996,-3.5996,-3.5996,-3.5975,-3.5974,-3.5973,-3.5929,-3.5927,-3.5927,-3.5927,-3.5871,-3.5812,-3.572,-3.5652,-3.5626,-3.5626,-3.5099,-3.4583,-3.4583,-3.3429,-3.2499,-3.2869,-3.2261,-3.1422,-3.0576,-3.0414,-3.0404,-3.0404,-3.0404,-3.0404,-3.0404,-3.0404,-3.0404,-3.0404,-3.0404,-3.0404,-3.0404,-3.0404,-3.0411,-3.0463,-3.0467,-3.0485,-3.0545,-3.0548,-3.0548,-3.0548,-3.0548,-3.0548,-3.0548,-3.0451,-3.0404,-3.0404,-3.0456,-3.0467,0.0,0.0,0.0,0.0,0.0,0.0,0.0,-4.0908,0.0,0.0,0.0,0.0,0.0,0.0,0.0,0.0,0.0,0.0,0.0,0.0,0.0,0.0,0.0,0.0,0.0,0.0,0.0,-4.0684,-4.0195,-3.957,-3.8848,-3.7519,-3.6523,-3.6016,-3.5996,-3.5996,-3.5996,-3.5996,-3.5996,-3.5996,-3.5996,-3.5996,-3.5996,-3.5996,-3.5996,-3.5996,-3.5996,-3.5996,-3.5996,-3.5996,-3.5996,-3.5996,-3.5996,-3.5996,-3.5996,-3.5996,-3.5996,-3.5996,-3.5996,-3.5996,-3.5996,-3.5996,-3.5996,-3.5996,-3.5996,-3.5996,-3.5996,-3.5996,-3.5974,-3.5922,-3.5841,-3.5807,-3.5677,-3.5304,-3.4789,-3.4278,-3.3905,-3.2745,-3.1917,-3.2362,-3.174,-3.1004,-3.0527,-3.0441,-3.0441,-3.0441,-3.0441,-3.0441,-3.0441,-3.0441,-3.0441,-3.0441,-3.0472,-3.0482,-3.0482,-3.0482,-3.0494,-3.0545,-3.0548,-3.0551,-3.0603,-3.0603,-3.0603,-3.0603,-3.0603,-3.0603,-3.0603,-3.0513,-3.0482,-3.0486,-3.0517,-3.0548,0.0,0.0,0.0,0.0,0.0,0.0,-4.0757,-4.086,-4.0992,0.0,0.0,0.0,0.0,0.0,0.0,0.0,0.0,0.0,0.0,0.0,0.0,0.0,0.0,0.0,0.0,-4.1055,-4.0684,-3.9824,-3.9668,-3.8887,-3.7246,-3.6426,-3.5996,-3.5996,-3.5996,-3.5996,-3.5996,-3.5996,-3.5996,-3.5996,-3.5996,-3.5996,-3.5996,-3.5996,-3.5996,-3.5996,-3.5996,-3.5996,-3.5996,-3.5996,-3.5996,-3.5996,-3.5996,-3.5996,-3.5996,-3.5996,-3.5996,-3.5996,-3.5996,-3.5996,-3.5996,-3.5996,-3.5996,-3.5996,-3.5996,-3.5996,-3.5996,-3.5996,-3.5996,-3.5976,-3.5879,-3.5859,-3.5624,-3.4745,-3.442,-3.4096,-3.3314,-3.2416,-3.1744,-3.1676,-3.0989,-3.0441,-3.0498,-3.052,-3.052,-3.052,-3.052,-3.052,-3.052,-3.052,-3.052,-3.052,-3.0558,-3.0603,-3.0603,-3.0603,-3.0609,-3.0617,-3.0617,-3.062,-3.0628,-3.0628,-3.0628,-3.0628,-3.0628,-3.0628,-3.0628,-3.0611,-3.0603,-3.0603,-3.0614,-3.0617,0.0,0.0,0.0,0.0,0.0,0.0,-4.0561,-4.066,-4.0771,0.0,0.0,0.0,0.0,0.0,0.0,0.0,0.0,0.0,0.0,0.0,0.0,0.0,0.0,0.0,0.0,-4.0156,-3.9785,-3.8926,-3.8203,-3.7344,-3.6309,-3.6094,-3.5996,-3.5996,-3.5996,-3.5996,-3.5996,-3.5996,-3.5996,-3.5996,-3.5996,-3.5996,-3.5996,-3.5996,-3.5996,-3.5996,-3.5996,-3.5996,-3.5996,-3.5996,-3.5996,-3.5996,-3.5996,-3.5996,-3.5996,-3.5996,-3.5996,-3.5996,-3.5996,-3.5996,-3.5996,-3.5996,-3.5996,-3.5996,-3.5996,-3.5996,-3.5996,-3.5996,-3.5996,-3.584,-3.5137,-3.4916,-3.4644,-3.3784,-3.2987,-3.2372,-3.2216,-3.1487,-3.085,-3.0834,-3.0681,-3.0577,-3.0578,-3.0581,-3.0581,-3.0581,-3.0581,-3.0581,-3.0581,-3.0581,-3.0581,-3.0581,-3.0594,-3.0603,-3.0603,-3.0603,-3.0611,-3.068,-3.0682,-3.0735,-3.0834,-3.0835,-3.0835,-3.0835,-3.0835,-3.0835,-3.0835,-3.0678,-3.0603,-3.0606,-3.0663,-3.0682,0.0,0.0,0.0,-4.0496,0.0,0.0,0.0,-4.0642,-4.0701,0.0,0.0,0.0,0.0,0.0,0.0,0.0,0.0,0.0,0.0,0.0,0.0,0.0,0.0,0.0,0.0,-3.9258,-3.8887,-3.8027,-3.7148,-3.6465,-3.6016,-3.5996,-3.5996,-3.5996,-3.5996,-3.5996,-3.5996,-3.5996,-3.5996,-3.5996,-3.5996,-3.5996,-3.5996,-3.5996,-3.5996,-3.5996,-3.5996,-3.5996,-3.5996,-3.5996,-3.5996,-3.5996,-3.5996,-3.5996,-3.5996,-3.5996,-3.5996,-3.5996,-3.5996,-3.5996,-3.5996,-3.5996,-3.5996,-3.5996,-3.5996,-3.5996,-3.5996,-3.5996,-3.5684,-3.5254,-3.4805,-3.4353,-3.3799,-3.2959,-3.2383,-3.1939,-3.151,-3.1063,-3.0752,-3.0752,-3.0752,-3.0718,-3.0617,-3.0636,-3.0657,-3.0657,-3.0657,-3.0657,-3.0657,-3.0657,-3.0657,-3.0657,-3.0719,-3.0752,-3.0752,-3.0752,-3.076,-3.0793,-3.0794,-3.0836,-3.0898,-3.0898,-3.0898,-3.0898,-3.0898,-3.0898,-3.0898,-3.0807,-3.0752,-3.0752,-3.0788,-3.0794,0.0,0.0,0.0,0.0,0.0,-4.0534,0.0,0.0,0.0,0.0,0.0,0.0,0.0,0.0,0.0,0.0,0.0,0.0,0.0,0.0,0.0,0.0,0.0,0.0,0.0,-3.8182,-3.7792,-3.7109,-3.6386,-3.5995,-3.5996,-3.5996,-3.5996,-3.5996,-3.5996,-3.5996,-3.5996,-3.5996,-3.5996,-3.5996,-3.5996,-3.5996,-3.5996,-3.5996,-3.5996,-3.5996,-3.5996,-3.5996,-3.5996,-3.5996,-3.5996,-3.5996,-3.5996,-3.5996,-3.5996,-3.5996,-3.5996,-3.5996,-3.5996,-3.5996,-3.5996,-3.5996,-3.5996,-3.5996,-3.5996,-3.5996,-3.5976,-3.5801,-3.5234,-3.4629,-3.4297,-3.3691,-3.2969,-3.2148,-3.1953,-3.1758,-3.1055,-3.0898,-3.0898,-3.0898,-3.0898,-3.0856,-3.0681,-3.0703,-3.0744,-3.0744,-3.0744,-3.0744,-3.0744,-3.0744,-3.0744,-3.0744,-3.0837,-3.0898,-3.0898,-3.0898,-3.0898,-3.0898,-3.0898,-3.0898,-3.0898,-3.0898,-3.0898,-3.0898,-3.0898,-3.0898,-3.0898,-3.0898,-3.0898,-3.0898,-3.0898,-3.0898,0.0,0.0,0.0,0.0,-4.0496,0.0,0.0,0.0,0.0,0.0,0.0,0.0,0.0,0.0,0.0,0.0,0.0,0.0,0.0,0.0,0.0,0.0,0.0,0.0,0.0,0.0,-3.6196,-3.6152,-3.6005,-3.5942,-3.5996,-3.5996,-3.5996,-3.5996,-3.5996,-3.5996,-3.5996,-3.5996,-3.5996,-3.5996,-3.5996,-3.5996,-3.5996,-3.5996,-3.5996,-3.5996,-3.5996,-3.5996,-3.5996,-3.5996,-3.5996,-3.5996,-3.5996,-3.5996,-3.5996,-3.5996,-3.5996,-3.5996,-3.5996,-3.5996,-3.5996,-3.5996,-3.5996,-3.5996,-3.5996,-3.5996,-3.584,-3.5078,-3.4785,-3.4355,-3.2871,-3.2402,-3.2129,-3.125,-3.1055,-3.1016,-3.0918,-3.0898,-3.0898,-3.0898,-3.0898,-3.0898,-3.0878,-3.0878,-3.0879,-3.0879,-3.0879,-3.0879,-3.0879,-3.0879,-3.0879,-3.0879,-3.0898,-3.0898,-3.0898,-3.0898,-3.0898,-3.0898,-3.0898,-3.0898,-3.0898,-3.0898,-3.0898,-3.0898,-3.0898,-3.0898,-3.0898,-3.0898,-3.0898,-3.0898,-3.0898,-3.0898,0.0,0.0,0.0,0.0,0.0,0.0,-3.9919,0.0,-3.9554,0.0,0.0,0.0,0.0,0.0,0.0,0.0,0.0,0.0,0.0,0.0,0.0,0.0,0.0,0.0,0.0,0.0,0.0,0.0,0.0,-3.5807,-3.5812,-3.5834,-3.5866,-3.5945,-3.5945,-3.5951,-3.5996,-3.5996,-3.5996,-3.5996,-3.5996,-3.5996,-3.5996,-3.5996,-3.5996,-3.5996,-3.5996,-3.5996,-3.5996,-3.5996,-3.5996,-3.5996,-3.5996,-3.5996,-3.5996,-3.5996,-3.5996,-3.5996,-3.5996,-3.5996,-3.5996,-3.5996,-3.5996,-3.5918,-3.5391,-3.5254,-3.5059,-3.4199,-3.3613,-3.3086,-3.2383,-3.1816,-3.1348,-3.0996,-3.0898,-3.0898,-3.0898,-3.0898,-3.0898,-3.0898,-3.0898,-3.0898,-3.0898,-3.0898,-3.0898,-3.0898,-3.0898,-3.0898,-3.0898,-3.0898,-3.0898,-3.0898,-3.0898,-3.0898,-3.0898,-3.0898,-3.0898,-3.0898,-3.0898,-3.0898,-3.0898,-3.0898,-3.0898,-3.0898,-3.0898,-3.0898,-3.0898,-3.0898,-3.0898,-3.0898,-3.0898,-3.0898,-4.0496,0.0,0.0,0.0,0.0,0.0,0.0,0.0,0.0,0.0,0.0,0.0,0.0,0.0,0.0,0.0,0.0,0.0,0.0,0.0,0.0,0.0,0.0,0.0,0.0,0.0,0.0,-3.5703,-3.5682,-3.5678,-3.5703,-3.5707,-3.5732,-3.5841,-3.5843,-3.5861,-3.5927,-3.5927,-3.5927,-3.5927,-3.5927,-3.5927,-3.5927,-3.5927,-3.593,-3.5974,-3.5974,-3.5975,-3.5996,-3.5996,-3.5996,-3.5996,-3.5996,-3.5996,-3.5996,-3.5996,-3.5996,-3.5996,-3.5996,-3.5996,-3.5996,-3.5996,-3.584,-3.5527,-3.4883,-3.4531,-3.418,-3.3301,-3.2656,-3.2148,-3.1914,-3.1367,-3.0898,-3.0898,-3.0898,-3.0898,-3.0898,-3.0898,-3.0898,-3.0898,-3.0898,-3.0898,-3.0898,-3.0898,-3.0898,-3.0898,-3.0898,-3.0898,-3.0898,-3.0898,-3.0898,-3.0898,-3.0898,-3.0898,-3.0898,-3.0898,-3.0898,-3.0898,-3.0898,-3.0898,-3.0898,-3.0898,-3.0898,-3.0898,-3.0898,-3.0898,-3.0898,-3.0898,-3.0898,-3.0898,-3.0898,-3.0898,0.0,0.0,0.0,-4.0496,0.0,0.0,0.0,0.0,-3.7796,0.0,0.0,0.0,0.0,0.0,0.0,-3.5538,0.0,0.0,0.0,0.0,0.0,0.0,0.0,0.0,0.0,0.0,0.0,-3.57,-3.5648,-3.5635,-3.57,-3.5707,-3.5707,-3.571,-3.571,-3.571,-3.5713,-3.5713,-3.5713,-3.5713,-3.5713,-3.5713,-3.5713,-3.5713,-3.5775,-3.5903,-3.5903,-3.5945,-3.5996,-3.5996,-3.5996,-3.5996,-3.5996,-3.5996,-3.5996,-3.5996,-3.5996,-3.5996,-3.5996,-3.5996,-3.5996,-3.5996,-3.543,-3.4746,-3.4707,-3.4101,-3.3262,-3.2461,-3.2226,-3.2012,-3.1152,-3.0918,-3.0898,-3.0898,-3.0898,-3.0898,-3.0898,-3.0898,-3.0898,-3.0898,-3.0898,-3.0898,-3.0898,-3.0898,-3.0898,-3.0898,-3.0898,-3.0898,-3.0898,-3.0898,-3.0898,-3.0898,-3.0898,-3.0898,-3.0898,-3.0898,-3.0898,-3.0898,-3.0898,-3.0898,-3.0898,-3.0898,-3.0898,-3.0898,-3.0898,-3.0898,-3.0898,-3.0898,-3.0898,-3.0898,-3.0898,-3.0898,0.0,0.0,-4.0362,-3.9842,0.0,0.0,0.0,0.0,0.0,0.0,0.0,0.0,0.0,0.0,-3.55,-3.55,-3.55,0.0,0.0,0.0,0.0,0.0,0.0,0.0,0.0,0.0,0.0,-3.5574,-3.5546,-3.554,-3.5574,-3.5574,-3.5585,-3.5635,-3.5635,-3.5655,-3.5703,-3.5707,-3.5707,-3.5707,-3.5707,-3.5707,-3.5707,-3.5707,-3.572,-3.5766,-3.5766,-3.578,-3.5802,-3.5802,-3.5802,-3.5802,-3.5802,-3.5802,-3.583,-3.5953,-3.5996,-3.5996,-3.5996,-3.5996,-3.5898,-3.5332,-3.4941,-3.4492,-3.3379,-3.2832,-3.2422,-3.1582,-3.1348,-3.1269,-3.0976,-3.0898,-3.0898,-3.0898,-3.0898,-3.0898,-3.0898,-3.0898,-3.0898,-3.0898,-3.0898,-3.0898,-3.0898,-3.0898,-3.0898,-3.0898,-3.0898,-3.0898,-3.0898,-3.0898,-3.0898,-3.0898,-3.0898,-3.0898,-3.0898,-3.0898,-3.0898,-3.0898,-3.0898,-3.0898,-3.0898,-3.0898,-3.0898,-3.0898,-3.0898,-3.0898,-3.0898,-3.0898,-3.0898,-3.0898,-3.0898,-3.0898,-4.015,-4.0073,0.0,-3.9027,-3.8604,0.0,-3.6962,0.0,0.0,0.0,0.0,0.0,0.0,0.0,0.0,-3.55,-3.55,-3.55,0.0,-3.5424,0.0,0.0,0.0,0.0,0.0,0.0,-3.55,-3.55,-3.55,-3.55,0.0,0.0,-3.5515,-3.5568,-3.5568,-3.5599,-3.5626,-3.5626,-3.5626,-3.5626,-3.5626,-3.5626,-3.5626,-3.5626,-3.5633,-3.5652,-3.5652,-3.5675,-3.5707,-3.5707,-3.5707,-3.5707,-3.5707,-3.5707,-3.5723,-3.5897,-3.5975,-3.5996,-3.5996,-3.5801,-3.5449,-3.4883,-3.4297,-3.3613,-3.2539,-3.1973,-3.1621,-3.1055,-3.0898,-3.0898,-3.0898,-3.0898,-3.0898,-3.0898,-3.0898,-3.0898,-3.0837,-3.0836,-3.0815,-3.0807,-3.0812,-3.0815,-3.0807,-3.0813,-3.0857,-3.0898,-3.0898,-3.0898,-3.0898,-3.0898,-3.0898,-3.0898,-3.0858,-3.0814,-3.0806,-3.0785,-3.0785,-3.0785,-3.0785,-3.0785,-3.0785,-3.0785,-3.0941,-3.1253,-3.0941,-3.0941,-3.1253,-3.0941,-3.0785,-3.0785,-3.0785,-3.0785]},{"header":{"parameterUnit":"m.s-1","parameterCategory":1,"la1":30.6,"la2":29.2853,"lo1":-89.7004,"lo2":-87.6739,"dy":0.0162,"dx":0.0183,"nx":112,"ny":82,"refTime":"2023-09-06T06:00:00:Z","depth":0,"parameterNumber":3,"parameterNumberName":"V-component_of_WINDS"},"data":[0.0,0.0,0.0,0.0,0.0,0.0,0.0,0.0,0.0,0.0,0.0,0.0,0.0,0.0,0.0,0.0,0.0,0.0,0.0,0.0,0.0,0.0,0.0,0.0,0.0,0.0,0.0,0.0,0.0,0.0,0.0,0.0,0.0,0.0,0.0,0.0,0.0,0.0,0.0,0.0,0.0,0.0,0.0,0.0,0.0,0.0,0.0,0.0,0.0,0.0,0.0,0.0,0.0,0.0,0.0,0.0,0.0,0.0,0.0,0.0,0.0,0.0,0.0,0.0,0.0,0.0,0.0,0.0,0.0,0.0,0.0,0.0,0.0,0.0,0.0,0.0,0.0,0.0,0.0,0.0,0.0,0.0,0.0,0.0,0.0,0.0,0.0,0.0,0.0,0.0,0.0,-1.2225,-1.2044,-1.1685,-1.1102,-1.1015,-1.0901,-1.0613,0.0,0.0,0.0,0.0,0.0,0.0,0.0,0.0,0.0,0.0,0.0,0.0,0.0,0.0,0.0,0.0,0.0,0.0,0.0,0.0,0.0,0.0,0.0,0.0,0.0,0.0,0.0,0.0,0.0,0.0,0.0,0.0,0.0,0.0,0.0,0.0,0.0,0.0,0.0,0.0,0.0,0.0,0.0,0.0,0.0,0.0,0.0,0.0,0.0,0.0,0.0,0.0,0.0,0.0,0.0,0.0,0.0,0.0,0.0,0.0,0.0,0.0,0.0,0.0,0.0,0.0,0.0,0.0,0.0,0.0,0.0,0.0,0.0,0.0,0.0,0.0,0.0,0.0,0.0,0.0,0.0,0.0,0.0,0.0,0.0,0.0,0.0,0.0,0.0,0.0,0.0,0.0,0.0,0.0,0.0,0.0,0.0,0.0,0.0,0.0,0.0,0.0,0.0,0.0,-1.2151,-1.2285,-1.2044,-1.1765,-1.1355,-1.1136,-1.0901,-1.0613,0.0,0.0,0.0,0.0,0.0,0.0,0.0,0.0,0.0,0.0,0.0,0.0,0.0,0.0,0.0,0.0,0.0,0.0,0.0,0.0,0.0,0.0,0.0,0.0,0.0,0.0,0.0,0.0,0.0,0.0,0.0,0.0,0.0,0.0,0.0,0.0,0.0,0.0,0.0,0.0,0.0,0.0,0.0,0.0,0.0,0.0,0.0,0.0,0.0,0.0,0.0,0.0,0.0,0.0,0.0,0.0,0.0,0.0,0.0,0.0,0.0,0.0,0.0,0.0,0.0,0.0,0.0,0.0,0.0,0.0,0.0,0.0,0.0,0.0,0.0,0.0,0.0,0.0,0.0,0.0,0.0,0.0,0.0,0.0,0.0,0.0,0.0,0.0,0.0,0.0,0.0,0.0,0.0,0.0,0.0,0.0,0.0,0.0,0.0,0.0,0.0,0.0,0.0,-1.2037,-1.2305,-1.2305,-1.2184,-1.1917,-1.1429,-1.1303,-1.1035,-1.062,-1.0238,0.0,0.0,0.0,0.0,0.0,0.0,0.0,0.0,0.0,0.0,0.0,0.0,0.0,0.0,0.0,0.0,0.0,0.0,0.0,0.0,0.0,0.0,0.0,0.0,0.0,0.0,0.0,0.0,0.0,0.0,0.0,0.0,0.0,0.0,0.0,0.0,0.0,0.0,0.0,0.0,0.0,0.0,0.0,0.0,0.0,0.0,0.0,0.0,0.0,0.0,0.0,0.0,0.0,0.0,0.0,0.0,0.0,0.0,0.0,0.0,0.0,0.0,0.0,0.0,0.0,0.0,0.0,0.0,0.0,0.0,0.0,0.0,0.0,0.0,0.0,0.0,0.0,0.0,0.0,0.0,0.0,0.0,0.0,0.0,0.0,0.0,0.0,0.0,0.0,0.0,0.0,0.0,0.0,0.0,0.0,0.0,0.0,0.0,0.0,0.0,0.0,0.0,-1.2164,-1.2305,-1.2305,-1.2305,-1.2091,-1.157,-1.147,-1.1209,-1.0727,-1.0626,0.0,0.0,0.0,0.0,0.0,0.0,0.0,0.0,0.0,0.0,0.0,0.0,0.0,0.0,0.0,0.0,0.0,0.0,0.0,0.0,0.0,0.0,0.0,0.0,0.0,0.0,0.0,0.0,0.0,0.0,0.0,0.0,0.0,0.0,0.0,0.0,0.0,0.0,0.0,0.0,0.0,0.0,0.0,0.0,0.0,0.0,0.0,0.0,0.0,0.0,0.0,0.0,0.0,0.0,0.0,0.0,0.0,0.0,0.0,0.0,0.0,0.0,0.0,0.0,0.0,0.0,0.0,0.0,0.0,0.0,0.0,0.0,0.0,0.0,0.0,0.0,0.0,0.0,0.0,0.0,0.0,0.0,0.0,0.0,0.0,0.0,0.0,0.0,0.0,0.0,0.0,0.0,0.0,0.0,0.0,0.0,0.0,0.0,0.0,0.0,0.0,0.0,-1.2291,-1.2305,-1.2305,-1.2305,-1.2178,-1.1899,-1.1583,-1.1289,-1.0982,-1.074,0.0,0.0,0.0,0.0,0.0,0.0,0.0,0.0,0.0,0.0,0.0,0.0,0.0,0.0,0.0,0.0,0.0,0.0,0.0,0.0,0.0,0.0,0.0,0.0,0.0,0.0,0.0,0.0,0.0,0.0,0.0,0.0,0.0,0.0,0.0,0.0,0.0,0.0,0.0,0.0,0.0,0.0,0.0,0.0,0.0,0.0,0.0,0.0,0.0,0.0,0.0,0.0,0.0,0.0,0.0,0.0,0.0,0.0,0.0,0.0,0.0,0.0,0.0,0.0,0.0,0.0,0.0,0.0,0.0,0.0,0.0,0.0,0.0,0.0,0.0,0.0,0.0,0.0,0.0,0.0,0.0,0.0,0.0,0.0,0.0,0.0,0.0,0.0,0.0,0.0,0.0,0.0,0.0,0.0,0.0,0.0,0.0,0.0,0.0,0.0,0.0,0.0,-1.2305,-1.2305,0.0,-1.2305,-1.2184,-1.1933,-1.1597,-1.1303,-1.1009,0.0,0.0,0.0,0.0,0.0,0.0,0.0,0.0,0.0,0.0,0.0,0.0,0.0,0.0,0.0,0.0,0.0,0.0,0.0,0.0,0.0,0.0,0.0,0.0,0.0,0.0,0.0,0.0,0.0,0.0,0.0,0.0,0.0,0.0,0.0,0.0,0.0,0.0,0.0,0.0,0.0,0.0,0.0,0.0,0.0,0.0,0.0,0.0,0.0,0.0,0.0,0.0,0.0,0.0,0.0,0.0,0.0,0.0,0.0,0.0,0.0,0.0,0.0,0.0,0.0,0.0,0.0,0.0,0.0,0.0,0.0,0.0,0.0,0.0,0.0,0.0,0.0,0.0,0.0,0.0,0.0,0.0,0.0,0.0,0.0,0.0,0.0,0.0,0.0,0.0,0.0,0.0,0.0,0.0,0.0,0.0,0.0,0.0,0.0,0.0,0.0,0.0,-1.2278,-1.2305,-1.2305,0.0,-1.2305,-1.2225,-1.2024,-1.1737,-1.1443,-1.1149,0.0,0.0,0.0,0.0,0.0,0.0,0.0,0.0,0.0,0.0,0.0,0.0,0.0,0.0,0.0,0.0,0.0,0.0,0.0,0.0,0.0,0.0,0.0,0.0,0.0,0.0,0.0,0.0,0.0,0.0,0.0,0.0,0.0,0.0,0.0,0.0,0.0,0.0,0.0,0.0,0.0,0.0,0.0,0.0,0.0,0.0,0.0,0.0,0.0,0.0,0.0,0.0,0.0,0.0,0.0,0.0,0.0,0.0,0.0,0.0,0.0,0.0,0.0,0.0,0.0,0.0,0.0,0.0,0.0,0.0,0.0,0.0,0.0,0.0,0.0,0.0,0.0,0.0,0.0,0.0,0.0,0.0,0.0,0.0,0.0,0.0,0.0,0.0,0.0,0.0,0.0,0.0,0.0,0.0,0.0,0.0,0.0,0.0,0.0,0.0,0.0,0.0,-1.2305,-1.2305,-1.2305,-1.2305,-1.2305,-1.2305,-1.2305,-1.2037,-1.1744,0.0,0.0,0.0,0.0,0.0,0.0,0.0,0.0,0.0,0.0,0.0,0.0,0.0,0.0,0.0,0.0,0.0,0.0,0.0,0.0,0.0,0.0,0.0,0.0,0.0,0.0,0.0,0.0,0.0,0.0,0.0,0.0,0.0,0.0,0.0,0.0,0.0,0.0,0.0,0.0,0.0,0.0,0.0,0.0,0.0,0.0,0.0,0.0,0.0,0.0,0.0,0.0,0.0,0.0,0.0,0.0,0.0,0.0,0.0,0.0,0.0,0.0,0.0,0.0,0.0,0.0,0.0,0.0,0.0,0.0,0.0,0.0,0.0,0.0,0.0,0.0,0.0,0.0,0.0,0.0,0.0,0.0,0.0,0.0,0.0,0.0,0.0,0.0,0.0,0.0,0.0,0.0,0.0,0.0,0.0,0.0,0.0,0.0,0.0,0.0,0.0,0.0,0.0,-1.2305,-1.2305,-1.2305,-1.2305,-1.2305,-1.2305,-1.2305,-1.2037,-1.1866,-1.1744,0.0,0.0,0.0,0.0,0.0,0.0,0.0,0.0,0.0,0.0,0.0,0.0,0.0,0.0,0.0,0.0,0.0,0.0,0.0,0.0,0.0,0.0,0.0,0.0,0.0,0.0,0.0,0.0,0.0,0.0,0.0,0.0,0.0,0.0,0.0,0.0,0.0,0.0,0.0,0.0,0.0,0.0,0.0,0.0,0.0,0.0,0.0,0.0,0.0,0.0,0.0,0.0,0.0,0.0,0.0,0.0,0.0,0.0,0.0,0.0,0.0,0.0,0.0,0.0,0.0,0.0,0.0,0.0,0.0,0.0,0.0,0.0,0.0,0.0,0.0,0.0,0.0,0.0,0.0,0.0,0.0,0.0,0.0,0.0,0.0,0.0,0.0,0.0,0.0,0.0,0.0,0.0,0.0,0.0,0.0,0.0,0.0,0.0,0.0,0.0,0.0,0.0,-1.2305,-1.2305,-1.2305,-1.2305,-1.2305,-1.2305,-1.2305,-1.2144,-1.198,-1.171,0.0,0.0,0.0,0.0,0.0,0.0,0.0,0.0,0.0,0.0,0.0,0.0,0.0,0.0,0.0,0.0,0.0,0.0,0.0,0.0,0.0,0.0,0.0,0.0,0.0,0.0,0.0,0.0,0.0,0.0,0.0,0.0,0.0,0.0,0.0,0.0,0.0,0.0,0.0,0.0,0.0,0.0,0.0,0.0,0.0,0.0,0.0,0.0,0.0,0.0,0.0,0.0,0.0,0.0,0.0,0.0,0.0,0.0,0.0,0.0,0.0,0.0,0.0,0.0,0.0,0.0,0.0,0.0,0.0,0.0,0.0,0.0,0.0,0.0,0.0,0.0,0.0,0.0,0.0,0.0,0.0,0.0,0.0,0.0,0.0,0.0,0.0,0.0,0.0,0.0,0.0,0.0,0.0,0.0,0.0,0.0,0.0,0.0,0.0,0.0,0.0,0.0,-1.2305,-1.2305,-1.2305,-1.2305,-1.2305,-1.2305,-1.2305,-1.2305,-1.2078,-1.1502,0.0,0.0,0.0,0.0,0.0,0.0,0.0,0.0,0.0,0.0,0.0,0.0,0.0,0.0,0.0,0.0,0.0,0.0,0.0,0.0,0.0,0.0,0.0,0.0,0.0,0.0,0.0,0.0,0.0,0.0,0.0,0.0,0.0,0.0,0.0,0.0,0.0,0.0,0.0,0.0,0.0,0.0,0.0,0.0,0.0,0.0,0.0,0.0,0.0,0.0,0.0,0.0,0.0,0.0,0.0,0.0,0.0,0.0,0.0,0.0,-0.6183,0.0,0.0,0.0,0.0,0.0,0.0,0.0,0.0,0.0,0.0,0.0,0.0,0.0,0.0,0.0,0.0,0.0,0.0,0.0,0.0,0.0,0.0,0.0,0.0,0.0,0.0,0.0,0.0,0.0,0.0,0.0,0.0,0.0,0.0,0.0,0.0,0.0,0.0,0.0,0.0,0.0,-1.2305,-1.2305,-1.2305,-1.2305,-1.2305,-1.2305,-1.2305,-1.2305,-1.2245,-1.2124,-1.1648,0.0,0.0,0.0,0.0,0.0,0.0,0.0,0.0,0.0,0.0,0.0,0.0,0.0,0.0,0.0,0.0,0.0,0.0,0.0,0.0,0.0,0.0,0.0,0.0,0.0,0.0,0.0,0.0,0.0,0.0,0.0,0.0,0.0,0.0,0.0,0.0,0.0,0.0,0.0,0.0,0.0,0.0,0.0,0.0,0.0,0.0,0.0,0.0,0.0,0.0,0.0,0.0,0.0,0.0,0.0,0.0,0.0,0.0,0.0,0.0,-0.63,0.0,0.0,0.0,0.0,0.0,0.0,0.0,0.0,0.0,0.0,0.0,0.0,0.0,0.0,0.0,0.0,0.0,0.0,0.0,0.0,0.0,0.0,0.0,0.0,0.0,0.0,0.0,0.0,0.0,0.0,0.0,0.0,0.0,0.0,0.0,0.0,0.0,0.0,0.0,0.0,-1.2305,-1.2305,-1.2305,-1.2305,-1.2305,-1.2305,-1.2305,-1.2305,-1.2245,-1.2104,-1.1677,0.0,0.0,0.0,0.0,0.0,0.0,0.0,0.0,0.0,0.0,0.0,0.0,0.0,0.0,0.0,0.0,0.0,0.0,0.0,0.0,0.0,0.0,0.0,0.0,0.0,0.0,0.0,0.0,0.0,0.0,0.0,0.0,0.0,0.0,0.0,0.0,0.0,0.0,0.0,0.0,0.0,0.0,0.0,0.0,0.0,0.0,0.0,0.0,0.0,0.0,0.0,0.0,0.0,-0.6378,-0.6378,-0.6378,-0.6378,-0.6378,-0.6378,-0.6378,-0.6347,-0.63,-0.63,0.0,0.0,0.0,0.0,0.0,0.0,0.0,0.0,0.0,0.0,0.0,0.0,0.0,0.0,0.0,0.0,0.0,0.0,0.0,0.0,0.0,0.0,0.0,0.0,-1.0453,-1.1157,0.0,0.0,0.0,0.0,0.0,0.0,0.0,0.0,0.0,0.0,0.0,0.0,-1.2305,-1.2305,-1.2305,-1.2305,-1.2305,-1.2305,-1.2305,-1.2305,-1.2204,-1.1993,-1.1663,-1.1369,0.0,0.0,0.0,0.0,0.0,0.0,0.0,0.0,0.0,0.0,0.0,0.0,0.0,0.0,0.0,0.0,0.0,0.0,0.0,0.0,0.0,0.0,0.0,0.0,0.0,0.0,0.0,0.0,0.0,0.0,0.0,0.0,-0.3632,-0.5628,0.0,0.0,0.0,0.0,0.0,0.0,0.0,0.0,0.0,0.0,0.0,0.0,0.0,-0.6641,-0.6641,-0.6641,-0.6641,-0.6641,-0.6641,-0.6641,-0.6641,-0.6641,-0.6641,-0.6641,-0.6641,0.0,-0.63,-0.63,0.0,0.0,0.0,0.0,0.0,0.0,0.0,0.0,0.0,0.0,0.0,0.0,0.0,0.0,0.0,0.0,0.0,0.0,0.0,0.0,0.0,0.0,-1.2224,-1.1966,-1.1996,-1.2124,0.0,-1.0836,-0.9889,-1.0779,-1.0989,0.0,0.0,0.0,0.0,0.0,0.0,0.0,-1.2305,-1.2305,-1.2305,-1.2305,-1.2305,-1.2305,-1.2305,-1.2305,-1.2285,-1.2245,-1.1971,-1.1677,-1.1349,-1.1089,0.0,0.0,0.0,0.0,0.0,0.0,0.0,0.0,0.0,0.0,0.0,0.0,0.0,0.0,0.0,0.0,0.0,0.0,0.0,0.0,0.0,0.0,0.0,0.0,0.0,0.0,0.0,0.0,0.0,-0.3983,-0.5402,-0.6414,-0.6099,-0.6015,0.0,0.0,0.0,0.0,0.0,0.0,0.0,0.0,0.0,-0.6702,-0.6702,-0.6702,-0.6702,-0.6702,-0.6702,-0.6702,-0.6702,-0.6702,-0.6702,-0.6702,-0.6702,-0.6702,-0.6702,-0.6627,-0.6502,-0.6457,-0.6371,-0.63,0.0,0.0,0.0,0.0,-0.63,-0.63,-0.63,-0.6679,0.0,-0.649,0.0,0.0,0.0,0.0,0.0,0.0,0.0,0.0,0.0,0.0,-1.2305,-1.2305,-1.2305,-1.2305,-1.2305,-1.1626,-1.1136,0.0,-1.1657,-1.1768,-1.2224,0.0,0.0,0.0,0.0,-1.2305,-1.2305,-1.2305,-1.2305,-1.2305,-1.2305,-1.2305,-1.2305,-1.2305,-1.2305,-1.2305,-1.2067,-1.1846,-1.1683,-1.1236,-1.0929,0.0,0.0,0.0,0.0,0.0,0.0,0.0,0.0,0.0,0.0,0.0,0.0,0.0,0.0,0.0,0.0,0.0,0.0,0.0,0.0,0.0,0.0,0.0,0.0,0.0,0.0,0.0,0.0,-0.5346,-0.6573,-0.6685,-0.6702,-0.6702,0.0,0.0,0.0,0.0,0.0,0.0,-0.681,-0.6814,-0.6814,-0.6814,-0.6814,-0.6814,-0.6814,-0.6814,-0.6814,-0.6814,-0.6814,-0.6814,-0.6814,-0.6814,-0.6814,-0.6814,-0.6814,-0.6793,-0.6749,-0.6593,-0.6508,-0.6409,-0.6368,-0.6354,-0.6351,-0.6313,-0.63,-0.63,-0.63,-0.6795,-0.7326,-0.6834,-0.7859,-0.9221,-0.8727,0.0,0.0,0.0,0.0,-1.1162,-1.1162,-1.1731,-1.2305,-1.2305,-1.2305,-1.2305,-1.2305,-1.2305,-1.2305,0.0,-1.2305,-1.2305,-1.2305,0.0,0.0,0.0,0.0,-1.2305,-1.2305,-1.2305,-1.2305,-1.2305,-1.2305,-1.2305,-1.2305,-1.2305,-1.2305,-1.2305,-1.2098,-1.198,-1.1906,-1.1376,-1.1069,-1.0995,0.0,0.0,0.0,0.0,0.0,0.0,0.0,0.0,0.0,0.0,0.0,0.0,0.0,0.0,0.0,0.0,0.0,0.0,0.0,0.0,0.0,0.0,0.0,0.0,0.0,0.0,0.0,0.0,0.0,-0.6698,-0.6702,0.0,0.0,0.0,0.0,-0.6862,-0.6873,-0.6933,-0.7065,-0.7071,-0.7071,-0.7071,-0.7071,-0.7071,-0.7071,-0.7071,-0.7071,-0.7071,-0.7071,-0.7071,-0.7071,-0.7071,-0.7071,-0.7071,-0.7071,-0.6997,-0.6862,-0.6753,-0.6685,-0.6664,-0.6559,-0.6501,-0.6484,-0.6351,-0.63,-0.63,-0.63,-0.6338,-0.6528,-0.7442,-0.8428,-0.9485,-1.0378,-1.0671,0.0,0.0,-1.2187,-1.2224,-1.2224,-1.2261,-1.2305,-1.2305,-1.2305,-1.2305,-1.2305,-1.2305,-1.2305,0.0,-1.2305,-1.2305,-1.2305,0.0,-1.2305,-1.2305,-1.2305,-1.2305,-1.2305,-1.2305,-1.2305,-1.2305,-1.2305,-1.2305,-1.2305,-1.2305,-1.2305,-1.2305,-1.2285,-1.2158,-1.1913,-1.157,-1.1276,-1.0995,-1.074,0.0,0.0,0.0,0.0,0.0,0.0,0.0,0.0,0.0,0.0,0.0,0.0,0.0,0.0,0.0,0.0,0.0,0.0,0.0,0.0,0.0,0.0,0.0,0.0,0.0,0.0,0.0,0.0,-0.693,-0.694,0.0,-0.694,-0.694,-0.6964,-0.7018,-0.7021,-0.7045,-0.7092,-0.7095,-0.7095,-0.7095,-0.7095,-0.7095,-0.7095,-0.7095,-0.7095,-0.7095,-0.7095,-0.7095,-0.7095,-0.7095,-0.7095,-0.7095,-0.7095,-0.7068,-0.7018,-0.6964,-0.6871,-0.6695,-0.6641,-0.662,-0.66,-0.6491,-0.6436,-0.6422,-0.633,-0.63,-0.6451,-0.748,-0.805,-0.8651,-1.0297,-1.0783,-1.1013,-1.204,-1.2305,-1.2305,-1.2305,-1.2305,-1.2305,-1.2305,-1.2305,-1.2305,-1.2305,-1.2305,-1.2305,-1.2305,-1.2305,-1.2305,-1.2305,-1.2305,-1.2305,-1.2305,-1.2305,-1.2305,-1.2305,-1.2305,-1.2305,-1.2305,-1.2305,-1.2305,-1.2305,-1.2305,-1.2305,-1.2305,-1.2305,-1.2258,-1.2151,-1.1864,-1.157,-1.1242,-1.0982,-1.078,0.0,0.0,0.0,0.0,0.0,0.0,0.0,0.0,0.0,0.0,0.0,0.0,0.0,0.0,0.0,0.0,0.0,0.0,0.0,0.0,0.0,0.0,0.0,0.0,0.0,0.0,-0.6991,-0.7085,-0.7095,-0.7095,-0.7095,-0.7095,-0.7095,-0.7095,-0.7095,-0.7095,-0.7095,-0.7095,-0.7095,-0.7095,-0.7095,-0.7122,-0.7217,-0.7217,-0.7244,-0.725,-0.725,-0.725,-0.725,-0.7241,-0.7217,-0.7214,-0.7119,-0.7095,-0.7095,-0.7095,-0.6984,-0.6844,-0.6797,-0.6776,-0.6759,-0.6607,-0.6549,-0.6529,-0.6422,-0.6571,-0.6911,-0.7595,-0.805,-0.8613,-1.0297,-1.0783,-1.1013,-1.204,-1.2305,-1.2305,-1.2305,-1.2305,-1.2305,-1.2305,-1.2305,-1.2305,-1.2305,-1.2305,-1.2305,-1.2305,-1.2305,-1.2305,-1.2305,-1.2305,-1.2305,-1.2305,-1.2305,-1.2305,-1.2305,-1.2305,-1.2305,-1.2305,-1.2305,-1.2305,-1.2305,-1.2305,-1.2305,-1.2305,-1.2305,-1.2305,-1.2305,-1.2024,-1.1812,-1.1583,-1.1189,-1.0881,-1.0593,0.0,0.0,0.0,0.0,0.0,0.0,0.0,0.0,0.0,0.0,0.0,0.0,0.0,0.0,0.0,0.0,0.0,0.0,0.0,0.0,0.0,0.0,0.0,-0.5447,-0.6381,-0.7095,-0.7095,-0.7095,-0.7095,-0.7095,-0.7095,-0.7095,-0.7095,-0.7095,-0.7098,-0.7102,-0.7102,-0.7105,-0.7109,-0.7109,-0.7227,-0.7422,-0.7426,-0.7451,-0.76,-0.76,-0.76,-0.7594,-0.7448,-0.7426,-0.7415,-0.7221,-0.7109,-0.7102,-0.7102,-0.7098,-0.7082,-0.6947,-0.6893,-0.6873,-0.6763,-0.6705,-0.6678,-0.6566,-0.7042,-0.7753,-0.7744,-0.8428,-0.9448,-1.0453,-1.0783,-1.1013,-1.204,-1.2305,-1.2305,-1.2305,-1.2305,-1.2305,-1.2305,-1.2305,-1.2305,-1.2305,-1.2305,-1.2305,-1.2305,-1.2305,-1.2305,-1.2305,-1.2305,-1.2305,-1.2305,-1.2305,0.0,-1.2305,-1.2305,-1.2305,-1.2305,-1.2305,-1.2305,-1.2305,-1.2305,-1.2305,-1.2305,-1.2305,-1.2305,-1.2305,-1.2067,-1.1913,-1.1906,-1.1323,-1.0855,-1.0606,0.0,0.0,0.0,0.0,0.0,0.0,0.0,0.0,0.0,0.0,0.0,0.0,0.0,0.0,0.0,0.0,0.0,0.0,0.0,0.0,0.0,0.0,-0.665,-0.665,-0.6918,-0.7095,-0.7095,-0.7095,-0.7095,-0.7095,-0.7095,-0.7095,-0.7095,-0.7095,-0.7146,-0.7302,-0.7309,-0.736,-0.7472,-0.7475,-0.7495,-0.7536,-0.7536,-0.7556,-0.76,-0.76,-0.76,-0.7597,-0.7556,-0.7536,-0.7536,-0.7492,-0.7411,-0.7309,-0.7309,-0.7241,-0.7092,-0.7055,-0.7038,-0.7021,-0.6876,-0.6797,-0.6678,-0.6566,-0.6643,-0.6824,-0.6754,-0.7403,-0.8389,-0.9405,-1.0228,-1.1013,-1.204,-1.2305,-1.2305,-1.2305,-1.2305,-1.2305,-1.2305,-1.2305,-1.2305,-1.2305,-1.2305,-1.2305,-1.2305,-1.2305,-1.2305,-1.2305,-1.2305,-1.2305,-1.2305,-1.2305,0.0,-1.2305,-1.2305,-1.2305,-1.2305,-1.2305,-1.2305,-1.2305,-1.2305,-1.2305,-1.2305,-1.2305,-1.2305,-1.2305,-1.2225,-1.2084,-1.1906,-1.1323,-1.0955,0.0,0.0,0.0,0.0,0.0,0.0,0.0,0.0,0.0,0.0,0.0,0.0,0.0,0.0,0.0,0.0,0.0,0.0,0.0,0.0,0.0,0.0,-0.5888,-0.7095,-0.7095,-0.7095,-0.7095,-0.7095,-0.7095,-0.7095,-0.7095,-0.7156,-0.7238,-0.7238,-0.7295,-0.7373,-0.7461,-0.7465,-0.7509,-0.7597,-0.76,-0.7628,-0.7689,-0.7689,-0.7723,-0.7784,-0.7784,-0.7784,-0.778,-0.7719,-0.7689,-0.7685,-0.7628,-0.755,-0.7465,-0.7465,-0.7377,0.0,0.0,0.0,0.0,0.0,-0.6879,-0.6783,-0.6695,-0.6861,-0.7128,-0.7038,-0.7653,-0.8618,-0.9631,-1.034,-1.1013,-1.204,-1.2305,-1.2305,-1.2305,-1.2305,-1.2305,-1.2305,-1.2305,-1.2305,-1.2305,-1.2305,-1.2305,-1.2305,-1.2305,0.0,-1.2305,-1.2305,-1.2305,-1.2305,-1.2305,-1.2305,-1.2305,-1.2305,-1.2305,-1.2305,-1.2305,-1.2305,-1.2305,-1.2305,0.0,0.0,0.0,-1.2305,-1.2305,-1.2305,0.0,0.0,0.0,-1.1236,-1.0995,0.0,0.0,0.0,-1.0593,-1.0593,0.0,0.0,0.0,0.0,0.0,0.0,0.0,0.0,0.0,0.0,0.0,0.0,0.0,0.0,0.0,0.0,-0.634,-0.7095,-0.7095,-0.7109,-0.7115,-0.7098,-0.7112,-0.7122,-0.7122,-0.7305,-0.7443,-0.7443,-0.7522,-0.7607,-0.7624,0.0,0.0,0.0,0.0,-0.7709,-0.7834,-0.7838,-0.7906,-0.7988,-0.7988,-0.7988,-0.7985,-0.7899,-0.7838,-0.7831,-0.7702,-0.7641,-0.7624,-0.7624,-0.7526,-0.7402,-0.72,-0.7095,-0.7095,-0.7095,-0.7018,-0.6906,-0.6889,0.0,0.0,-0.7978,-0.8597,-0.9516,-1.0496,-1.0901,-1.1168,-1.204,-1.2305,-1.2305,-1.2305,-1.2305,-1.2305,-1.2305,-1.2305,-1.2305,-1.2305,-1.2305,-1.2305,-1.2305,-1.2305,-1.2305,-1.2305,-1.2305,-1.2305,-1.2305,-1.2305,-1.2305,-1.2305,-1.2305,-1.2305,-1.2305,0.0,0.0,-1.2305,-1.2305,-1.2305,-1.2305,-1.2305,-1.2305,-1.2305,-1.2305,-1.2178,-1.196,-1.1926,-1.1651,-1.1089,-1.1056,-1.0928,-1.064,-1.0606,-1.0593,0.0,0.0,0.0,0.0,0.0,0.0,0.0,0.0,0.0,0.0,0.0,0.0,0.0,0.0,0.0,-0.5359,-0.634,-0.7095,-0.7095,-0.7248,-0.7282,-0.7109,-0.7251,-0.7326,-0.7326,-0.7465,-0.7556,-0.7556,-0.7584,-0.7648,-0.7763,-0.777,-0.7828,-0.7901,-0.7904,-0.7917,-0.7944,-0.7944,-0.7961,-0.7988,0.0,0.0,-0.7988,-0.7961,-0.7944,-0.7944,-0.7917,-0.7885,-0.777,-0.777,-0.7611,-0.7402,-0.72,-0.7095,-0.7095,-0.7095,-0.7078,-0.7041,-0.6927,-0.6973,-0.7213,-0.7789,-0.8645,-0.963,-1.0547,-1.1354,0.0,-1.2261,-1.2305,-1.2305,-1.2305,-1.2305,-1.2305,-1.2305,-1.2305,-1.2305,-1.2305,-1.2305,-1.2305,-1.2305,-1.2305,-1.2305,-1.2305,-1.2305,-1.2305,-1.2305,-1.2305,-1.2305,-1.2305,-1.2305,-1.2305,-1.2305,-1.2305,-1.2305,-1.2305,-1.2305,-1.2305,-1.2305,-1.2305,-1.2305,-1.2305,-1.2305,-1.2278,-1.2218,-1.2027,-1.1852,-1.1732,-1.1456,-1.1189,-1.0935,-1.07,-1.0593,0.0,0.0,0.0,0.0,0.0,0.0,0.0,0.0,0.0,0.0,0.0,-0.3081,0.0,0.0,-0.5581,-0.616,-0.6738,-0.7122,-0.7244,-0.7322,-0.7343,-0.7265,-0.739,-0.7485,-0.7485,-0.7617,-0.7706,-0.7706,-0.7777,-0.7851,-0.7874,-0.7877,-0.7911,-0.7988,-0.7988,-0.7988,-0.7988,-0.7988,-0.7988,-0.7988,-0.7988,-0.7988,-0.7988,-0.7988,-0.7988,-0.7988,-0.7988,-0.7944,-0.787,-0.7841,-0.7726,-0.7567,-0.7343,-0.7207,-0.7095,-0.7095,-0.7095,-0.7085,-0.7014,-0.7285,-0.7828,-0.8795,-0.9637,-1.0451,-1.1481,-1.2039,-1.2305,-1.2305,-1.2305,-1.2305,-1.2305,-1.2305,-1.2305,-1.2305,-1.2305,-1.2305,-1.2305,-1.2305,-1.2305,-1.2305,-1.2305,-1.2305,-1.2305,-1.2305,-1.2305,-1.2305,-1.2305,-1.2305,-1.2305,-1.2305,-1.2305,-1.2305,-1.2305,-1.2305,-1.2305,-1.2305,-1.2305,-1.2305,-1.2305,-1.2305,-1.2305,-1.2305,-1.2305,-1.2305,-1.2164,-1.2011,-1.1906,-1.1724,-1.1496,-1.1202,-1.0915,-1.0727,0.0,0.0,0.0,0.0,0.0,0.0,0.0,0.0,-0.2252,-0.2533,-0.3345,-0.4381,-0.5605,-0.5832,-0.6146,-0.7048,-0.7186,-0.7272,-0.7397,-0.7441,-0.7458,-0.7458,-0.7567,-0.7641,-0.7641,-0.777,-0.7855,-0.7855,-0.7921,-0.7988,-0.7988,-0.7988,-0.7988,-0.7988,-0.7988,-0.7988,-0.7988,-0.7988,-0.7988,-0.7988,-0.7988,-0.7988,-0.7988,-0.7988,-0.7988,-0.7988,-0.7988,-0.7988,-0.7982,-0.7906,-0.7838,-0.7787,-0.755,-0.7346,-0.7136,-0.7105,-0.7095,-0.7095,-0.7095,-0.7581,-0.8316,-0.9461,-1.0121,-1.0757,-1.203,-1.2263,-1.2068,-1.2244,-1.2305,-1.2305,-1.2305,-1.2305,-1.2305,-1.2305,-1.2305,-1.2305,-1.2305,-1.2305,-1.2305,-1.2305,-1.2305,-1.2305,-1.2305,-1.2305,-1.2305,-1.2305,-1.2305,-1.2305,-1.2305,-1.2305,-1.2305,-1.2305,-1.2305,-1.2305,-1.2305,-1.2305,-1.2305,-1.2305,-1.2305,-1.2305,-1.2305,-1.2305,-1.2305,-1.2305,-1.2305,-1.2184,-1.1986,-1.1986,-1.1804,-1.151,-1.1276,-1.1008,0.0,0.0,0.0,0.0,-0.0807,-0.162,0.0,0.0,-0.3921,-0.5116,-0.5462,-0.5935,-0.7123,-0.7359,-0.7406,-0.75,-0.755,-0.7553,-0.757,-0.7682,-0.7763,-0.7763,-0.7777,-0.7787,-0.7787,-0.7877,-0.7965,-0.7965,-0.7978,-0.7988,-0.7988,-0.7988,-0.7988,-0.7988,-0.7988,-0.7988,-0.7988,-0.7988,-0.7988,-0.7988,-0.7988,-0.7988,-0.7988,-0.7988,-0.7988,-0.7988,-0.7988,-0.7988,-0.7988,-0.7971,-0.7884,-0.7807,-0.7773,-0.759,-0.7329,-0.7146,-0.7095,-0.7095,-0.7095,-0.7173,-0.7399,-0.8325,-0.8624,-0.9022,-1.0684,-1.1198,-1.1318,-1.2068,-1.2305,-1.2305,-1.2305,-1.2305,-1.2305,-1.2305,-1.2305,-1.2305,-1.2305,-1.2305,-1.2305,-1.2305,-1.2305,-1.2305,-1.2305,-1.2305,-1.2305,-1.2305,-1.2305,-1.2305,-1.2305,-1.2305,-1.2305,-1.2305,-1.2305,-1.2305,-1.2305,-1.2305,-1.2305,-1.2305,-1.2305,-1.2305,-1.2305,-1.2305,-1.2305,-1.2305,-1.2305,-1.2285,-1.2258,-1.2258,-1.2104,-1.1852,-1.1819,-1.1511,0.0,0.0,0.0,0.0,-0.0967,-0.1954,-0.197,-0.3516,-0.5118,-0.568,-0.6355,-0.7023,-0.7503,-0.76,-0.76,0.0,-0.76,-0.7628,-0.7709,-0.7773,-0.7845,-0.7884,-0.7894,-0.7894,-0.7894,-0.7951,-0.7988,-0.7988,-0.7988,-0.7988,-0.7988,-0.7988,-0.7988,-0.7988,-0.8126,-0.8174,-0.8174,-0.8255,-0.8255,-0.8174,-0.8174,-0.8126,-0.7988,-0.7988,-0.7988,-0.7988,-0.7988,-0.7988,-0.7988,-0.7988,-0.7951,-0.7887,-0.7845,-0.7736,-0.7597,-0.7363,-0.7217,-0.7095,-0.7095,-0.7095,-0.7261,-0.8324,-0.8571,-0.8666,-1.01,-1.0738,-1.1076,-1.1429,-1.1902,-1.2305,-1.2305,-1.2305,-1.2305,-1.2305,-1.2305,-1.2305,-1.2305,-1.2305,-1.2305,-1.2305,-1.2305,-1.2305,-1.2305,-1.2305,-1.2305,-1.2305,-1.2305,-1.2305,-1.2305,-1.2305,-1.2305,-1.2305,-1.2305,-1.2305,-1.2305,-1.2305,-1.2305,-1.2305,-1.2305,-1.2305,-1.2305,-1.2305,-1.2305,-1.2305,-1.2305,-1.2305,-1.2305,-1.2305,-1.2238,-1.2118,-1.1986,-1.1772,0.0,0.0,0.0,-0.0561,-0.1788,-0.3045,-0.3111,-0.4782,-0.6365,-0.6401,-0.7088,-0.7723,-0.7723,-0.7723,-0.7723,-0.7723,-0.7723,-0.7756,-0.7862,-0.7875,-0.7916,-0.7975,-0.7988,-0.7988,-0.7988,-0.7988,-0.7988,-0.7988,-0.7988,-0.8008,-0.8102,-0.8102,-0.8119,-0.816,-0.8269,-0.8381,-0.8381,-0.8431,-0.8431,-0.8381,-0.834,-0.8211,-0.8102,-0.8008,-0.7988,-0.7988,-0.7988,-0.7988,-0.7988,-0.7988,-0.7988,-0.7978,-0.787,-0.7848,-0.778,-0.7529,-0.7336,-0.7197,-0.7109,-0.7095,-0.7228,-0.8101,-0.8237,-0.8294,-0.9756,-1.0463,-1.0886,-1.1373,-1.1929,-1.2405,-1.2325,-1.2305,-1.2305,-1.2305,-1.2305,-1.2305,-1.2305,-1.2305,-1.2305,-1.2305,-1.2305,-1.2305,-1.2305,-1.2305,-1.2305,-1.2305,-1.2305,-1.2305,-1.2305,-1.2305,-1.2305,-1.2305,-1.2305,-1.2305,-1.2305,-1.2305,-1.2305,-1.2305,-1.2305,-1.2305,-1.2305,-1.2305,-1.2305,-1.2305,-1.2305,-1.2305,-1.2305,-1.2305,-1.2305,-1.2298,-1.2084,-1.198,0.0,0.0,-0.1952,-0.195,-0.3843,-0.5718,-0.583,-0.6831,-0.7796,-0.7895,-0.7978,-0.7975,-0.7975,-0.7975,-0.7975,-0.7975,-0.7975,-0.7978,-0.7982,-0.7982,-0.7985,-0.7988,-0.7988,-0.7988,0.0,-0.7988,-0.7988,-0.7988,-0.7988,-0.8106,-0.8255,-0.8313,-0.8326,-0.8465,-0.8472,-0.8476,-0.8476,-0.8479,-0.8479,-0.8472,-0.8388,-0.832,-0.831,-0.8109,-0.7988,-0.7988,-0.7988,-0.7988,-0.7988,-0.7988,-0.7988,-0.7988,-0.7985,-0.7891,-0.7794,-0.7648,-0.7495,-0.7343,-0.7146,-0.7095,-0.7095,-0.7139,-0.7136,-0.7537,-0.9587,-1.0188,-1.0584,-1.2272,-1.2777,-1.2703,-1.2378,-1.2305,-1.2305,-1.2305,-1.2305,-1.2305,-1.2305,-1.2305,-1.2305,-1.2305,-1.2305,-1.2305,-1.2305,-1.2305,-1.2305,-1.2305,-1.2305,-1.2305,-1.2305,-1.2305,-1.2305,-1.2305,-1.2305,-1.2305,-1.2305,-1.2305,-1.2305,-1.2305,-1.2305,-1.2305,-1.2305,-1.2305,-1.2305,-1.2305,-1.2305,-1.2305,-1.2305,-1.2305,-1.2305,-1.2305,-1.2291,-1.2138,0.0,0.0,-0.0888,-0.1799,-0.3322,-0.4835,-0.5765,-0.7017,-0.7928,-0.7978,-0.7285,-0.6933,-0.7839,-0.7285,-0.6983,-0.7839,-0.7988,-0.7988,-0.7988,-0.7988,-0.7988,-0.7988,-0.7988,0.0,0.0,0.0,0.0,-0.7988,-0.8136,-0.8214,-0.832,-0.836,-0.8431,-0.8479,-0.8581,-0.8632,-0.8632,-0.8733,-0.8733,-0.8632,-0.8387,-0.8323,-0.8316,-0.8109,-0.7988,-0.7988,-0.7988,-0.7988,-0.7988,-0.7988,-0.7988,-0.7988,-0.7988,-0.7958,-0.7894,-0.7794,-0.7648,-0.7489,-0.7183,-0.7095,-0.7095,-0.7095,-0.7621,-0.844,-0.9113,-1.0271,-1.1423,-1.1814,-1.2337,-1.2717,-1.2378,-1.2305,-1.2305,-1.2305,-1.2305,-1.2305,-1.2305,-1.2305,-1.2305,-1.2305,-1.2305,-1.2305,-1.2305,-1.2305,-1.2305,-1.2305,-1.2305,-1.2305,-1.2305,-1.2305,-1.2305,-1.2305,-1.2305,-1.2305,-1.2305,-1.2305,-1.2305,-1.2305,-1.2305,-1.2305,-1.2305,-1.2305,-1.2305,-1.2305,-1.2305,-1.2305,-1.2305,-1.2305,-1.2305,-1.2305,-1.2305,-1.2245,0.0,-0.0347,-0.1055,-0.2378,-0.3733,-0.507,-0.6429,-0.7385,-0.7988,-0.7988,-0.6933,-0.6279,-0.7135,-0.6581,-0.6279,-0.7135,-0.7686,-0.7988,-0.7988,-0.7988,-0.7988,-0.7988,-0.7988,-0.7988,0.0,0.0,0.0,-0.8116,-0.8214,-0.8316,-0.8421,-0.8513,-0.8587,-0.8645,-0.874,-0.8791,-0.8791,-0.8834,-0.8807,-0.8706,-0.8462,-0.8371,-0.8316,-0.8109,-0.7988,-0.7988,-0.7988,-0.7988,-0.7988,-0.7988,-0.7988,-0.7988,-0.7988,-0.7988,-0.7971,-0.7868,-0.7723,-0.7563,-0.7309,-0.7142,-0.7095,-0.7095,-0.7621,-0.8408,-0.9235,-1.0129,-1.1025,-1.1985,-1.2284,-1.2357,-1.2457,-1.2385,-1.2305,-1.2305,-1.2305,-1.2305,-1.2305,-1.2305,-1.2305,-1.2305,-1.2305,-1.2305,-1.2305,-1.2305,-1.2305,-1.2305,-1.2305,-1.2305,-1.2305,-1.2305,-1.2305,-1.2305,-1.2305,-1.2305,-1.2305,-1.2305,-1.2305,-1.2305,-1.2305,-1.2305,-1.2305,-1.2305,-1.2305,-1.2305,-1.2305,-1.2305,-1.2305,-1.2305,-1.2305,-1.2305,-1.2305,-1.2305,0.0,-0.0907,-0.2213,-0.3667,-0.497,-0.6279,-0.7686,-0.7988,-0.7988,-0.7889,-0.683,-0.5927,0.0,0.0,-0.5929,-0.6079,-0.7182,-0.7988,-0.7988,-0.7988,-0.7988,0.0,0.0,0.0,0.0,0.0,0.0,-0.832,0.0,-0.8408,-0.8696,-0.8716,-0.8791,-0.8878,-0.8885,-0.8885,-0.8885,-0.8885,-0.8807,-0.871,-0.8557,-0.8408,-0.8316,-0.8109,-0.7988,-0.7988,-0.7988,-0.7988,-0.7988,-0.7988,-0.7988,-0.7988,-0.7988,-0.7988,-0.7971,-0.7875,-0.7729,-0.758,-0.7434,-0.7278,-0.7095,-0.7095,-0.7139,-0.7617,-0.9831,-0.9797,-0.9625,-1.2669,-1.2553,-1.171,-1.2588,-1.2563,-1.2305,-1.2305,-1.2305,-1.2305,-1.2305,-1.2305,-1.2305,-1.2305,-1.2305,-1.2305,-1.2305,-1.2305,-1.2305,-1.2305,-1.2305,-1.2305,-1.2305,-1.2305,-1.2305,-1.2305,-1.2305,-1.2305,-1.2305,-1.2305,-1.2305,-1.2305,-1.2305,-1.2305,-1.2305,-1.2305,-1.2305,-1.2305,-1.2305,-1.2305,-1.2305,-1.2305,-1.2305,-1.2305,-1.2305,-1.2305,0.0,-0.0252,-0.1058,-0.3416,-0.4268,-0.512,-0.7484,-0.7988,-0.7736,-0.6731,-0.5422,-0.482,0.0,0.0,0.0,-0.7182,-0.7786,0.0,-0.7988,-0.7988,0.0,-0.7988,0.0,-0.7988,-0.7988,-0.7988,0.0,0.0,-0.8428,-0.8509,-0.8699,-0.8818,-0.8844,-0.8881,-0.8885,-0.8885,-0.8885,-0.8885,-0.8807,-0.871,-0.8557,-0.8408,-0.8316,-0.8109,-0.7988,-0.7988,-0.7988,-0.7988,-0.7988,-0.7988,-0.7988,-0.7988,-0.7988,-0.7988,-0.7985,-0.7944,-0.7821,-0.7594,-0.7556,-0.7363,-0.7095,-0.7095,-0.7709,-0.854,-0.9148,-0.971,-1.0479,-1.1939,-1.1933,-1.171,-1.2588,-1.2563,-1.2305,-1.2305,-1.2305,-1.2305,-1.2305,-1.2305,-1.2305,-1.2305,-1.2305,-1.2305,-1.2305,-1.2305,-1.2305,-1.2305,-1.2305,-1.2305,-1.2305,-1.2305,-1.2305,-1.2305,-1.2305,-1.2305,-1.2305,-1.2305,-1.2305,-1.2305,-1.2305,-1.2305,-1.2305,-1.2305,-1.2305,-1.2305,-1.2305,-1.2305,-1.2305,-1.2305,-1.2305,-1.2305,-1.2305,-1.2305,0.0,0.0,-0.0656,-0.3316,-0.4016,-0.4568,-0.6628,-0.7135,-0.6731,-0.5422,-0.4067,0.0,0.0,0.0,0.0,0.0,0.0,0.0,-0.7988,-0.7988,-0.7988,0.0,-0.7988,0.0,-0.7988,-0.7988,-0.8136,0.0,-0.8445,-0.8577,-0.8798,-0.8838,-0.8885,-0.8885,-0.8885,-0.8885,-0.8885,-0.8817,-0.8794,-0.871,-0.8492,-0.8347,-0.8316,-0.8109,-0.7988,-0.7988,0.0,-0.7988,-0.7988,-0.7988,-0.7988,-0.7988,-0.7988,-0.7988,-0.7988,-0.7988,-0.7851,-0.76,-0.76,-0.7397,-0.7095,-0.7095,-0.7577,-0.8189,-0.8759,-0.9366,-1.0154,-1.1646,-1.1805,-1.1734,-1.2713,-1.2625,-1.2305,-1.2305,-1.2305,-1.2305,-1.2305,-1.2305,-1.2305,-1.2305,-1.2305,-1.2305,-1.2305,-1.2305,-1.2305,-1.2305,-1.2305,-1.2305,-1.2305,-1.2305,-1.2305,-1.2305,-1.2305,-1.2305,-1.2305,-1.2305,-1.2305,-1.2305,-1.2305,-1.2305,-1.2305,-1.2305,-1.2305,-1.2305,-1.2305,-1.2305,-1.2305,-1.2305,-1.2305,-1.2305,-1.2305,-1.2305,0.0,0.0,-0.0605,-0.3115,-0.3715,-0.4067,-0.5425,-0.5727,-0.5372,-0.4017,0.0,-0.2013,-0.2013,-0.3115,-0.4066,-0.4218,0.0,-0.7988,-0.7988,-0.7988,-0.7988,-0.7988,-0.7988,-0.7988,-0.7988,-0.7988,-0.8102,-0.831,-0.8384,-0.8587,-0.8838,-0.8871,-0.8885,-0.8885,-0.8865,-0.8854,-0.8854,-0.8757,-0.8669,-0.8648,-0.8391,-0.831,-0.8235,-0.8099,-0.7988,-0.7988,-0.7988,0.0,-0.7988,-0.7988,-0.7988,-0.7988,-0.7988,-0.7988,-0.7988,-0.7988,-0.7851,-0.76,-0.76,-0.7397,-0.7095,-0.7095,-0.7095,-0.7316,-0.8364,-0.8759,-0.9366,-1.1466,-1.1815,-1.1812,-1.2889,-1.2792,-1.2351,-1.2311,-1.2305,-1.2305,-1.2305,-1.2305,-1.2305,-1.2305,-1.2305,-1.2305,-1.2305,-1.2305,-1.2305,-1.2305,-1.2305,-1.2305,-1.2305,-1.2305,-1.2305,-1.2305,-1.2305,-1.2305,-1.2305,-1.2305,-1.2305,-1.2305,-1.2305,-1.2305,-1.2305,-1.2305,-1.2305,-1.2305,-1.2305,-1.2305,-1.2305,-1.2305,-1.2305,-1.2305,-1.2305,-1.2305,0.0,0.0,-0.0353,-0.1962,-0.2364,-0.2715,-0.4017,-0.4368,0.0,0.0,-0.2163,-0.2013,-0.2013,-0.3115,0.0,-0.5475,0.0,0.0,0.0,0.0,-0.7988,0.0,0.0,0.0,0.0,0.0,0.0,0.0,0.0,-0.8435,-0.8733,-0.8814,-0.8885,-0.8885,-0.8815,-0.875,-0.875,-0.8598,-0.8462,-0.8347,-0.8347,-0.8204,-0.8029,-0.8002,-0.7988,-0.7988,-0.7988,0.0,-0.7988,-0.7988,-0.7988,-0.7988,-0.7988,-0.7988,-0.7988,-0.7988,-0.7851,-0.76,-0.76,-0.7397,-0.7095,-0.7095,-0.7095,-0.7139,-0.7356,-0.8105,-0.9192,-1.0524,-1.1348,-1.2045,-1.2942,-1.2939,-1.2643,-1.2365,-1.2305,-1.2305,-1.2305,-1.2305,-1.2305,-1.2305,-1.2305,-1.2305,-1.2305,-1.2305,-1.2305,-1.2305,-1.2305,-1.2305,-1.2305,-1.2305,-1.2305,-1.2305,-1.2305,-1.2305,-1.2305,-1.2305,-1.2305,-1.2305,-1.2305,-1.2305,-1.2305,-1.2305,-1.2305,-1.2305,-1.2305,-1.2305,-1.2305,-1.2305,-1.2305,-1.2305,-1.2305,-1.2305,0.0,0.0,-0.0303,-0.1661,-0.2013,-0.2163,-0.2815,0.0,0.0,0.0,-0.0958,-0.0958,-0.0958,0.0,0.0,0.0,0.0,0.0,0.0,0.0,0.0,0.0,0.0,0.0,0.0,0.0,0.0,0.0,0.0,-0.8397,-0.8696,-0.8781,-0.8784,-0.8703,-0.8628,-0.8591,-0.8591,-0.8445,-0.8388,-0.832,-0.8187,-0.8109,-0.7988,-0.7988,-0.7988,-0.7988,-0.7988,0.0,-0.7988,-0.7988,-0.7988,-0.7988,-0.7988,-0.7988,-0.7988,-0.7988,-0.7851,-0.76,-0.76,-0.7397,-0.7095,-0.7095,-0.7095,-0.7095,-0.7095,-0.7929,-0.9148,-1.0265,-1.1212,-1.2099,-1.2955,-1.3018,-1.271,-1.2371,-1.2305,-1.2305,-1.2305,-1.2305,-1.2305,-1.2305,-1.2305,-1.2305,-1.2305,-1.2305,-1.2305,-1.2305,-1.2305,-1.2305,-1.2305,-1.2305,-1.2305,-1.2305,-1.2305,-1.2305,-1.2305,-1.2305,-1.2305,-1.2305,-1.2305,-1.2305,-1.2305,-1.2305,-1.2305,-1.2305,-1.2305,-1.2305,-1.2305,-1.2305,-1.2305,-1.2305,-1.2305,-1.2305,0.0,0.0,-0.0252,-0.131,-0.1561,-0.1561,-0.1561,-0.1561,0.0,0.0,0.0,0.0,0.0,0.0,-0.2013,0.0,0.0,0.0,0.0,0.0,0.0,0.0,0.0,0.0,0.0,0.0,0.0,0.0,0.0,0.0,-0.8648,-0.8662,-0.8608,-0.8486,-0.8452,-0.8435,-0.8435,-0.8292,-0.8221,-0.8218,-0.8099,-0.7988,-0.7988,-0.7988,-0.7988,-0.7988,-0.7988,0.0,0.0,-0.7988,-0.7988,-0.7988,-0.7988,-0.7988,-0.7985,-0.7955,-0.7824,-0.7594,-0.7563,-0.737,-0.7095,-0.7095,-0.7095,-0.7095,-0.7095,-0.7929,-0.9148,-1.0265,-1.1293,-1.217,-1.2968,-1.3026,-1.279,-1.2392,-1.2305,-1.2305,-1.2305,-1.2305,-1.2305,-1.2305,-1.2305,-1.2305,-1.2305,-1.2305,-1.2305,-1.2305,-1.2305,-1.2305,-1.2305,-1.2305,-1.2305,-1.2305,-1.2305,-1.2305,-1.2305,-1.2305,-1.2305,-1.2305,-1.2305,-1.2305,-1.2305,-1.2305,-1.2305,-1.2305,-1.2305,-1.2305,-1.2305,-1.2305,-1.2305,-1.2305,-1.2305,-1.2305,0.0,0.0,-0.0051,-0.0151,-0.0202,-0.0202,-0.0202,0.0,0.0,-0.0051,0.0,0.0,0.0,-0.1109,-0.2013,0.0,0.0,-0.4618,0.0,0.0,0.0,0.0,0.0,0.0,0.0,0.0,0.0,0.0,0.0,0.0,-0.8496,-0.8503,-0.8496,-0.8482,-0.8357,-0.834,-0.834,-0.8136,-0.8012,-0.8012,-0.7995,-0.7988,-0.7988,-0.7988,-0.7988,-0.7988,-0.7988,0.0,0.0,-0.7988,-0.7988,-0.7988,-0.7988,-0.7988,-0.7971,-0.7882,-0.7733,-0.758,-0.7441,-0.7282,-0.7095,-0.7095,-0.7095,-0.7095,-0.7095,-0.7929,-0.9148,-1.0265,-1.1413,-1.2391,-1.3026,-1.3186,-1.3019,-1.2438,-1.2305,-1.2305,-1.2305,-1.2305,-1.2305,-1.2305,-1.2305,-1.2305,-1.2305,-1.2305,-1.2305,-1.2305,-1.2305,-1.2305,-1.2305,-1.2305,-1.2305,-1.2305,-1.2305,-1.2305,-1.2305,-1.2305,-1.2305,-1.2305,-1.2305,-1.2305,-1.2305,-1.2305,-1.2305,-1.2305,-1.2305,-1.2305,-1.2305,-1.2305,-1.2305,-1.2305,-1.2305,-1.2305,0.0,0.0,0.0,0.0,0.0,0.0,0.0,0.0,0.0,0.0,0.0,0.0,0.0,-0.0454,-0.0807,-0.0807,-0.1913,0.0,0.0,0.0,0.0,0.0,0.0,0.0,0.0,0.0,0.0,0.0,0.0,0.0,-0.8214,-0.8303,-0.8313,-0.8218,-0.816,-0.8133,-0.8133,-0.8019,-0.7988,-0.7988,-0.7988,-0.7988,-0.7988,-0.7988,-0.7988,-0.7988,-0.7988,0.0,0.0,-0.7988,-0.7988,-0.7988,-0.7988,-0.7934,-0.7896,-0.7834,-0.7662,-0.7455,-0.7439,-0.7272,-0.7095,-0.7095,-0.7095,-0.7095,-0.7095,-0.7448,-0.8189,-1.0091,-1.0907,-1.1575,-1.2866,-1.2939,-1.2605,-1.2358,-1.2305,-1.2305,-1.2305,-1.2305,-1.2305,-1.2305,-1.2305,-1.2305,-1.2305,-1.2305,-1.2305,-1.2305,-1.2305,-1.2305,-1.2305,-1.2305,-1.2305,-1.2305,-1.2305,-1.2305,-1.2305,-1.2305,-1.2305,-1.2305,-1.2305,-1.2305,-1.2305,-1.2305,-1.2305,-1.2305,-1.2305,-1.2305,-1.2305,-1.2305,-1.2305,-1.2305,-1.2305,-1.2305,0.0,0.0,0.0,0.0,0.0,0.0,0.0,0.0,0.0,0.0,0.0,0.0,0.0,0.0,0.0,0.0,-0.0807,-0.1561,0.0,0.0,0.0,0.0,0.0,0.0,0.0,0.0,0.0,0.0,0.0,0.0,0.0,-0.8143,-0.815,-0.7992,-0.7988,-0.7988,-0.7988,-0.7988,-0.7988,-0.7988,-0.7988,-0.7988,-0.7988,-0.7988,-0.7988,-0.7988,-0.7988,0.0,0.0,-0.7988,-0.7988,-0.7985,-0.7941,-0.7906,-0.7801,-0.7712,-0.755,-0.7409,-0.7319,-0.7231,-0.7095,-0.7095,-0.7095,-0.7095,-0.7095,-0.7095,-0.7529,-0.9531,-1.0472,-1.123,-1.2781,-1.2759,-1.2305,-1.2305,-1.2305,-1.2305,-1.2305,-1.2305,-1.2305,-1.2305,-1.2305,-1.2305,-1.2305,-1.2305,-1.2305,-1.2305,-1.2305,-1.2305,-1.2305,-1.2305,-1.2305,-1.2305,-1.2305,-1.2305,-1.2305,-1.2305,-1.2305,-1.2305,-1.2305,-1.2305,-1.2305,-1.2305,-1.2305,-1.2305,-1.2305,-1.2305,-1.2305,-1.2305,-1.2305,-1.2305,-1.2305,-1.2305,0.0,0.0,0.0,0.0,0.0,0.0,0.0,0.0,0.0,0.0,0.0,0.0,0.0,0.0,0.0,0.0,0.0,0.0,0.0,0.0,0.0,0.0,0.0,0.0,0.0,0.0,0.0,0.0,0.0,0.0,0.0,-0.7992,-0.7992,-0.7988,-0.7988,-0.7988,-0.7988,-0.7988,-0.7988,-0.7988,-0.7988,-0.7988,-0.7988,-0.7988,-0.7988,0.0,0.0,0.0,0.0,-0.7988,-0.7988,-0.7975,-0.7872,-0.7814,-0.7777,-0.7485,-0.7419,-0.735,-0.7149,-0.7098,-0.7095,-0.7095,-0.7095,-0.7095,-0.7095,-0.7095,-0.7356,-0.8584,-1.0171,-1.1736,-1.2883,-1.2759,-1.2305,-1.2305,-1.2305,-1.2305,-1.2305,-1.2305,-1.2305,-1.2305,-1.2305,-1.2305,-1.2305,-1.2305,-1.2305,-1.2305,-1.2305,-1.2305,-1.2305,-1.2305,-1.2305,-1.2305,-1.2305,-1.2305,-1.2305,-1.2305,-1.2305,-1.2305,-1.2305,-1.2305,-1.2305,-1.2305,-1.2305,-1.2305,-1.2305,-1.2305,-1.2305,-1.2305,-1.2305,-1.2305,-1.2305,-1.2305,0.0,0.0,0.0,0.0,0.0,0.0,0.0,0.0,0.0,0.0,0.0,0.0,0.0,0.0,0.0,0.0,0.0,0.0,0.0,0.0,0.0,0.0,0.0,0.0,0.0,0.0,0.0,0.0,0.0,0.0,0.0,-0.7988,-0.7988,-0.7988,-0.7988,-0.7988,-0.7988,-0.7988,-0.7988,-0.7988,-0.7988,-0.7988,-0.7988,-0.7988,-0.7988,0.0,0.0,0.0,0.0,-0.7877,-0.7882,-0.7868,-0.7723,-0.7604,-0.7499,-0.7453,-0.7305,-0.7207,-0.7112,-0.7095,-0.7095,-0.7095,-0.7095,-0.7272,-0.8057,-0.8321,-0.8755,-1.0692,-1.1928,-1.2757,-1.3127,-1.2759,-1.2305,-1.2305,-1.2305,-1.2305,-1.2305,-1.2305,-1.2305,-1.2305,-1.2305,-1.2305,-1.2305,-1.2305,-1.2305,-1.2305,-1.2305,-1.2305,-1.2305,-1.2305,-1.2305,-1.2305,-1.2305,-1.2305,-1.2305,-1.2305,-1.2305,-1.2305,-1.2305,-1.2305,-1.2305,-1.2305,-1.2305,-1.2305,-1.2305,-1.2305,-1.2305,-1.2305,-1.2305,-1.2305,-1.2305,-1.2305,0.0,0.0,0.0,0.0,0.0,0.0,0.0,0.0,0.0,0.0,0.0,0.0,0.0,0.0,0.0,0.0,0.0,0.0,0.0,0.0,0.0,0.0,0.0,0.0,0.0,0.0,0.0,0.0,0.0,0.0,0.0,-0.7988,-0.7988,-0.7988,-0.7988,-0.7988,-0.7988,-0.7988,-0.7988,-0.7988,-0.7988,-0.7988,-0.7988,-0.7988,-0.7958,0.0,0.0,0.0,0.0,-0.777,-0.7733,-0.7716,-0.757,-0.7455,-0.7409,-0.7305,-0.7224,-0.7095,-0.7095,-0.7095,-0.7095,-0.7095,-0.7095,-0.7401,-0.9056,-0.9536,-0.9904,-1.166,-1.2351,-1.2646,-1.2942,-1.2672,-1.2305,-1.2305,-1.2305,-1.2305,-1.2305,-1.2305,-1.2305,-1.2305,-1.2305,-1.2305,-1.2305,-1.2305,-1.2305,-1.2305,-1.2305,-1.2305,-1.2305,-1.2305,-1.2305,-1.2305,-1.2305,-1.2305,-1.2305,-1.2305,-1.2305,-1.2305,-1.2305,-1.2305,-1.2305,-1.2305,-1.2305,-1.2305,-1.2305,-1.2305,-1.2305,-1.2305,-1.2305,-1.2305,-1.2305,-1.2245,0.0,0.0,0.0,0.0,0.0,0.0,0.0,0.0,0.0,0.0,0.0,0.0,0.0,0.0,0.0,0.0,0.0,0.0,0.0,0.0,0.0,0.0,0.0,0.0,0.0,0.0,0.0,0.0,0.0,0.0,0.0,-0.7988,-0.7988,-0.7988,-0.7988,-0.7988,-0.7988,-0.7988,-0.7988,-0.7988,-0.7978,-0.7975,-0.7975,-0.7965,-0.788,0.0,0.0,0.0,0.0,-0.7587,-0.7584,-0.7567,-0.7414,-0.7402,-0.7336,-0.7149,-0.7095,-0.7095,-0.7095,-0.7095,-0.7095,-0.7095,-0.7139,-0.7621,-0.9831,-1.0524,-1.0823,-1.1767,-1.1845,-1.179,-1.2582,-1.2563,-1.2305,-1.2305,-1.2305,-1.2305,-1.2305,-1.2305,-1.2305,-1.2305,-1.2305,-1.2305,-1.2305,-1.2305,-1.2305,-1.2305,-1.2305,-1.2305,-1.2305,-1.2285,-1.2271,-1.2271,-1.2251,-1.2245,-1.2271,-1.2291,-1.2305,-1.2305,-1.2305,-1.2305,-1.2305,-1.2305,-1.2305,-1.2305,-1.2305,-1.2305,-1.2305,-1.2305,-1.2305,-1.2305,-1.2305,-1.2144,0.0,0.0,0.0,0.0,0.0,0.0,0.0,0.0,0.0,0.0,0.0,0.0,0.0,0.0,0.0,0.0,0.0,0.0,0.0,0.0,0.0,0.0,0.0,0.0,0.0,0.0,0.0,0.0,0.0,0.0,0.0,-0.7988,-0.7988,-0.7988,-0.7988,-0.7988,-0.7988,-0.7988,-0.7988,-0.7988,-0.7919,-0.7865,-0.7862,-0.7753,-0.7685,0.0,0.0,0.0,-0.759,-0.7472,-0.7424,-0.7411,-0.7255,-0.7149,-0.7146,-0.7109,-0.7095,-0.7095,-0.7095,-0.7095,-0.7095,-0.7095,-0.7709,-0.8584,-0.9148,-0.9923,-1.0952,-1.2705,-1.3017,-1.2811,-1.2787,-1.2563,-1.2305,-1.2305,-1.2305,-1.2305,-1.2305,-1.2305,-1.2305,-1.2305,-1.2305,-1.2305,-1.2305,-1.2305,-1.2305,-1.2305,-1.2305,-1.2305,-1.2305,-1.2104,-1.2007,-1.2007,-1.1764,-1.1724,-1.1986,-1.2178,-1.2305,-1.2305,-1.2305,-1.2305,-1.2305,-1.2305,-1.2305,-1.2305,-1.2305,-1.2305,-1.2305,-1.2305,-1.2305,-1.2305,-1.2305,-1.2144,0.0,0.0,0.0,0.0,0.0,0.0,0.0,0.0,0.0,0.0,0.0,0.0,0.0,0.0,0.0,0.0,0.0,0.0,0.0,0.0,0.0,0.0,0.0,0.0,0.0,0.0,0.0,0.0,0.0,0.0,0.0,-0.7884,-0.7902,-0.7838,-0.7838,-0.7868,-0.7884,-0.7884,-0.7853,-0.7838,-0.7753,-0.7712,-0.7709,-0.7634,-0.756,0.0,0.0,0.0,-0.7383,-0.7299,-0.7265,-0.7258,-0.7129,-0.7095,-0.7095,-0.7095,-0.7095,-0.7095,-0.7095,-0.7095,-0.7095,-0.7095,-0.7533,-0.8189,-0.8715,-0.9299,-1.0116,-1.2104,-1.2452,-1.2337,-1.2505,-1.2425,-1.2305,-1.2305,-1.1959,-1.1731,-1.2187,-1.1922,-1.1731,-1.2224,-1.2305,-1.2305,-1.2305,-1.2305,-1.2305,-1.2305,-1.2191,-1.2104,-1.2104,-1.185,-1.1663,-1.1663,-1.1136,-1.0896,-1.1048,-1.0831,-1.116,-1.2248,-1.2305,-1.2305,-1.2305,-1.2305,-1.2077,-1.162,-1.207,-1.207,-1.162,-1.207,-1.2305,-1.2298,-1.2164,-1.1944,0.0,0.0,0.0,0.0,0.0,0.0,0.0,0.0,0.0,0.0,0.0,0.0,0.0,0.0,0.0,0.0,0.0,0.0,0.0,0.0,0.0,0.0,0.0,0.0,0.0,0.0,0.0,0.0,0.0,0.0,0.0,-0.778,-0.7723,-0.7604,-0.76,-0.7645,-0.7743,-0.7767,-0.7719,-0.76,-0.7577,-0.7563,-0.7563,-0.7539,-0.7458,-0.7336,0.0,0.0,-0.7095,-0.7095,-0.7095,-0.7095,-0.7095,-0.7095,-0.7095,-0.7095,-0.7095,-0.7095,-0.7095,-0.7095,-0.7095,-0.7095,-0.7095,-0.7265,-0.8293,-0.8502,-0.8774,-1.0484,-1.0959,-1.1091,-1.1695,-1.1848,-1.1848,-1.1848,-1.1316,-1.1013,-1.1885,-1.1502,-1.1279,-1.215,-1.2305,-1.2305,-1.2305,-1.2305,-1.2285,-1.2245,-1.1916,-1.1673,-1.1627,-1.1225,-1.094,-1.094,-1.0246,-0.9788,-0.9829,-0.916,-0.9591,-1.1644,-1.1801,-1.1803,-1.1848,-1.2003,-1.1583,-1.0596,-1.1545,-1.1583,-1.0565,-1.1434,-1.1903,-1.2004,-1.1762,-1.1543,0.0,0.0,0.0,0.0,0.0,0.0,0.0,0.0,0.0,0.0,0.0,0.0,0.0,0.0,0.0,0.0,0.0,0.0,0.0,0.0,0.0,0.0,0.0,0.0,0.0,0.0,0.0,0.0,0.0,0.0,0.0,-0.7631,-0.7624,-0.76,-0.76,-0.755,-0.7441,-0.7567,-0.7621,-0.7597,-0.7468,-0.7453,-0.7446,-0.7272,-0.7152,-0.7132,0.0,-0.7119,-0.7095,-0.7095,-0.7095,-0.7095,-0.7095,-0.7095,-0.7095,-0.7095,-0.7095,-0.7095,-0.7095,-0.7095,-0.7095,-0.7095,-0.7095,-0.7119,-0.717,-0.7105,-0.7233,-0.8258,-0.9212,-0.9886,-0.9808,-0.975,-0.975,-0.975,-1.0303,-1.082,-1.1013,-1.1583,-1.2114,-1.2268,-1.2305,-1.2305,-1.2305,-1.2305,-1.2218,-1.2013,-1.1319,-1.07,-1.0399,-0.9479,-0.8849,-0.8849,-0.8539,-0.8403,-0.863,-0.8544,-0.8722,-0.93,-0.9516,-0.9648,-0.9739,-1.0565,-1.0565,-0.9561,-1.0527,-1.0527,-0.9518,-0.9674,-1.009,-1.0683,-1.0641,-1.0791,0.0,0.0,0.0,0.0,0.0,0.0,0.0,0.0,0.0,0.0,0.0,0.0,0.0,0.0,0.0,0.0,0.0,0.0,0.0,0.0,0.0,0.0,0.0,0.0,0.0,0.0,0.0,0.0,0.0,0.0,0.0,0.0,-0.7438,-0.7353,-0.7353,-0.7316,-0.7248,-0.7316,-0.7353,-0.735,-0.7282,-0.7248,-0.7244,-0.7129,-0.7095,-0.7095,0.0,-0.7095,-0.7095,-0.7095,-0.7095,-0.7095,-0.7095,-0.7095,-0.7095,-0.7095,-0.7095,-0.7095,-0.7095,-0.7095,-0.7085,-0.7007,-0.698,-0.6953,-0.6851,-0.6698,-0.6684,-0.7086,-0.7903,-0.8774,-0.9208,-0.9296,-0.9448,-0.9965,-1.004,-1.0303,-1.1391,-1.1545,-1.1657,-1.2187,-1.2305,-1.2305,-1.2305,-1.2171,-1.188,-1.127,-1.0571,-0.9892,-0.9252,-0.8585,-0.8174,-0.8174,-0.7658,-0.7344,-0.747,-0.7052,-0.7349,-0.8698,-0.8975,-0.9118,-0.9183,-0.9713,-0.9782,-0.9296,-0.9744,-1.0045,-1.0115,-0.9951,-1.0342,-1.1203,-1.0865,-1.0831,0.0,0.0,0.0,0.0,0.0,0.0,0.0,0.0,0.0,0.0,0.0,0.0,0.0,0.0,0.0,0.0,0.0,0.0,0.0,0.0,0.0,0.0,0.0,0.0,0.0,0.0,0.0,0.0,0.0,0.0,0.0,0.0,-0.7261,-0.7098,-0.7095,-0.7095,-0.7095,-0.7095,-0.7095,-0.7095,-0.7095,-0.7095,-0.7095,-0.7095,-0.7095,-0.7095,-0.7095,-0.7095,-0.7095,-0.7095,-0.7095,-0.7095,-0.7095,-0.7095,-0.7095,-0.7095,-0.7095,-0.7095,-0.7095,-0.7075,-0.7028,-0.692,-0.6862,-0.6848,-0.6695,-0.6566,-0.6504,-0.647,-0.6926,-0.7633,-0.8389,-0.8765,-0.9145,-0.9922,-0.9852,-1.0083,-1.162,-1.1545,-1.1316,-1.1842,-1.1959,-1.1859,-1.1611,-1.139,-1.0986,-1.0184,-0.9519,-0.8818,-0.8086,-0.7635,-0.7377,-0.7377,-0.6789,-0.6396,-0.6396,-0.5782,-0.6157,-0.7891,-0.8191,-0.8357,-0.8373,-0.8938,-0.917,-0.8955,-0.9405,-0.9863,-1.0319,-1.0132,-1.0486,-1.1329,-1.0853,-1.0752,0.0,0.0,0.0,0.0,0.0,0.0,0.0,0.0,0.0,0.0,0.0,0.0,0.0,0.0,0.0,0.0,0.0,0.0,0.0,0.0,0.0,0.0,0.0,0.0,0.0,0.0,0.0,0.0,0.0,0.0,0.0,0.0,0.0,-0.7095,-0.7095,-0.7095,-0.7095,-0.7095,-0.7095,-0.7095,-0.7095,-0.7095,-0.7095,-0.7095,-0.7095,-0.7095,-0.7095,-0.7095,-0.7095,-0.7095,-0.7095,-0.7095,-0.7095,-0.7095,-0.7095,-0.7095,-0.7095,-0.7095,-0.7095,-0.7011,-0.69,-0.6889,-0.6831,-0.6688,-0.6536,-0.6521,-0.6484,-0.6354,-0.6345,-0.6416,-0.649,-0.7215,-0.7936,-0.8008,-0.9399,-1.0746,-1.0901,-1.1583,-1.1922,-1.1087,-1.0901,-1.0558,-0.9531,-0.9296,-0.9139,-0.8635,-0.7841,-0.7182,-0.6861,-0.6115,-0.5591,-0.5591,-0.5524,-0.5491,-0.5491,-0.5428,-0.5468,-0.5622,-0.5902,-0.6096,-0.6206,-0.8093,-0.8751,-0.7931,-0.9734,-1.0105,-0.8926,-0.8911,-0.9161,-0.9657,-0.9622,-0.998,0.0,0.0,0.0,0.0,0.0,0.0,0.0,0.0,0.0,0.0,0.0,0.0,0.0,0.0,0.0,0.0,0.0,0.0,0.0,0.0,0.0,0.0,0.0,0.0,0.0,0.0,0.0,0.0,0.0,0.0,0.0,0.0,0.0,-0.7095,-0.7095,-0.7095,-0.7095,-0.7095,-0.7095,-0.7095,-0.7095,-0.7095,-0.7095,-0.7095,-0.7095,-0.7095,-0.7095,-0.7095,-0.7095,-0.7095,-0.7095,-0.7095,-0.7095,-0.7095,-0.7095,-0.7095,-0.7041,-0.6964,-0.6964,-0.6869,-0.677,-0.6675,-0.6607,-0.6532,-0.6426,-0.6378,-0.6368,-0.6317,-0.63,-0.6451,-0.7061,-0.7061,-0.7173,-0.8428,-0.9334,-1.004,-1.0677,-1.1087,-1.1242,-1.0858,-1.0211,-0.9605,-0.9192,-0.8872,-0.8418,-0.7709,-0.7176,-0.6606,-0.5987,-0.5591,-0.5395,-0.5395,-0.5395,-0.5395,-0.5395,-0.5395,-0.5395,-0.5395,-0.559,-0.5937,-0.6553,-0.6869,-0.7428,-0.8297,-0.7893,-0.8069,-0.8806,-0.8007,-0.8314,-0.961,-0.8882,-0.9285,0.0,0.0,0.0,0.0,0.0,0.0,0.0,0.0,0.0,0.0,0.0,0.0,0.0,0.0,0.0,0.0,0.0,0.0,0.0,0.0,0.0,0.0,0.0,0.0,0.0,0.0,0.0,0.0,0.0,0.0,0.0,0.0,0.0,0.0,-0.7095,-0.7095,-0.7095,-0.7095,-0.7095,-0.7095,-0.7095,-0.7095,-0.7095,-0.7095,-0.7095,-0.7095,-0.7095,-0.7095,-0.7095,-0.7095,-0.7068,-0.7031,-0.7031,-0.7001,-0.6957,-0.6957,-0.6896,-0.6858,-0.6858,-0.6756,-0.661,-0.6545,-0.648,-0.6426,-0.633,-0.63,-0.63,-0.63,-0.63,-0.6528,-0.7557,-0.7288,-0.7138,-0.8504,-0.9069,-0.9485,-1.019,-1.034,-1.0228,-0.9922,-0.9183,-0.85,-0.8102,-0.7741,-0.7294,-0.6666,-0.6414,-0.6075,-0.5495,-0.5395,-0.5395,-0.5395,-0.5395,-0.5395,-0.5395,-0.5395,-0.5395,-0.5395,-0.5494,-0.5809,-0.6462,-0.6301,-0.684,-0.8167,-0.7247,-0.739,-0.8686,-0.7815,-0.7986,-0.9157,-0.8359,-0.864,0.0,0.0,0.0,0.0,0.0,0.0,0.0,0.0,0.0,0.0,0.0,0.0,0.0,0.0,0.0,0.0,0.0,0.0,0.0,0.0,0.0,0.0,0.0,0.0,0.0,0.0,0.0,0.0,0.0,0.0,0.0,0.0,0.0,0.0,-0.7095,-0.7095,-0.7095,-0.7095,-0.7095,-0.7095,-0.7095,-0.7095,-0.7095,-0.7095,-0.7092,-0.7092,-0.7092,-0.7092,-0.7092,-0.7092,-0.7011,-0.6883,-0.6883,-0.6834,-0.6702,-0.6702,-0.6698,-0.6698,-0.6698,-0.66,-0.6511,-0.6511,-0.6416,-0.63,-0.63,-0.63,-0.63,-0.63,-0.63,-0.6528,-0.7514,-0.7783,-0.7783,-0.7783,-0.858,-0.9296,-0.9296,-0.9296,-0.8993,-0.8008,-0.7626,-0.7143,-0.6003,-0.5681,-0.5569,-0.5419,-0.5395,-0.5395,-0.5395,-0.5395,-0.5395,-0.5395,-0.5395,-0.5395,-0.5395,-0.5395,-0.5395,-0.5395,-0.5395,-0.5463,-0.5617,-0.6573,-0.7164,-0.7305,-0.8258,-0.8641,-0.8386,-0.8386,-0.8241,-0.7994,-0.7994,-0.7994,0.0,0.0,0.0,0.0,0.0,0.0,0.0,0.0,0.0,0.0,0.0,0.0,0.0,0.0,0.0,0.0,0.0,0.0,0.0,0.0,0.0,0.0,0.0,0.0,0.0,0.0,0.0,0.0,0.0,0.0,0.0,0.0,0.0,0.0,-0.7095,-0.7095,-0.7095,-0.7095,-0.7095,-0.7095,-0.7095,-0.7045,-0.695,-0.695,-0.6889,-0.6831,-0.6831,-0.6831,-0.6831,-0.6831,-0.6807,-0.677,-0.677,-0.6742,-0.6702,-0.6702,-0.663,-0.6539,-0.6539,-0.6484,-0.6364,-0.6364,-0.6334,-0.63,-0.63,-0.63,-0.63,-0.63,-0.63,-0.6377,-0.6679,-0.6756,-0.6907,-0.7629,-0.8012,-0.8237,-0.8237,-0.8237,-0.8121,-0.768,-0.6882,-0.6176,-0.5748,-0.5562,-0.5446,-0.5402,-0.5395,-0.5395,-0.5395,-0.5395,-0.5395,-0.5395,-0.5395,-0.5395,-0.5395,-0.5395,-0.5395,-0.5395,-0.5395,-0.5708,-0.6344,-0.6056,-0.6208,-0.6852,-0.6558,-0.637,-0.6285,-0.6285,-0.6552,-0.7079,-0.6465,-0.6826,0.0,0.0,0.0,0.0,0.0,0.0,0.0,0.0,0.0,0.0,0.0,0.0,0.0,0.0,0.0,0.0,0.0,0.0,0.0,0.0,0.0,0.0,0.0,0.0,0.0,0.0,0.0,0.0,0.0,0.0,0.0,0.0,0.0,0.0,-0.7095,-0.7095,-0.7095,-0.7095,-0.7095,-0.7095,-0.7041,-0.6937,-0.6841,-0.6859,-0.6844,-0.6702,-0.6702,-0.6702,-0.6702,-0.6702,-0.6664,-0.661,-0.661,-0.6576,-0.6525,-0.6525,-0.6508,-0.6426,-0.6426,-0.6371,-0.63,-0.63,-0.63,-0.63,-0.63,-0.63,-0.63,-0.63,-0.63,-0.63,-0.63,-0.63,-0.6451,-0.7061,-0.7215,-0.7215,-0.7215,-0.7215,-0.716,-0.6943,-0.6302,-0.5755,-0.5613,-0.5498,-0.5395,-0.5395,-0.5395,-0.5395,-0.5395,-0.5395,-0.5395,-0.5395,-0.5395,-0.5395,-0.5395,-0.5395,-0.5395,-0.5395,-0.5395,-0.562,-0.6174,-0.5686,-0.5653,-0.617,-0.5653,-0.5395,-0.5395,-0.5395,-0.5653,-0.617,-0.5653,-0.5951,0.0,0.0,0.0,0.0,0.0,0.0,0.0,0.0,0.0,0.0,0.0,0.0,0.0,0.0,0.0,0.0,0.0,0.0,0.0,0.0,0.0,0.0,0.0,0.0,0.0,0.0,0.0,0.0,0.0,0.0,0.0,0.0,0.0,-0.7095,-0.7095,-0.7095,-0.7095,-0.7095,-0.7088,-0.7075,-0.6947,-0.6841,-0.6685,-0.6824,-0.6803,-0.6661,-0.6661,-0.6661,-0.6661,-0.6661,-0.658,-0.6494,-0.6494,-0.6412,-0.63,-0.63,-0.63,-0.63,-0.63,-0.63,-0.63,-0.63,-0.63,-0.63,-0.63,-0.63,-0.63,-0.63,-0.63,-0.63,-0.63,-0.63,-0.63,-0.63,-0.63,-0.63,-0.63,-0.63,-0.6248,-0.6006,-0.5895,-0.5752,-0.5596,-0.5487,-0.5395,-0.5395,-0.5395,-0.5395,-0.5395,-0.5395,-0.5395,-0.5395,-0.5395,-0.5395,-0.5395,-0.5395,-0.5395,-0.5395,-0.5395,-0.5395,-0.5395,-0.5395,-0.5395,-0.5395,-0.5395,-0.5395,-0.5395,-0.5395,-0.5395,-0.5395,-0.5395,-0.5395,0.0,0.0,0.0,0.0,0.0,0.0,0.0,0.0,0.0,0.0,0.0,0.0,0.0,0.0,0.0,0.0,0.0,0.0,0.0,0.0,0.0,0.0,0.0,0.0,0.0,0.0,0.0,0.0,0.0,0.0,0.0,0.0,0.0,-0.7051,-0.7095,-0.7095,-0.7095,-0.7095,-0.7041,0.0,-0.69,-0.6787,-0.6562,-0.6556,-0.6532,-0.6395,-0.6395,-0.6395,-0.6395,-0.6395,-0.6375,-0.6344,-0.6344,-0.6327,-0.63,-0.63,-0.63,-0.63,-0.63,-0.63,-0.63,-0.63,-0.63,-0.63,-0.63,-0.63,-0.63,-0.63,-0.63,-0.63,-0.63,-0.63,-0.63,-0.63,-0.63,-0.63,-0.63,-0.63,-0.6218,-0.5905,-0.5823,-0.5718,-0.5491,-0.5416,-0.5395,-0.5395,-0.5395,-0.5395,-0.5395,-0.5395,-0.5395,-0.5395,-0.5395,-0.5395,-0.5395,-0.5395,-0.5395,-0.5395,-0.5395,-0.5395,-0.5395,-0.5395,-0.5395,-0.5395,-0.5395,-0.5395,-0.5395,-0.5395,-0.5395,-0.5395,-0.5395,-0.5395,0.0,0.0,0.0,0.0,0.0,0.0,0.0,0.0,0.0,0.0,0.0,0.0,0.0,0.0,0.0,0.0,0.0,0.0,0.0,0.0,0.0,0.0,0.0,0.0,0.0,0.0,0.0,0.0,0.0,0.0,0.0,-0.4552,-0.5087,-0.6248,-0.6293,-0.6561,-0.7095,-0.7028,-0.6957,-0.6883,-0.678,-0.659,-0.6412,-0.6412,-0.6371,-0.63,-0.63,-0.63,-0.63,-0.63,-0.63,-0.63,-0.63,-0.63,-0.63,-0.63,-0.63,-0.63,-0.63,-0.63,-0.63,-0.63,-0.63,-0.63,-0.63,-0.63,-0.63,-0.63,-0.63,-0.63,-0.63,-0.63,-0.63,-0.63,-0.63,-0.63,-0.63,-0.63,-0.6207,-0.5861,-0.58,-0.5708,-0.5446,-0.5395,-0.5395,-0.5395,-0.5395,-0.5395,-0.5395,-0.5395,-0.5395,-0.5395,-0.5395,-0.5395,-0.5395,-0.5395,-0.5395,-0.5395,-0.5395,-0.5395,-0.5395,-0.5395,-0.5395,-0.5395,-0.5395,-0.5395,-0.5395,-0.5395,-0.5395,-0.5395,-0.5395,-0.5395,0.0,0.0,0.0,0.0,0.0,0.0,0.0,0.0,0.0,0.0,0.0,0.0,0.0,0.0,0.0,0.0,0.0,0.0,0.0,0.0,0.0,0.0,0.0,0.0,0.0,0.0,0.0,0.0,0.0,0.0,-0.326,-0.3303,-0.3838,-0.5045,-0.509,-0.5526,-0.648,-0.6375,-0.6297,-0.6287,-0.6031,-0.5853,-0.5747,-0.5944,-0.6141,-0.63,-0.63,-0.63,-0.63,-0.63,-0.63,-0.63,-0.63,-0.63,-0.63,-0.63,-0.63,-0.63,-0.63,-0.63,-0.63,-0.63,-0.63,-0.63,-0.63,-0.63,-0.63,-0.63,-0.63,-0.63,-0.63,-0.63,-0.63,-0.63,-0.63,-0.63,-0.63,-0.63,-0.6207,-0.5861,-0.5762,-0.5647,-0.5436,-0.5395,-0.5395,-0.5395,-0.5395,-0.5395,-0.5395,-0.5395,-0.5395,-0.5395,-0.5395,-0.5395,-0.5395,-0.5395,-0.5395,-0.5395,-0.5395,-0.5395,-0.5395,-0.5395,-0.5395,-0.5395,-0.5395,-0.5395,-0.5395,-0.5395,-0.5395,-0.5395,-0.5395,-0.5395,0.0,0.0,0.0,0.0,0.0,0.0,0.0,0.0,0.0,0.0,0.0,0.0,0.0,0.0,0.0,0.0,0.0,0.0,0.0,0.0,0.0,0.0,0.0,0.0,0.0,0.0,0.0,0.0,0.0,0.0,-0.1969,-0.2057,-0.2592,-0.3794,-0.3838,-0.3894,-0.4045,-0.4033,-0.395,-0.3798,-0.3616,-0.3563,-0.3552,-0.4491,-0.5431,-0.63,-0.63,-0.63,-0.63,-0.63,-0.63,-0.63,-0.63,-0.63,-0.63,-0.63,-0.63,-0.63,-0.63,-0.63,-0.63,-0.63,-0.63,-0.63,-0.63,-0.63,-0.63,-0.63,-0.63,-0.63,-0.63,-0.63,-0.63,-0.63,-0.63,-0.63,-0.63,-0.63,-0.6207,-0.5861,-0.5596,-0.544,-0.5402,-0.5395,-0.5395,-0.5395,-0.5395,-0.5395,-0.5395,-0.5395,-0.5395,-0.5395,-0.5395,-0.5395,-0.5395,-0.5395,-0.5395,-0.5395,-0.5395,-0.5395,-0.5395,-0.5395,-0.5395,-0.5395,-0.5395,-0.5395,-0.5395,-0.5395,-0.5395,-0.5395,-0.5395,-0.5395,0.018,0.0,0.0,0.0,0.0,0.0,0.0,0.0,0.0,0.0,0.0,0.0,0.0,0.0,0.0,0.0,0.0,0.0,0.0,0.0,0.0,0.0,0.0,0.0,0.0,0.0,0.0,0.0,0.0,-0.0225,-0.0763,-0.0807,-0.1344,-0.2547,-0.2606,-0.2928,-0.3595,-0.3507,-0.3405,-0.3173,-0.3139,-0.3085,-0.3124,-0.3593,-0.4062,-0.4569,-0.5786,-0.5944,-0.5431,-0.6064,-0.63,-0.63,-0.63,-0.63,-0.63,-0.63,-0.63,-0.63,-0.63,-0.63,-0.63,-0.63,-0.63,-0.63,-0.63,-0.63,-0.63,-0.63,-0.63,-0.63,-0.63,-0.63,-0.63,-0.63,-0.63,-0.63,-0.63,-0.63,-0.6207,-0.5861,-0.5633,-0.5494,-0.5409,-0.5395,-0.5395,-0.5395,-0.5395,-0.5395,-0.5395,-0.5395,-0.5395,-0.5395,-0.5395,-0.5395,-0.5395,-0.5395,-0.5395,-0.5395,-0.5395,-0.5395,-0.5395,-0.5395,-0.5395,-0.5395,-0.5395,-0.5395,-0.5395,-0.5395,-0.5395,-0.5395,-0.5395,-0.5395,0.0,0.0,0.0,0.0,0.0,0.0,0.0,0.0,0.0,0.0,0.0,0.0,0.0,0.0,0.0,0.0,0.0,0.0,0.0,0.0,0.0,0.0,0.0,0.0,0.0,0.0,0.0,0.0,0.0,0.0,0.0,0.0,-0.0403,-0.1333,-0.1356,-0.1768,-0.2686,-0.2582,-0.2467,-0.2306,-0.2306,-0.2306,-0.2306,-0.2579,-0.2579,-0.2423,-0.4572,-0.504,-0.4373,-0.5157,-0.5473,-0.5473,-0.5473,-0.5473,-0.5473,-0.5473,-0.5473,-0.5473,-0.5473,-0.5473,-0.555,-0.5786,-0.5906,-0.5944,-0.6222,-0.63,-0.63,-0.63,-0.63,-0.63,-0.63,-0.63,-0.63,-0.63,-0.63,-0.63,-0.63,-0.6269,-0.6122,-0.5854,-0.5688,-0.5542,-0.5423,-0.5395,-0.5395,-0.5395,-0.5395,-0.5395,-0.5395,-0.5395,-0.5395,-0.5395,-0.5395,-0.5395,-0.5395,-0.5395,-0.5395,-0.5395,-0.5395,-0.5395,-0.5395,-0.5395,-0.5395,-0.5395,-0.5395,-0.5395,-0.5395,-0.5395,-0.5395,-0.5395,-0.5395,-0.5395,0.0,0.0,0.0,0.0,0.0,0.0,0.0,0.0,0.0,0.0,0.0,0.0,0.0,0.0,0.0,0.0,0.0,0.0,0.0,0.0,0.0,0.0,0.0,0.0,0.0,0.0,0.0,0.0,0.0,0.0,0.0,0.0,-0.0045,-0.0087,-0.0087,-0.0128,-0.0204,-0.0199,-0.0157,-0.0157,-0.0157,-0.0157,-0.0196,-0.1215,-0.1137,-0.0275,-0.2345,-0.324,-0.3202,-0.324,-0.3279,-0.3279,-0.3279,-0.3279,-0.3279,-0.3279,-0.3279,-0.3279,-0.3279,-0.3279,-0.3435,-0.4453,-0.4766,-0.496,-0.5983,-0.63,-0.63,-0.63,-0.63,-0.63,-0.63,-0.63,-0.63,-0.63,-0.63,-0.63,-0.63,-0.6146,-0.5956,-0.5833,-0.5688,-0.5542,-0.5423,-0.5395,-0.5395,-0.5395,-0.5395,-0.5395,-0.5395,-0.5395,-0.5395,-0.5395,-0.5395,-0.5395,-0.5395,-0.5395,-0.5395,-0.5395,-0.5395,-0.5395,-0.5395,-0.5395,-0.5395,-0.5395,-0.5395,-0.5395,-0.5395,-0.5395,-0.5395,-0.5395,-0.5395,-0.5395,0.0,0.0,0.0,0.0,0.0,0.0,0.0,0.0,0.0,0.0,0.0,0.0,0.0,0.0,0.0,0.0,0.0,0.0,0.0,0.0,0.0,0.0,0.0,0.0,0.0,0.0,0.0,0.0,0.0,0.0,0.0,0.0,0.0,0.0,0.0,0.0,0.0,0.0,0.0,0.0,0.0,0.0,0.0,-0.0392,-0.0353,-0.0039,-0.0784,-0.1488,-0.219,-0.2852,-0.3085,-0.3085,-0.3085,-0.3085,-0.3085,-0.3085,-0.3085,-0.3085,-0.3085,-0.3085,-0.3163,-0.3552,-0.3669,-0.3748,-0.4139,-0.4256,-0.4256,-0.4256,-0.4727,-0.5276,-0.5276,-0.5786,-0.63,-0.63,-0.63,-0.63,-0.63,-0.6255,-0.6101,-0.585,-0.5762,-0.5647,-0.5436,-0.5395,-0.5395,-0.5395,-0.5395,-0.5395,-0.5395,-0.5395,-0.5395,-0.5395,-0.5395,-0.5395,-0.5395,-0.5395,-0.5395,-0.5395,-0.5395,-0.5395,-0.5395,-0.5395,-0.5395,-0.5395,-0.5395,-0.5395,-0.5395,-0.5395,-0.5395,-0.5395,-0.5395,-0.5395,0.4508,0.0,0.0,0.0,0.0,0.0,0.0,0.0,0.0,0.0,0.0,0.0,0.0,0.0,0.0,0.0,0.0,0.0,0.0,0.0,0.0,0.0,0.0,0.0,0.0,0.0,0.0,0.0,0.0,0.0,0.0,0.0,0.0,0.0,0.0,0.0,0.0,0.0,0.0,0.0,0.0,0.0,0.0,0.0,0.0,0.0,0.0,-0.0392,-0.1098,-0.18,-0.2072,-0.2072,-0.2072,-0.2072,-0.2072,-0.2072,-0.2072,-0.2072,-0.2072,-0.2072,-0.2111,-0.2462,-0.2579,-0.2657,-0.3007,-0.3085,-0.3085,-0.3085,-0.3632,-0.4178,-0.4178,-0.4686,-0.5237,-0.5237,-0.5512,-0.5747,-0.5747,-0.5986,-0.6029,-0.5482,-0.5581,-0.5545,-0.5028,-0.5193,-0.5395,-0.5395,-0.5395,-0.5395,-0.5395,-0.5395,-0.5395,-0.5395,-0.5395,-0.5395,-0.5395,-0.5395,-0.5395,-0.5395,-0.5395,-0.5395,-0.5395,-0.5395,-0.5395,-0.5395,-0.5395,-0.5395,-0.5395,-0.5395,-0.5395,-0.5395,-0.5395,-0.5395,0.0,0.0,0.0,0.0,0.0,0.0,0.0,0.0,0.0,0.0,0.0,0.0,0.0,0.0,0.0,0.0,0.0,0.0,0.0,0.0,0.0,0.0,0.0,0.0,0.0,0.0,0.0,0.0,0.0,0.0,0.0,0.0,0.0,0.0,0.0,0.0,0.0,0.0,0.0,0.0,0.0,0.0,0.0,0.0,0.0,0.0,0.0,0.0,0.0,0.0,0.0,0.0,0.0,0.0,0.0,0.0,0.0,0.0,0.0,0.0,-0.0157,-0.1215,-0.1568,-0.1723,-0.2696,-0.3007,-0.3007,-0.3007,-0.3046,-0.3046,-0.3085,-0.3124,-0.3163,-0.3163,-0.3979,-0.4722,-0.4722,-0.5395,-0.571,-0.4731,-0.5115,-0.5261,-0.4239,-0.4788,-0.5395,-0.5395,-0.5395,-0.5395,-0.5395,-0.5395,-0.5395,-0.5395,-0.5395,-0.5395,-0.5395,-0.5395,-0.5395,-0.5359,-0.5359,-0.5359,-0.5329,-0.5329,-0.5329,-0.5329,-0.5329,-0.5329,-0.5329,-0.5362,-0.5395,-0.5395,-0.5362,-0.5359,0.6694,0.0,0.0,0.0,0.0,0.0,0.0,0.0,0.0,0.0,0.0,0.0,0.0,0.0,0.0,0.0,0.0,0.0,0.0,0.0,0.0,0.0,0.0,0.0,0.0,0.0,0.0,0.0,0.0,0.0,0.0,0.0,0.0,0.0,0.0,0.0,0.0,0.0,0.0,0.0,0.0,0.0,0.0,0.0,0.0,0.0,0.0,0.0,0.0,0.0,0.0,0.0,0.0,0.0,0.0,0.0,0.0,0.0,0.0,0.0,-0.0039,-0.0353,-0.0432,-0.051,-0.0784,-0.0862,-0.0862,-0.0862,-0.1409,-0.219,-0.2929,-0.3669,-0.4256,-0.4256,-0.4972,-0.5632,-0.5632,-0.5669,-0.5657,-0.5464,-0.5544,-0.547,-0.5082,-0.5226,-0.5395,-0.5395,-0.5395,-0.5395,-0.5395,-0.5395,-0.5395,-0.5395,-0.5395,-0.5395,-0.5395,-0.5395,-0.5123,-0.4417,-0.4384,-0.4115,-0.348,-0.3447,-0.3447,-0.3447,-0.3447,-0.3447,-0.3447,-0.4755,-0.5395,-0.5395,-0.4722,-0.4384,0.0,0.0,0.0,0.0,0.0,0.0,0.0,0.2681,0.0,0.0,0.0,0.0,0.0,0.0,0.0,0.0,0.0,0.0,0.0,0.0,0.0,0.0,0.0,0.0,0.0,0.0,0.0,0.0,0.0,0.0,0.0,0.0,0.0,0.0,0.0,0.0,0.0,0.0,0.0,0.0,0.0,0.0,0.0,0.0,0.0,0.0,0.0,0.0,0.0,0.0,0.0,0.0,0.0,0.0,0.0,0.0,0.0,0.0,0.0,0.0,0.0,0.0,0.0,0.0,0.0,0.0,0.0,0.0,-0.0432,-0.1058,-0.1643,-0.2268,-0.273,-0.274,-0.3465,-0.4171,-0.4163,-0.4311,-0.4592,-0.5053,-0.5347,-0.5362,-0.4903,-0.4821,-0.4821,-0.4821,-0.4821,-0.4821,-0.4821,-0.4821,-0.4821,-0.4821,-0.4486,-0.4284,-0.4284,-0.4284,-0.4048,-0.348,-0.3447,-0.3245,-0.2711,-0.2711,-0.2711,-0.2711,-0.2711,-0.2711,-0.2711,-0.3747,-0.4284,-0.4251,-0.3713,-0.3447,0.0,0.0,0.0,0.0,0.0,0.0,0.4239,0.3081,0.1879,0.0,0.0,0.0,0.0,0.0,0.0,0.0,0.0,0.0,0.0,0.0,0.0,0.0,0.0,0.0,0.0,0.0,0.0,0.0,0.0,0.0,0.0,0.0,0.0,0.0,0.0,0.0,0.0,0.0,0.0,0.0,0.0,0.0,0.0,0.0,0.0,0.0,0.0,0.0,0.0,0.0,0.0,0.0,0.0,0.0,0.0,0.0,0.0,0.0,0.0,0.0,0.0,0.0,0.0,0.0,0.0,0.0,0.0,0.0,0.0,0.0,0.0,-0.0078,-0.0194,-0.019,-0.0976,-0.175,-0.1746,-0.2338,-0.3092,-0.3889,-0.4597,-0.4821,-0.4015,-0.3849,-0.3849,-0.3849,-0.3849,-0.3849,-0.3849,-0.3849,-0.3849,-0.3849,-0.3178,-0.2711,-0.2711,-0.2711,-0.2644,-0.2544,-0.2544,-0.2511,-0.241,-0.241,-0.241,-0.241,-0.241,-0.241,-0.241,-0.2611,-0.2711,-0.2711,-0.2577,-0.2544,0.0,0.0,0.0,0.0,0.0,0.0,0.647,0.5534,0.4645,0.0,0.0,0.0,0.0,0.0,0.0,0.0,0.0,0.0,0.0,0.0,0.0,0.0,0.0,0.0,0.0,0.0,0.0,0.0,0.0,0.0,0.0,0.0,0.0,0.0,0.0,0.0,0.0,0.0,0.0,0.0,0.0,0.0,0.0,0.0,0.0,0.0,0.0,0.0,0.0,0.0,0.0,0.0,0.0,0.0,0.0,0.0,0.0,0.0,0.0,0.0,0.0,0.0,0.0,0.0,0.0,0.0,0.0,0.0,0.0,0.0,0.0,-0.0648,-0.1285,-0.129,-0.1981,-0.2654,-0.2642,-0.2686,-0.2801,-0.2969,-0.3123,-0.318,-0.2978,-0.2945,-0.2945,-0.2945,-0.2945,-0.2945,-0.2945,-0.2945,-0.2945,-0.2945,-0.2811,-0.2711,-0.2711,-0.2711,-0.2376,-0.1608,-0.1574,-0.1275,-0.0572,-0.0538,-0.0538,-0.0538,-0.0538,-0.0538,-0.0538,-0.1977,-0.2711,-0.2678,-0.1909,-0.1574,0.0,0.0,0.0,0.7095,0.0,0.0,0.0,0.5802,0.5223,0.0,0.0,0.0,0.0,0.0,0.0,0.0,0.0,0.0,0.0,0.0,0.0,0.0,0.0,0.0,0.0,0.0,0.0,0.0,0.0,0.0,0.0,0.0,0.0,0.0,0.0,0.0,0.0,0.0,0.0,0.0,0.0,0.0,0.0,0.0,0.0,0.0,0.0,0.0,0.0,0.0,0.0,0.0,0.0,0.0,0.0,0.0,0.0,0.0,0.0,0.0,0.0,0.0,0.0,0.0,0.0,0.0,0.0,0.0,0.0,0.0,0.0,-0.0412,-0.0811,-0.0791,-0.1131,-0.1464,-0.1445,-0.139,-0.1343,-0.1343,-0.1343,-0.1643,-0.2544,-0.231,-0.2009,-0.2009,-0.2009,-0.2009,-0.2009,-0.2009,-0.2009,-0.2009,-0.161,-0.1343,-0.1343,-0.1343,-0.1141,-0.0672,-0.0638,-0.0471,-0.0034,0.0,0.0,0.0,0.0,0.0,0.0,-0.0908,-0.1343,-0.1343,-0.0873,-0.0638,0.0,0.0,0.0,0.0,0.0,0.6874,0.0,0.0,0.0,0.0,0.0,0.0,0.0,0.0,0.0,0.0,0.0,0.0,0.0,0.0,0.0,0.0,0.0,0.0,0.0,0.0292,0.0206,0.0,0.0198,0.0236,0.0,0.0,0.0,0.0,0.0,0.0,0.0,0.0,0.0,0.0,0.0,0.0,0.0,0.0,0.0,0.0,0.0,0.0,0.0,0.0,0.0,0.0,0.0,0.0,0.0,0.0,0.0,0.0,0.0,0.0,0.0,0.0,0.0,0.0,0.0,0.0,0.0,0.0,0.0,0.0,0.0,0.0,0.0,0.0,0.0,0.0,0.0,0.0,0.0,0.0,0.0,-0.0471,-0.1944,-0.1542,-0.104,-0.104,-0.104,-0.104,-0.104,-0.104,-0.104,-0.104,-0.0404,0.0,0.0,0.0,0.0,0.0,0.0,0.0,0.0,0.0,0.0,0.0,0.0,0.0,0.0,0.0,0.0,0.0,0.0,0.0,0.0,0.0,0.0,0.0,0.7095,0.0,0.0,0.0,0.0,0.0,0.0,0.0,0.0,0.0,0.0,0.0,0.0,0.0,0.0,0.0,0.0,0.0,0.0,0.0,0.0,0.0,0.1027,0.0079,0.0864,0.102,0.0039,0.0,0.0,0.0,0.0,0.0,0.0,0.0,0.0,0.0,0.0,0.0,0.0,0.0,0.0,0.0,0.0,0.0,0.0,0.0,0.0,0.0,0.0,0.0,0.0,0.0,0.0,0.0,0.0,0.0,0.0,0.0,0.0,0.0,0.0,0.0,0.0,0.0,0.0,0.0,0.0,0.0,0.0,0.0,0.0,0.0,0.0,0.0,0.0,0.0,0.0,-0.0067,-0.0269,-0.0202,-0.0135,-0.0135,-0.0135,-0.0135,-0.0135,-0.0135,-0.0135,-0.0135,-0.0067,0.0,0.0,0.0,0.0,0.0,0.0,0.0,0.0,0.0,0.0,0.0,0.0,0.0,0.0,0.0,0.0,0.0,0.0,0.0,0.0,0.0,0.0,0.0,0.0,0.0,0.6994,0.0,0.693,0.0,0.0,0.0,0.0,0.0,0.0,0.0,0.0,0.0,0.0,0.0,0.0,0.0,0.0,0.0,0.0,0.0,0.0,0.0,0.0,0.2268,0.1838,0.18,0.1527,0.0941,0.0941,0.0628,0.0,0.0,0.0,0.0,0.0,0.0,0.0,0.0,0.0,0.0,0.0,0.0,0.0,0.0,0.0,0.0,0.0,0.0,0.0,0.0,0.0,0.0,0.0,0.0,0.0,0.0,0.0,0.0,0.0,0.0,0.0,0.0,0.0,0.0,0.0,0.0,0.0,0.0,0.0,0.0,0.0,0.0,0.0,0.0,0.0,0.0,0.0,0.0,0.0,0.0,0.0,0.0,0.0,0.0,0.0,0.0,0.0,0.0,0.0,0.0,0.0,0.0,0.0,0.0,0.0,0.0,0.0,0.0,0.0,0.0,0.0,0.0,0.0,0.0,0.0,0.0,0.7095,0.0,0.0,0.0,0.0,0.0,0.0,0.0,0.0,0.0,0.0,0.0,0.0,0.0,0.0,0.0,0.0,0.0,0.0,0.0,0.0,0.0,0.0,0.0,0.0,0.0,0.0,0.3124,0.3357,0.3396,0.3124,0.3085,0.2773,0.2035,0.1996,0.1644,0.0862,0.0862,0.0862,0.0862,0.0862,0.0862,0.0862,0.0862,0.0706,0.0432,0.0432,0.0275,0.0,0.0,0.0,0.0,0.0,0.0,0.0,0.0,0.0,0.0,0.0,0.0,0.0,0.0,0.0,0.0,0.0,0.0,0.0,0.0,0.0,0.0,0.0,0.0,0.0,0.0,0.0,0.0,0.0,0.0,0.0,0.0,0.0,0.0,0.0,0.0,0.0,0.0,0.0,0.0,0.0,0.0,0.0,0.0,0.0,0.0,0.0,0.0,0.0,0.0,0.0,0.0,0.0,0.0,0.0,0.0,0.0,0.0,0.0,0.0,0.0,0.0,0.0,0.0,0.0,0.0,0.0,0.7095,0.0,0.0,0.0,0.0,0.6664,0.0,0.0,0.0,0.0,0.0,0.0,0.6306,0.0,0.0,0.0,0.0,0.0,0.0,0.0,0.0,0.0,0.0,0.0,0.3163,0.4062,0.4178,0.3163,0.3085,0.3085,0.3046,0.3046,0.3046,0.3007,0.3007,0.3007,0.3007,0.3007,0.3007,0.3007,0.3007,0.2462,0.1568,0.1568,0.0941,0.0,0.0,0.0,0.0,0.0,0.0,0.0,0.0,0.0,0.0,0.0,0.0,0.0,0.0,0.0,0.0,0.0,0.0,0.0,0.0,0.0,0.0,0.0,0.0,0.0,0.0,0.0,0.0,0.0,0.0,0.0,0.0,0.0,0.0,0.0,0.0,0.0,0.0,0.0,0.0,0.0,0.0,0.0,0.0,0.0,0.0,0.0,0.0,0.0,0.0,0.0,0.0,0.0,0.0,0.0,0.0,0.0,0.0,0.0,0.0,0.0,0.0,0.0,0.0,0.0,0.0,0.7071,0.698,0.0,0.0,0.0,0.0,0.0,0.0,0.0,0.0,0.0,0.0,0.63,0.63,0.63,0.0,0.0,0.0,0.0,0.0,0.0,0.0,0.0,0.0,0.0,0.5237,0.555,0.5589,0.5237,0.5237,0.4882,0.4178,0.4178,0.3826,0.3124,0.3085,0.3085,0.3085,0.3085,0.3085,0.3085,0.3085,0.2929,0.2579,0.2579,0.2384,0.2033,0.2033,0.2033,0.2033,0.2033,0.2033,0.1878,0.051,0.0,0.0,0.0,0.0,0.0,0.0,0.0,0.0,0.0,0.0,0.0,0.0,0.0,0.0,0.0,0.0,0.0,0.0,0.0,0.0,0.0,0.0,0.0,0.0,0.0,0.0,0.0,0.0,0.0,0.0,0.0,0.0,0.0,0.0,0.0,0.0,0.0,0.0,0.0,0.0,0.0,0.0,0.0,0.0,0.0,0.0,0.0,0.0,0.0,0.0,0.0,0.0,0.0,0.0,0.0,0.0,0.7034,0.7021,0.0,0.6881,0.6807,0.0,0.6559,0.0,0.0,0.0,0.0,0.0,0.0,0.0,0.0,0.63,0.63,0.63,0.0,0.6606,0.0,0.0,0.0,0.0,0.0,0.0,0.63,0.63,0.63,0.63,0.0,0.0,0.5983,0.5276,0.5276,0.4924,0.4256,0.4256,0.4256,0.4256,0.4256,0.4256,0.4256,0.4256,0.4021,0.3669,0.3669,0.3435,0.3085,0.3085,0.3085,0.3085,0.3085,0.3085,0.289,0.1214,0.0314,0.0,0.0,0.0,0.0,0.0,0.0,0.0,0.0,0.0,0.0,0.0,0.0,0.0,0.0,0.0,0.0,0.0,0.0,0.0101,0.0404,0.0471,0.0572,0.0908,0.0706,0.0572,0.0908,0.0672,0.037,0.0034,0.0,0.0,0.0,0.0,0.0,0.0,0.0269,0.0605,0.0941,0.0974,0.0974,0.0974,0.0974,0.0974,0.0974,0.0974,0.0979,0.1023,0.0979,0.0979,0.1023,0.0979,0.0974,0.0974,0.0974,0.0974]}]]